Time,TemperatureF,DewpointF,PressureIn,WindDirection,WindDirectionDegrees,WindSpeedMPH,WindSpeedGustMPH,Humidity,HourlyPrecipIn,Conditions,Clouds,dailyrainin,SoftwareType,DateUTC
2013-01-21 00:00:00,36.8,20.4,30.29,NW,325,6.0,10.0,51,0.00,,---,0.00,VWS V14.00,2013-01-21 06:00:00,
2013-01-21 00:01:00,36.6,20.6,30.29,NW,325,6.0,10.0,52,0.00,,---,0.00,VWS V14.00,2013-01-21 06:01:00,
2013-01-21 00:02:00,36.6,20.6,30.29,NW,325,4.0,7.0,52,0.00,,---,0.00,VWS V14.00,2013-01-21 06:02:00,
2013-01-21 00:03:00,36.6,20.6,30.29,NW,325,7.0,8.0,52,0.00,,---,0.00,VWS V14.00,2013-01-21 06:03:00,
2013-01-21 00:04:00,36.3,19.9,30.29,NW,325,4.0,10.0,51,0.00,,---,0.00,VWS V14.00,2013-01-21 06:04:00,
2013-01-21 00:05:00,36.5,20.6,30.29,NW,325,10.0,10.0,52,0.00,,---,0.00,VWS V14.00,2013-01-21 06:05:00,
2013-01-21 00:06:00,36.3,19.9,30.29,NW,325,4.0,10.0,51,0.00,,---,0.00,VWS V14.00,2013-01-21 06:06:00,
2013-01-21 00:07:00,36.3,20.4,30.29,NW,325,6.0,9.0,52,0.00,,---,0.00,VWS V14.00,2013-01-21 06:07:00,
2013-01-21 00:08:00,36.3,19.9,30.29,NW,325,10.0,10.0,51,0.00,,---,0.00,VWS V14.00,2013-01-21 06:08:00,
2013-01-21 00:09:00,36.2,19.8,30.29,NW,325,4.0,9.0,51,0.00,,---,0.00,VWS V14.00,2013-01-21 06:09:00,
2013-01-21 00:10:00,36.2,19.8,30.29,NW,325,3.0,7.0,51,0.00,,---,0.00,VWS V14.00,2013-01-21 06:10:00,
2013-01-21 00:11:00,36.2,20.3,30.29,NW,325,4.0,9.0,52,0.00,,---,0.00,VWS V14.00,2013-01-21 06:11:00,
2013-01-21 00:12:00,36.0,20.1,30.29,NW,325,10.0,11.0,52,0.00,,---,0.00,VWS V14.00,2013-01-21 06:12:00,
2013-01-21 00:13:00,36.0,19.6,30.29,NW,325,6.0,10.0,51,0.00,,---,0.00,VWS V14.00,2013-01-21 06:13:00,
2013-01-21 00:14:00,35.9,22.2,30.29,NW,325,7.0,10.0,57,0.00,,---,0.00,VWS V14.00,2013-01-21 06:14:00,
2013-01-21 00:15:00,36.0,20.5,30.29,NW,325,6.0,11.0,53,0.00,,---,0.00,VWS V14.00,2013-01-21 06:15:00,
2013-01-21 00:16:00,35.9,22.2,30.29,NW,325,6.0,10.0,57,0.00,,---,0.00,VWS V14.00,2013-01-21 06:16:00,
2013-01-21 00:17:00,35.9,20.0,30.29,NW,325,3.0,9.0,52,0.00,,---,0.00,VWS V14.00,2013-01-21 06:17:00,
2013-01-21 00:18:00,35.9,20.0,30.29,NW,325,6.0,8.0,52,0.00,,---,0.00,VWS V14.00,2013-01-21 06:18:00,
2013-01-21 00:19:00,35.8,20.4,30.29,NW,325,5.0,7.0,53,0.00,,---,0.00,VWS V14.00,2013-01-21 06:19:00,
2013-01-21 00:20:00,35.8,20.4,30.29,NW,325,7.0,10.0,53,0.00,,---,0.00,VWS V14.00,2013-01-21 06:20:00,
2013-01-21 00:21:00,35.8,20.4,30.29,NW,325,6.0,7.0,53,0.00,,---,0.00,VWS V14.00,2013-01-21 06:21:00,
2013-01-21 00:22:00,35.6,20.6,30.29,NW,325,7.0,7.0,54,0.00,,---,0.00,VWS V14.00,2013-01-21 06:22:00,
2013-01-21 00:23:00,35.6,20.2,30.29,NW,325,10.0,12.0,53,0.00,,---,0.00,VWS V14.00,2013-01-21 06:23:00,
2013-01-21 00:24:00,35.3,19.9,30.29,NW,326,11.0,11.0,53,0.00,,---,0.00,VWS V14.00,2013-01-21 06:24:00,
2013-01-21 00:25:00,35.5,20.1,30.29,NW,326,10.0,10.0,53,0.00,,---,0.00,VWS V14.00,2013-01-21 06:25:00,
2013-01-21 00:26:00,35.3,19.9,30.29,NW,326,10.0,11.0,53,0.00,,---,0.00,VWS V14.00,2013-01-21 06:26:00,
2013-01-21 00:27:00,35.3,19.9,30.29,NW,326,6.0,10.0,53,0.00,,---,0.00,VWS V14.00,2013-01-21 06:27:00,
2013-01-21 00:28:00,35.3,19.9,30.29,NNW,327,8.0,11.0,53,0.00,,---,0.00,VWS V14.00,2013-01-21 06:28:00,
2013-01-21 00:29:00,35.2,20.2,30.29,NNW,329,9.0,11.0,54,0.00,,---,0.00,VWS V14.00,2013-01-21 06:29:00,
2013-01-21 00:30:00,35.2,19.8,30.29,NNW,329,7.0,12.0,53,0.00,,---,0.00,VWS V14.00,2013-01-21 06:30:00,
2013-01-21 00:31:00,35.0,20.0,30.29,NNW,329,11.0,11.0,54,0.00,,---,0.00,VWS V14.00,2013-01-21 06:31:00,
2013-01-21 00:32:00,35.0,19.6,30.29,NNW,331,5.0,11.0,53,0.00,,---,0.00,VWS V14.00,2013-01-21 06:32:00,
2013-01-21 00:33:00,35.0,19.6,30.29,NNW,331,4.0,9.0,53,0.00,,---,0.00,VWS V14.00,2013-01-21 06:33:00,
2013-01-21 00:34:00,34.9,20.0,30.29,NNW,330,5.0,8.0,54,0.00,,---,0.00,VWS V14.00,2013-01-21 06:34:00,
2013-01-21 00:35:00,34.9,20.0,30.29,NNW,330,6.0,9.0,54,0.00,,---,0.00,VWS V14.00,2013-01-21 06:35:00,
2013-01-21 00:36:00,34.9,20.0,30.29,NNW,330,6.0,8.0,54,0.00,,---,0.00,VWS V14.00,2013-01-21 06:36:00,
2013-01-21 00:37:00,34.9,20.0,30.30,NNW,338,5.0,11.0,54,0.00,,---,0.00,VWS V14.00,2013-01-21 06:37:00,
2013-01-21 00:38:00,34.9,20.4,30.30,NNW,338,5.0,6.0,55,0.00,,---,0.00,VWS V14.00,2013-01-21 06:38:00,
2013-01-21 00:39:00,34.6,20.1,30.30,NNW,328,9.0,9.0,55,0.00,,---,0.00,VWS V14.00,2013-01-21 06:39:00,
2013-01-21 00:40:00,34.7,20.6,30.30,NNW,328,9.0,11.0,56,0.00,,---,0.00,VWS V14.00,2013-01-21 06:40:00,
2013-01-21 00:41:00,34.6,20.1,30.30,NNW,328,7.0,9.0,55,0.00,,---,0.00,VWS V14.00,2013-01-21 06:41:00,
2013-01-21 00:42:00,34.6,20.5,30.30,NW,326,6.0,9.0,56,0.00,,---,0.00,VWS V14.00,2013-01-21 06:42:00,
2013-01-21 00:43:00,34.4,19.9,30.30,NW,325,9.0,10.0,55,0.00,,---,0.00,VWS V14.00,2013-01-21 06:43:00,
2013-01-21 00:44:00,34.1,20.1,30.30,NW,325,4.0,6.0,56,0.00,,---,0.00,VWS V14.00,2013-01-21 06:44:00,
2013-01-21 00:45:00,34.1,20.1,30.30,NW,325,4.0,7.0,56,0.00,,---,0.00,VWS V14.00,2013-01-21 06:45:00,
2013-01-21 00:46:00,34.1,20.5,30.30,NW,325,4.0,6.0,57,0.00,,---,0.00,VWS V14.00,2013-01-21 06:46:00,
2013-01-21 00:47:00,34.0,20.0,30.30,NW,325,3.0,7.0,56,0.00,,---,0.00,VWS V14.00,2013-01-21 06:47:00,
2013-01-21 00:48:00,34.0,20.4,30.30,NW,325,5.0,7.0,57,0.00,,---,0.00,VWS V14.00,2013-01-21 06:48:00,
2013-01-21 00:49:00,33.7,19.7,30.30,NNE,18,10.0,12.0,56,0.00,,---,0.00,VWS V14.00,2013-01-21 06:49:00,
2013-01-21 00:50:00,33.8,20.6,30.30,NW,325,7.0,10.0,58,0.00,,---,0.00,VWS V14.00,2013-01-21 06:50:00,
2013-01-21 00:51:00,33.7,19.7,30.30,NNE,18,10.0,12.0,56,0.00,,---,0.00,VWS V14.00,2013-01-21 06:51:00,
2013-01-21 00:52:00,33.7,19.7,30.30,NNW,334,7.0,11.0,56,0.00,,---,0.00,VWS V14.00,2013-01-21 06:52:00,
2013-01-21 00:53:00,33.7,19.7,30.30,NNW,329,4.0,11.0,56,0.00,,---,0.00,VWS V14.00,2013-01-21 06:53:00,
2013-01-21 00:54:00,33.7,19.7,30.30,NNW,331,9.0,11.0,56,0.00,,---,0.00,VWS V14.00,2013-01-21 06:54:00,
2013-01-21 00:55:00,33.7,19.7,30.30,NNW,329,6.0,10.0,56,0.00,,---,0.00,VWS V14.00,2013-01-21 06:55:00,
2013-01-21 00:56:00,33.7,19.7,30.30,NNW,331,8.0,11.0,56,0.00,,---,0.00,VWS V14.00,2013-01-21 06:56:00,
2013-01-21 00:57:00,33.7,19.3,30.30,NNW,331,5.0,9.0,55,0.00,,---,0.00,VWS V14.00,2013-01-21 06:57:00,
2013-01-21 00:58:00,33.7,19.3,30.30,NNW,331,11.0,11.0,55,0.00,,---,0.00,VWS V14.00,2013-01-21 06:58:00,
2013-01-21 00:59:00,33.5,19.1,30.30,NNW,334,10.0,11.0,55,0.00,,---,0.00,VWS V14.00,2013-01-21 06:59:00,
2013-01-21 01:00:00,33.7,19.3,30.30,NNW,331,1.0,4.0,55,0.00,,---,0.00,VWS V14.00,2013-01-21 07:00:00,
2013-01-21 01:01:00,33.5,19.1,30.30,NNW,336,8.0,11.0,55,0.00,,---,0.00,VWS V14.00,2013-01-21 07:01:00,
2013-01-21 01:02:00,33.5,19.1,30.30,NNW,336,3.0,8.0,55,0.00,,---,0.00,VWS V14.00,2013-01-21 07:02:00,
2013-01-21 01:03:00,33.5,19.1,30.30,NNW,336,3.0,5.0,55,0.00,,---,0.00,VWS V14.00,2013-01-21 07:03:00,
2013-01-21 01:04:00,33.4,19.0,30.30,NNW,336,1.0,3.0,55,0.00,,---,0.00,VWS V14.00,2013-01-21 07:04:00,
2013-01-21 01:05:00,33.5,19.1,30.30,NNW,337,3.0,5.0,55,0.00,,---,0.00,VWS V14.00,2013-01-21 07:05:00,
2013-01-21 01:06:00,33.4,19.0,30.30,NNW,337,2.0,3.0,55,0.00,,---,0.00,VWS V14.00,2013-01-21 07:06:00,
2013-01-21 01:07:00,33.4,19.4,30.30,NNW,336,5.0,5.0,56,0.00,,---,0.00,VWS V14.00,2013-01-21 07:07:00,
2013-01-21 01:08:00,33.4,19.0,30.30,NNW,336,4.0,6.0,55,0.00,,---,0.00,VWS V14.00,2013-01-21 07:08:00,
2013-01-21 01:09:00,33.2,19.2,30.30,NNW,337,5.0,5.0,56,0.00,,---,0.00,VWS V14.00,2013-01-21 07:09:00,
2013-01-21 01:10:00,33.4,19.4,30.30,NNW,336,4.0,10.0,56,0.00,,---,0.00,VWS V14.00,2013-01-21 07:10:00,
2013-01-21 01:11:00,33.2,19.2,30.30,NNW,337,4.0,5.0,56,0.00,,---,0.00,VWS V14.00,2013-01-21 07:11:00,
2013-01-21 01:12:00,33.2,19.2,30.30,NNW,337,5.0,10.0,56,0.00,,---,0.00,VWS V14.00,2013-01-21 07:12:00,
2013-01-21 01:13:00,33.2,19.2,30.30,NNW,337,6.0,6.0,56,0.00,,---,0.00,VWS V14.00,2013-01-21 07:13:00,
2013-01-21 01:14:00,33.1,19.1,30.30,NNW,337,5.0,5.0,56,0.00,,---,0.00,VWS V14.00,2013-01-21 07:14:00,
2013-01-21 01:15:00,33.1,19.5,30.30,NNW,337,4.0,5.0,57,0.00,,---,0.00,VWS V14.00,2013-01-21 07:15:00,
2013-01-21 01:16:00,33.1,19.1,30.30,NNW,337,3.0,5.0,56,0.00,,---,0.00,VWS V14.00,2013-01-21 07:16:00,
2013-01-21 01:17:00,33.1,19.1,30.30,NNW,337,3.0,6.0,56,0.00,,---,0.00,VWS V14.00,2013-01-21 07:17:00,
2013-01-21 01:18:00,32.9,18.9,30.30,NNW,337,3.0,3.0,56,0.00,,---,0.00,VWS V14.00,2013-01-21 07:18:00,
2013-01-21 01:19:00,32.8,18.8,30.31,NNW,337,4.0,5.0,56,0.00,,---,0.00,VWS V14.00,2013-01-21 07:19:00,
2013-01-21 01:20:00,32.9,18.9,30.31,NNW,337,2.0,6.0,56,0.00,,---,0.00,VWS V14.00,2013-01-21 07:20:00,
2013-01-21 01:21:00,32.8,18.8,30.31,NNW,337,4.0,5.0,56,0.00,,---,0.00,VWS V14.00,2013-01-21 07:21:00,
2013-01-21 01:22:00,32.8,19.3,30.31,NNW,337,0.0,5.0,57,0.00,,---,0.00,VWS V14.00,2013-01-21 07:22:00,
2013-01-21 01:23:00,32.7,19.2,30.31,NNW,337,2.0,2.0,57,0.00,,---,0.00,VWS V14.00,2013-01-21 07:23:00,
2013-01-21 01:24:00,32.7,19.2,30.31,NNW,337,0.0,2.0,57,0.00,,---,0.00,VWS V14.00,2013-01-21 07:24:00,
2013-01-21 01:25:00,32.7,19.2,30.31,NNW,337,0.0,0.0,57,0.00,,---,0.00,VWS V14.00,2013-01-21 07:25:00,
2013-01-21 01:26:00,32.7,19.2,30.31,NNW,336,0.0,2.0,57,0.00,,---,0.00,VWS V14.00,2013-01-21 07:26:00,
2013-01-21 01:27:00,32.7,19.6,30.31,NNW,337,3.0,6.0,58,0.00,,---,0.00,VWS V14.00,2013-01-21 07:27:00,
2013-01-21 01:28:00,32.5,19.4,30.31,NNW,337,1.0,3.0,58,0.00,,---,0.00,VWS V14.00,2013-01-21 07:28:00,
2013-01-21 01:29:00,32.5,19.4,30.32,NNW,337,3.0,4.0,58,0.00,,---,0.00,VWS V14.00,2013-01-21 07:29:00,
2013-01-21 01:30:00,32.5,19.4,30.32,NNW,337,3.0,4.0,58,0.00,,---,0.00,VWS V14.00,2013-01-21 07:30:00,
2013-01-21 01:31:00,32.5,19.4,30.32,NNW,337,3.0,4.0,58,0.00,,---,0.00,VWS V14.00,2013-01-21 07:31:00,
2013-01-21 01:32:00,32.4,19.3,30.32,NNW,337,2.0,3.0,58,0.00,,---,0.00,VWS V14.00,2013-01-21 07:32:00,
2013-01-21 01:33:00,32.4,19.3,30.32,NNW,337,0.0,2.0,58,0.00,,---,0.00,VWS V14.00,2013-01-21 07:33:00,
2013-01-21 01:34:00,32.4,19.3,30.32,NNW,336,3.0,4.0,58,0.00,,---,0.00,VWS V14.00,2013-01-21 07:34:00,
2013-01-21 01:35:00,32.4,19.3,30.32,NNW,337,2.0,4.0,58,0.00,,---,0.00,VWS V14.00,2013-01-21 07:35:00,
2013-01-21 01:36:00,32.4,19.3,30.32,NNW,337,3.0,4.0,58,0.00,,---,0.00,VWS V14.00,2013-01-21 07:36:00,
2013-01-21 01:37:00,32.4,19.3,30.32,NNW,337,0.0,3.0,58,0.00,,---,0.00,VWS V14.00,2013-01-21 07:37:00,
2013-01-21 01:38:00,32.2,19.1,30.32,NNW,337,0.0,3.0,58,0.00,,---,0.00,VWS V14.00,2013-01-21 07:38:00,
2013-01-21 01:39:00,32.2,19.1,30.32,NNW,337,1.0,3.0,58,0.00,,---,0.00,VWS V14.00,2013-01-21 07:39:00,
2013-01-21 01:40:00,32.2,19.1,30.32,NNW,337,2.0,5.0,58,0.00,,---,0.00,VWS V14.00,2013-01-21 07:40:00,
2013-01-21 01:41:00,32.2,19.1,30.32,NNW,337,1.0,3.0,58,0.00,,---,0.00,VWS V14.00,2013-01-21 07:41:00,
2013-01-21 01:42:00,32.1,19.0,30.32,NNW,337,4.0,4.0,58,0.00,,---,0.00,VWS V14.00,2013-01-21 07:42:00,
2013-01-21 01:43:00,32.1,19.0,30.32,NNW,337,0.0,5.0,58,0.00,,---,0.00,VWS V14.00,2013-01-21 07:43:00,
2013-01-21 01:44:00,31.9,18.8,30.33,NNW,337,1.0,4.0,58,0.00,,---,0.00,VWS V14.00,2013-01-21 07:44:00,
2013-01-21 01:45:00,32.1,19.0,30.33,NNW,337,4.0,5.0,58,0.00,,---,0.00,VWS V14.00,2013-01-21 07:45:00,
2013-01-21 01:46:00,31.9,18.8,30.33,NNW,337,1.0,4.0,58,0.00,,---,0.00,VWS V14.00,2013-01-21 07:46:00,
2013-01-21 01:47:00,31.9,18.8,30.33,NNW,337,1.0,4.0,58,0.00,,---,0.00,VWS V14.00,2013-01-21 07:47:00,
2013-01-21 01:48:00,31.9,18.8,30.33,NNW,337,0.0,4.0,58,0.00,,---,0.00,VWS V14.00,2013-01-21 07:48:00,
2013-01-21 01:49:00,31.8,18.7,30.33,NNW,337,1.0,4.0,58,0.00,,---,0.00,VWS V14.00,2013-01-21 07:49:00,
2013-01-21 01:50:00,31.9,18.8,30.33,NNW,337,2.0,7.0,58,0.00,,---,0.00,VWS V14.00,2013-01-21 07:50:00,
2013-01-21 01:51:00,31.8,18.7,30.33,NNW,337,1.0,4.0,58,0.00,,---,0.00,VWS V14.00,2013-01-21 07:51:00,
2013-01-21 01:52:00,31.8,18.7,30.33,NNW,337,0.0,3.0,58,0.00,,---,0.00,VWS V14.00,2013-01-21 07:52:00,
2013-01-21 01:53:00,31.8,18.7,30.33,NNW,337,0.0,3.0,58,0.00,,---,0.00,VWS V14.00,2013-01-21 07:53:00,
2013-01-21 01:54:00,31.8,18.7,30.32,NNW,337,0.0,0.0,58,0.00,,---,0.00,VWS V14.00,2013-01-21 07:54:00,
2013-01-21 01:55:00,31.8,18.7,30.32,NNW,337,0.0,0.0,58,0.00,,---,0.00,VWS V14.00,2013-01-21 07:55:00,
2013-01-21 01:56:00,31.8,18.7,30.32,NNW,337,0.0,0.0,58,0.00,,---,0.00,VWS V14.00,2013-01-21 07:56:00,
2013-01-21 01:57:00,31.6,18.5,30.32,NNW,337,0.0,0.0,58,0.00,,---,0.00,VWS V14.00,2013-01-21 07:57:00,
2013-01-21 01:58:00,31.6,18.5,30.32,NNW,337,1.0,1.0,58,0.00,,---,0.00,VWS V14.00,2013-01-21 07:58:00,
2013-01-21 01:59:00,31.5,18.4,30.32,NNW,337,0.0,2.0,58,0.00,,---,0.00,VWS V14.00,2013-01-21 07:59:00,
2013-01-21 02:00:00,31.5,18.0,30.32,NNW,337,0.0,3.0,57,0.00,,---,0.00,VWS V14.00,2013-01-21 08:00:00,
2013-01-21 02:01:00,31.5,18.4,30.32,NNW,337,0.0,2.0,58,0.00,,---,0.00,VWS V14.00,2013-01-21 08:01:00,
2013-01-21 02:02:00,31.5,18.4,30.32,NNW,337,1.0,1.0,58,0.00,,---,0.00,VWS V14.00,2013-01-21 08:02:00,
2013-01-21 02:03:00,31.5,18.4,30.32,NNW,337,0.0,2.0,58,0.00,,---,0.00,VWS V14.00,2013-01-21 08:03:00,
2013-01-21 02:04:00,31.3,18.2,30.33,NNW,337,0.0,2.0,58,0.00,,---,0.00,VWS V14.00,2013-01-21 08:04:00,
2013-01-21 02:05:00,31.3,18.2,30.32,NNW,337,1.0,1.0,58,0.00,,---,0.00,VWS V14.00,2013-01-21 08:05:00,
2013-01-21 02:06:00,31.3,18.2,30.33,NNW,337,0.0,2.0,58,0.00,,---,0.00,VWS V14.00,2013-01-21 08:06:00,
2013-01-21 02:07:00,31.3,18.2,30.33,NNW,337,3.0,3.0,58,0.00,,---,0.00,VWS V14.00,2013-01-21 08:07:00,
2013-01-21 02:08:00,31.3,18.2,30.33,NNW,337,4.0,4.0,58,0.00,,---,0.00,VWS V14.00,2013-01-21 08:08:00,
2013-01-21 02:09:00,31.3,18.6,30.34,NNW,337,3.0,4.0,59,0.00,,---,0.00,VWS V14.00,2013-01-21 08:09:00,
2013-01-21 02:10:00,31.3,18.2,30.33,NNW,337,3.0,4.0,58,0.00,,---,0.00,VWS V14.00,2013-01-21 08:10:00,
2013-01-21 02:11:00,31.3,18.6,30.34,NNW,337,2.0,4.0,59,0.00,,---,0.00,VWS V14.00,2013-01-21 08:11:00,
2013-01-21 02:12:00,31.3,18.6,30.34,NNW,337,4.0,5.0,59,0.00,,---,0.00,VWS V14.00,2013-01-21 08:12:00,
2013-01-21 02:13:00,31.2,18.5,30.34,NNW,337,1.0,4.0,59,0.00,,---,0.00,VWS V14.00,2013-01-21 08:13:00,
2013-01-21 02:14:00,31.2,18.5,30.34,NNW,337,2.0,3.0,59,0.00,,---,0.00,VWS V14.00,2013-01-21 08:14:00,
2013-01-21 02:15:00,31.2,18.2,30.34,NNW,337,2.0,4.0,58,0.00,,---,0.00,VWS V14.00,2013-01-21 08:15:00,
2013-01-21 02:16:00,31.2,18.5,30.34,NNW,337,2.0,3.0,59,0.00,,---,0.00,VWS V14.00,2013-01-21 08:16:00,
2013-01-21 02:17:00,31.2,18.2,30.34,NNW,337,2.0,3.0,58,0.00,,---,0.00,VWS V14.00,2013-01-21 08:17:00,
2013-01-21 02:18:00,31.0,18.0,30.34,NNW,337,2.0,4.0,58,0.00,,---,0.00,VWS V14.00,2013-01-21 08:18:00,
2013-01-21 02:19:00,31.0,18.4,30.34,NNW,337,0.0,3.0,59,0.00,,---,0.00,VWS V14.00,2013-01-21 08:19:00,
2013-01-21 02:20:00,31.0,18.4,30.34,NNW,337,0.0,2.0,59,0.00,,---,0.00,VWS V14.00,2013-01-21 08:20:00,
2013-01-21 02:21:00,31.0,18.4,30.34,NNW,337,0.0,3.0,59,0.00,,---,0.00,VWS V14.00,2013-01-21 08:21:00,
2013-01-21 02:22:00,31.0,18.4,30.34,NNW,337,0.0,0.0,59,0.00,,---,0.00,VWS V14.00,2013-01-21 08:22:00,
2013-01-21 02:23:00,30.9,18.3,30.34,NNW,337,0.0,0.0,59,0.00,,---,0.00,VWS V14.00,2013-01-21 08:23:00,
2013-01-21 02:24:00,30.9,17.9,30.34,NNW,337,0.0,2.0,58,0.00,,---,0.00,VWS V14.00,2013-01-21 08:24:00,
2013-01-21 02:25:00,30.9,18.3,30.34,NNW,337,0.0,3.0,59,0.00,,---,0.00,VWS V14.00,2013-01-21 08:25:00,
2013-01-21 02:26:00,30.9,18.3,30.34,NNW,337,0.0,2.0,59,0.00,,---,0.00,VWS V14.00,2013-01-21 08:26:00,
2013-01-21 02:27:00,30.9,18.3,30.34,NNW,337,0.0,1.0,59,0.00,,---,0.00,VWS V14.00,2013-01-21 08:27:00,
2013-01-21 02:28:00,30.9,18.3,30.34,NNW,337,2.0,3.0,59,0.00,,---,0.00,VWS V14.00,2013-01-21 08:28:00,
2013-01-21 02:29:00,30.7,18.1,30.34,NNW,337,3.0,3.0,59,0.00,,---,0.00,VWS V14.00,2013-01-21 08:29:00,
2013-01-21 02:30:00,30.7,18.1,30.34,NNW,337,1.0,2.0,59,0.00,,---,0.00,VWS V14.00,2013-01-21 08:30:00,
2013-01-21 02:31:00,30.7,18.1,30.34,NNW,337,2.0,3.0,59,0.00,,---,0.00,VWS V14.00,2013-01-21 08:31:00,
2013-01-21 02:32:00,30.7,18.1,30.34,NNW,337,0.0,4.0,59,0.00,,---,0.00,VWS V14.00,2013-01-21 08:32:00,
2013-01-21 02:33:00,30.7,18.1,30.34,NNW,337,1.0,3.0,59,0.00,,---,0.00,VWS V14.00,2013-01-21 08:33:00,
2013-01-21 02:34:00,30.7,18.1,30.35,NNW,337,0.0,2.0,59,0.00,,---,0.00,VWS V14.00,2013-01-21 08:34:00,
2013-01-21 02:35:00,30.7,18.1,30.34,NNW,337,1.0,2.0,59,0.00,,---,0.00,VWS V14.00,2013-01-21 08:35:00,
2013-01-21 02:36:00,30.7,18.1,30.35,NNW,337,0.0,2.0,59,0.00,,---,0.00,VWS V14.00,2013-01-21 08:36:00,
2013-01-21 02:37:00,30.7,18.1,30.35,NNW,337,0.0,0.0,59,0.00,,---,0.00,VWS V14.00,2013-01-21 08:37:00,
2013-01-21 02:38:00,30.6,18.0,30.35,NNW,337,0.0,0.0,59,0.00,,---,0.00,VWS V14.00,2013-01-21 08:38:00,
2013-01-21 02:39:00,30.6,18.4,30.35,NNW,337,0.0,0.0,60,0.00,,---,0.00,VWS V14.00,2013-01-21 08:39:00,
2013-01-21 02:40:00,30.6,18.4,30.35,NNW,337,0.0,0.0,60,0.00,,---,0.00,VWS V14.00,2013-01-21 08:40:00,
2013-01-21 02:41:00,30.6,18.4,30.35,NNW,337,0.0,0.0,60,0.00,,---,0.00,VWS V14.00,2013-01-21 08:41:00,
2013-01-21 02:42:00,30.6,18.4,30.35,NNW,337,0.0,0.0,60,0.00,,---,0.00,VWS V14.00,2013-01-21 08:42:00,
2013-01-21 02:43:00,30.6,18.4,30.35,NNW,337,0.0,0.0,60,0.00,,---,0.00,VWS V14.00,2013-01-21 08:43:00,
2013-01-21 02:44:00,30.4,18.2,30.35,NNW,337,1.0,3.0,60,0.00,,---,0.00,VWS V14.00,2013-01-21 08:44:00,
2013-01-21 02:45:00,30.4,17.8,30.35,NNW,337,0.0,0.0,59,0.00,,---,0.00,VWS V14.00,2013-01-21 08:45:00,
2013-01-21 02:46:00,30.4,18.2,30.35,NNW,337,2.0,3.0,60,0.00,,---,0.00,VWS V14.00,2013-01-21 08:46:00,
2013-01-21 02:47:00,30.4,18.2,30.35,NNW,337,2.0,3.0,60,0.00,,---,0.00,VWS V14.00,2013-01-21 08:47:00,
2013-01-21 02:48:00,30.4,17.8,30.35,NNW,337,3.0,3.0,59,0.00,,---,0.00,VWS V14.00,2013-01-21 08:48:00,
2013-01-21 02:49:00,30.3,17.7,30.35,NNW,337,0.0,4.0,59,0.00,,---,0.00,VWS V14.00,2013-01-21 08:49:00,
2013-01-21 02:50:00,30.3,18.1,30.35,NNW,337,3.0,4.0,60,0.00,,---,0.00,VWS V14.00,2013-01-21 08:50:00,
2013-01-21 02:51:00,30.3,17.7,30.35,NNW,337,0.0,4.0,59,0.00,,---,0.00,VWS V14.00,2013-01-21 08:51:00,
2013-01-21 02:52:00,30.3,18.1,30.35,NNW,337,1.0,4.0,60,0.00,,---,0.00,VWS V14.00,2013-01-21 08:52:00,
2013-01-21 02:53:00,30.3,18.1,30.35,NNW,337,0.0,1.0,60,0.00,,---,0.00,VWS V14.00,2013-01-21 08:53:00,
2013-01-21 02:54:00,30.3,18.1,30.35,NNW,337,3.0,5.0,60,0.00,,---,0.00,VWS V14.00,2013-01-21 08:54:00,
2013-01-21 02:55:00,30.3,17.7,30.35,NNW,337,4.0,4.0,59,0.00,,---,0.00,VWS V14.00,2013-01-21 08:55:00,
2013-01-21 02:56:00,30.3,18.1,30.35,NNW,337,3.0,5.0,60,0.00,,---,0.00,VWS V14.00,2013-01-21 08:56:00,
2013-01-21 02:57:00,30.3,18.1,30.35,NNW,337,2.0,4.0,60,0.00,,---,0.00,VWS V14.00,2013-01-21 08:57:00,
2013-01-21 02:58:00,30.3,18.1,30.35,NNW,337,2.0,4.0,60,0.00,,---,0.00,VWS V14.00,2013-01-21 08:58:00,
2013-01-21 02:59:00,30.1,17.9,30.36,NNW,337,6.0,6.0,60,0.00,,---,0.00,VWS V14.00,2013-01-21 08:59:00,
2013-01-21 03:00:00,30.1,17.9,30.36,NNW,337,6.0,7.0,60,0.00,,---,0.00,VWS V14.00,2013-01-21 09:00:00,
2013-01-21 03:01:00,30.1,17.9,30.36,NNW,337,4.0,6.0,60,0.00,,---,0.00,VWS V14.00,2013-01-21 09:01:00,
2013-01-21 03:02:00,30.1,18.3,30.36,NNW,337,3.0,6.0,61,0.00,,---,0.00,VWS V14.00,2013-01-21 09:02:00,
2013-01-21 03:03:00,30.1,18.3,30.36,NNW,337,2.0,5.0,61,0.00,,---,0.00,VWS V14.00,2013-01-21 09:03:00,
2013-01-21 03:04:00,30.1,17.9,30.36,NNW,337,7.0,7.0,60,0.00,,---,0.00,VWS V14.00,2013-01-21 09:04:00,
2013-01-21 03:05:00,30.1,18.3,30.36,NNW,337,5.0,7.0,61,0.00,,---,0.00,VWS V14.00,2013-01-21 09:05:00,
2013-01-21 03:06:00,30.1,18.3,30.36,NNW,337,5.0,5.0,61,0.00,,---,0.00,VWS V14.00,2013-01-21 09:06:00,
2013-01-21 03:07:00,30.1,18.3,30.36,NNW,337,3.0,6.0,61,0.00,,---,0.00,VWS V14.00,2013-01-21 09:07:00,
2013-01-21 03:08:00,30.1,17.9,30.36,NNW,337,6.0,6.0,60,0.00,,---,0.00,VWS V14.00,2013-01-21 09:08:00,
2013-01-21 03:09:00,30.1,17.9,30.36,NNW,337,6.0,7.0,60,0.00,,---,0.00,VWS V14.00,2013-01-21 09:09:00,
2013-01-21 03:10:00,30.1,18.3,30.36,NNW,337,3.0,6.0,61,0.00,,---,0.00,VWS V14.00,2013-01-21 09:10:00,
2013-01-21 03:11:00,30.1,17.9,30.36,NNW,337,4.0,6.0,60,0.00,,---,0.00,VWS V14.00,2013-01-21 09:11:00,
2013-01-21 03:12:00,30.1,18.3,30.36,NNW,337,5.0,6.0,61,0.00,,---,0.00,VWS V14.00,2013-01-21 09:12:00,
2013-01-21 03:13:00,30.0,18.2,30.36,NNW,337,6.0,11.0,61,0.00,,---,0.00,VWS V14.00,2013-01-21 09:13:00,
2013-01-21 03:14:00,30.0,18.2,30.36,NNW,337,3.0,8.0,61,0.00,,---,0.00,VWS V14.00,2013-01-21 09:14:00,
2013-01-21 03:15:00,30.0,17.8,30.36,NNW,337,4.0,7.0,60,0.00,,---,0.00,VWS V14.00,2013-01-21 09:15:00,
2013-01-21 03:16:00,30.0,18.2,30.36,NNW,337,7.0,11.0,61,0.00,,---,0.00,VWS V14.00,2013-01-21 09:16:00,
2013-01-21 03:17:00,30.0,18.2,30.36,NNW,337,4.0,8.0,61,0.00,,---,0.00,VWS V14.00,2013-01-21 09:17:00,
2013-01-21 03:18:00,30.0,17.4,30.36,NNW,347,9.0,9.0,59,0.00,,---,0.00,VWS V14.00,2013-01-21 09:18:00,
2013-01-21 03:19:00,30.0,17.8,30.36,NNW,337,4.0,5.0,60,0.00,,---,0.00,VWS V14.00,2013-01-21 09:19:00,
2013-01-21 03:20:00,30.0,17.8,30.36,NNW,346,8.0,10.0,60,0.00,,---,0.00,VWS V14.00,2013-01-21 09:20:00,
2013-01-21 03:21:00,30.0,17.4,30.36,NNW,348,9.0,11.0,59,0.00,,---,0.00,VWS V14.00,2013-01-21 09:21:00,
2013-01-21 03:22:00,29.8,17.2,30.35,North,349,3.0,9.0,59,0.00,,---,0.00,VWS V14.00,2013-01-21 09:22:00,
2013-01-21 03:23:00,29.8,17.2,30.35,North,349,7.0,7.0,59,0.00,,---,0.00,VWS V14.00,2013-01-21 09:23:00,
2013-01-21 03:24:00,29.8,17.2,30.35,North,349,5.0,5.0,59,0.00,,---,0.00,VWS V14.00,2013-01-21 09:24:00,
2013-01-21 03:25:00,29.8,17.2,30.35,North,349,1.0,5.0,59,0.00,,---,0.00,VWS V14.00,2013-01-21 09:25:00,
2013-01-21 03:26:00,29.8,17.2,30.35,North,349,5.0,7.0,59,0.00,,---,0.00,VWS V14.00,2013-01-21 09:26:00,
2013-01-21 03:27:00,29.8,17.2,30.35,North,349,1.0,5.0,59,0.00,,---,0.00,VWS V14.00,2013-01-21 09:27:00,
2013-01-21 03:28:00,29.7,17.1,30.35,North,349,2.0,5.0,59,0.00,,---,0.00,VWS V14.00,2013-01-21 09:28:00,
2013-01-21 03:29:00,29.7,17.5,30.35,North,349,5.0,7.0,60,0.00,,---,0.00,VWS V14.00,2013-01-21 09:29:00,
2013-01-21 03:30:00,29.7,17.1,30.35,North,349,3.0,6.0,59,0.00,,---,0.00,VWS V14.00,2013-01-21 09:30:00,
2013-01-21 03:31:00,29.7,17.1,30.35,North,349,2.0,5.0,59,0.00,,---,0.00,VWS V14.00,2013-01-21 09:31:00,
2013-01-21 03:32:00,29.7,17.1,30.35,North,349,0.0,3.0,59,0.00,,---,0.00,VWS V14.00,2013-01-21 09:32:00,
2013-01-21 03:33:00,29.5,17.3,30.35,North,349,4.0,4.0,60,0.00,,---,0.00,VWS V14.00,2013-01-21 09:33:00,
2013-01-21 03:34:00,29.5,17.0,30.34,North,349,0.0,0.0,59,0.00,,---,0.00,VWS V14.00,2013-01-21 09:34:00,
2013-01-21 03:35:00,29.5,17.3,30.35,North,349,2.0,3.0,60,0.00,,---,0.00,VWS V14.00,2013-01-21 09:35:00,
2013-01-21 03:36:00,29.5,17.3,30.35,North,349,3.0,5.0,60,0.00,,---,0.00,VWS V14.00,2013-01-21 09:36:00,
2013-01-21 03:37:00,29.5,17.3,30.35,North,349,0.0,3.0,60,0.00,,---,0.00,VWS V14.00,2013-01-21 09:37:00,
2013-01-21 03:38:00,29.5,17.3,30.35,North,349,0.0,3.0,60,0.00,,---,0.00,VWS V14.00,2013-01-21 09:38:00,
2013-01-21 03:39:00,29.5,17.3,30.35,North,349,0.0,1.0,60,0.00,,---,0.00,VWS V14.00,2013-01-21 09:39:00,
2013-01-21 03:40:00,29.5,17.3,30.35,North,349,0.0,0.0,60,0.00,,---,0.00,VWS V14.00,2013-01-21 09:40:00,
2013-01-21 03:41:00,29.4,17.2,30.35,North,349,0.0,3.0,60,0.00,,---,0.00,VWS V14.00,2013-01-21 09:41:00,
2013-01-21 03:42:00,29.4,17.2,30.35,North,349,1.0,1.0,60,0.00,,---,0.00,VWS V14.00,2013-01-21 09:42:00,
2013-01-21 03:43:00,29.3,16.8,30.36,North,349,2.0,7.0,59,0.00,,---,0.00,VWS V14.00,2013-01-21 09:43:00,
2013-01-21 03:44:00,29.4,17.2,30.36,North,349,0.0,2.0,60,0.00,,---,0.00,VWS V14.00,2013-01-21 09:44:00,
2013-01-21 03:45:00,29.4,17.2,30.36,North,349,7.0,7.0,60,0.00,,---,0.00,VWS V14.00,2013-01-21 09:45:00,
2013-01-21 03:46:00,29.3,16.8,30.36,North,349,0.0,7.0,59,0.00,,---,0.00,VWS V14.00,2013-01-21 09:46:00,
2013-01-21 03:47:00,29.3,16.8,30.36,North,349,2.0,5.0,59,0.00,,---,0.00,VWS V14.00,2013-01-21 09:47:00,
2013-01-21 03:48:00,29.1,16.6,30.36,North,349,2.0,3.0,59,0.00,,---,0.00,VWS V14.00,2013-01-21 09:48:00,
2013-01-21 03:49:00,29.3,16.8,30.36,North,349,4.0,6.0,59,0.00,,---,0.00,VWS V14.00,2013-01-21 09:49:00,
2013-01-21 03:50:00,29.1,16.6,30.36,North,349,0.0,5.0,59,0.00,,---,0.00,VWS V14.00,2013-01-21 09:50:00,
2013-01-21 03:51:00,29.1,16.6,30.36,North,349,1.0,3.0,59,0.00,,---,0.00,VWS V14.00,2013-01-21 09:51:00,
2013-01-21 03:52:00,29.1,16.6,30.36,North,349,0.0,1.0,59,0.00,,---,0.00,VWS V14.00,2013-01-21 09:52:00,
2013-01-21 03:53:00,29.1,16.6,30.36,North,349,4.0,4.0,59,0.00,,---,0.00,VWS V14.00,2013-01-21 09:53:00,
2013-01-21 03:54:00,29.1,16.6,30.36,North,349,3.0,4.0,59,0.00,,---,0.00,VWS V14.00,2013-01-21 09:54:00,
2013-01-21 03:55:00,29.1,16.6,30.36,North,349,2.0,6.0,59,0.00,,---,0.00,VWS V14.00,2013-01-21 09:55:00,
2013-01-21 03:56:00,29.1,16.6,30.36,North,349,2.0,4.0,59,0.00,,---,0.00,VWS V14.00,2013-01-21 09:56:00,
2013-01-21 03:57:00,29.1,16.6,30.36,North,349,2.0,4.0,59,0.00,,---,0.00,VWS V14.00,2013-01-21 09:57:00,
2013-01-21 03:58:00,29.0,16.1,30.36,North,350,7.0,9.0,58,0.00,,---,0.00,VWS V14.00,2013-01-21 09:58:00,
2013-01-21 03:59:00,29.1,16.6,30.36,North,349,4.0,9.0,59,0.00,,---,0.00,VWS V14.00,2013-01-21 09:59:00,
2013-01-21 04:00:00,29.0,16.1,30.36,North,350,6.0,6.0,58,0.00,,---,0.00,VWS V14.00,2013-01-21 10:00:00,
2013-01-21 04:01:00,29.0,15.7,30.36,North,350,3.0,9.0,57,0.00,,---,0.00,VWS V14.00,2013-01-21 10:01:00,
2013-01-21 04:02:00,29.0,15.7,30.36,North,350,2.0,9.0,57,0.00,,---,0.00,VWS V14.00,2013-01-21 10:02:00,
2013-01-21 04:03:00,29.0,16.1,30.36,North,350,10.0,10.0,58,0.00,,---,0.00,VWS V14.00,2013-01-21 10:03:00,
2013-01-21 04:04:00,29.0,15.7,30.36,North,350,3.0,6.0,57,0.00,,---,0.00,VWS V14.00,2013-01-21 10:04:00,
2013-01-21 04:05:00,29.0,15.7,30.36,North,350,7.0,7.0,57,0.00,,---,0.00,VWS V14.00,2013-01-21 10:05:00,
2013-01-21 04:06:00,29.0,15.3,30.36,North,350,4.0,10.0,56,0.00,,---,0.00,VWS V14.00,2013-01-21 10:06:00,
2013-01-21 04:07:00,29.0,15.3,30.36,North,350,2.0,5.0,56,0.00,,---,0.00,VWS V14.00,2013-01-21 10:07:00,
2013-01-21 04:08:00,28.8,15.1,30.36,North,350,4.0,4.0,56,0.00,,---,0.00,VWS V14.00,2013-01-21 10:08:00,
2013-01-21 04:09:00,28.8,15.1,30.36,North,350,0.0,4.0,56,0.00,,---,0.00,VWS V14.00,2013-01-21 10:09:00,
2013-01-21 04:10:00,28.8,15.1,30.36,North,350,2.0,3.0,56,0.00,,---,0.00,VWS V14.00,2013-01-21 10:10:00,
2013-01-21 04:11:00,28.8,15.1,30.36,North,350,5.0,5.0,56,0.00,,---,0.00,VWS V14.00,2013-01-21 10:11:00,
2013-01-21 04:12:00,28.8,14.7,30.36,North,350,1.0,5.0,55,0.00,,---,0.00,VWS V14.00,2013-01-21 10:12:00,
2013-01-21 04:13:00,28.8,14.7,30.37,North,351,1.0,6.0,55,0.00,,---,0.00,VWS V14.00,2013-01-21 10:13:00,
2013-01-21 04:14:00,28.8,15.1,30.37,North,350,0.0,5.0,56,0.00,,---,0.00,VWS V14.00,2013-01-21 10:14:00,
2013-01-21 04:15:00,28.8,15.1,30.37,North,351,6.0,9.0,56,0.00,,---,0.00,VWS V14.00,2013-01-21 10:15:00,
2013-01-21 04:16:00,28.8,14.7,30.37,North,351,3.0,6.0,55,0.00,,---,0.00,VWS V14.00,2013-01-21 10:16:00,
2013-01-21 04:17:00,28.7,15.0,30.37,North,351,5.0,5.0,56,0.00,,---,0.00,VWS V14.00,2013-01-21 10:17:00,
2013-01-21 04:18:00,28.7,14.6,30.38,North,351,2.0,7.0,55,0.00,,---,0.00,VWS V14.00,2013-01-21 10:18:00,
2013-01-21 04:19:00,28.7,15.0,30.37,North,351,6.0,6.0,56,0.00,,---,0.00,VWS V14.00,2013-01-21 10:19:00,
2013-01-21 04:20:00,28.7,14.6,30.37,North,351,7.0,9.0,55,0.00,,---,0.00,VWS V14.00,2013-01-21 10:20:00,
2013-01-21 04:21:00,28.7,14.6,30.38,North,351,2.0,7.0,55,0.00,,---,0.00,VWS V14.00,2013-01-21 10:21:00,
2013-01-21 04:22:00,28.7,15.0,30.38,North,351,3.0,3.0,56,0.00,,---,0.00,VWS V14.00,2013-01-21 10:22:00,
2013-01-21 04:23:00,28.5,14.4,30.38,North,351,0.0,2.0,55,0.00,,---,0.00,VWS V14.00,2013-01-21 10:23:00,
2013-01-21 04:24:00,28.5,14.4,30.38,North,351,0.0,5.0,55,0.00,,---,0.00,VWS V14.00,2013-01-21 10:24:00,
2013-01-21 04:25:00,28.5,14.4,30.37,North,351,2.0,2.0,55,0.00,,---,0.00,VWS V14.00,2013-01-21 10:25:00,
2013-01-21 04:26:00,28.5,14.4,30.38,North,351,3.0,3.0,55,0.00,,---,0.00,VWS V14.00,2013-01-21 10:26:00,
2013-01-21 04:27:00,28.5,14.4,30.38,North,351,0.0,3.0,55,0.00,,---,0.00,VWS V14.00,2013-01-21 10:27:00,
2013-01-21 04:28:00,28.4,14.3,30.38,North,351,2.0,3.0,55,0.00,,---,0.00,VWS V14.00,2013-01-21 10:28:00,
2013-01-21 04:29:00,28.4,14.7,30.38,North,351,0.0,0.0,56,0.00,,---,0.00,VWS V14.00,2013-01-21 10:29:00,
2013-01-21 04:30:00,28.4,14.3,30.38,North,351,0.0,0.0,55,0.00,,---,0.00,VWS V14.00,2013-01-21 10:30:00,
2013-01-21 04:31:00,28.4,14.7,30.38,North,351,1.0,3.0,56,0.00,,---,0.00,VWS V14.00,2013-01-21 10:31:00,
2013-01-21 04:32:00,28.4,14.3,30.37,North,351,0.0,1.0,55,0.00,,---,0.00,VWS V14.00,2013-01-21 10:32:00,
2013-01-21 04:33:00,28.4,14.7,30.38,North,351,0.0,0.0,56,0.00,,---,0.00,VWS V14.00,2013-01-21 10:33:00,
2013-01-21 04:34:00,28.4,14.3,30.38,North,351,0.0,0.0,55,0.00,,---,0.00,VWS V14.00,2013-01-21 10:34:00,
2013-01-21 04:35:00,28.4,14.7,30.38,North,351,0.0,0.0,56,0.00,,---,0.00,VWS V14.00,2013-01-21 10:35:00,
2013-01-21 04:36:00,28.2,14.5,30.38,North,351,0.0,0.0,56,0.00,,---,0.00,VWS V14.00,2013-01-21 10:36:00,
2013-01-21 04:37:00,28.2,14.5,30.38,North,351,0.0,0.0,56,0.00,,---,0.00,VWS V14.00,2013-01-21 10:37:00,
2013-01-21 04:38:00,28.2,14.5,30.38,North,351,1.0,2.0,56,0.00,,---,0.00,VWS V14.00,2013-01-21 10:38:00,
2013-01-21 04:39:00,28.2,14.5,30.38,North,351,0.0,3.0,56,0.00,,---,0.00,VWS V14.00,2013-01-21 10:39:00,
2013-01-21 04:40:00,28.2,14.5,30.38,North,351,1.0,1.0,56,0.00,,---,0.00,VWS V14.00,2013-01-21 10:40:00,
2013-01-21 04:41:00,28.2,14.1,30.38,North,351,2.0,2.0,55,0.00,,---,0.00,VWS V14.00,2013-01-21 10:41:00,
2013-01-21 04:42:00,28.2,14.1,30.38,North,351,2.0,5.0,55,0.00,,---,0.00,VWS V14.00,2013-01-21 10:42:00,
2013-01-21 04:43:00,28.1,14.0,30.38,North,351,0.0,0.0,55,0.00,,---,0.00,VWS V14.00,2013-01-21 10:43:00,
2013-01-21 04:44:00,28.1,14.0,30.38,North,351,1.0,1.0,55,0.00,,---,0.00,VWS V14.00,2013-01-21 10:44:00,
2013-01-21 04:45:00,28.1,14.0,30.38,North,351,0.0,2.0,55,0.00,,---,0.00,VWS V14.00,2013-01-21 10:45:00,
2013-01-21 04:46:00,28.1,14.0,30.38,North,351,0.0,0.0,55,0.00,,---,0.00,VWS V14.00,2013-01-21 10:46:00,
2013-01-21 04:47:00,28.1,14.0,30.38,North,351,0.0,0.0,55,0.00,,---,0.00,VWS V14.00,2013-01-21 10:47:00,
2013-01-21 04:48:00,27.9,13.8,30.38,North,351,0.0,0.0,55,0.00,,---,0.00,VWS V14.00,2013-01-21 10:48:00,
2013-01-21 04:49:00,27.9,13.8,30.38,North,351,2.0,4.0,55,0.00,,---,0.00,VWS V14.00,2013-01-21 10:49:00,
2013-01-21 04:50:00,27.9,13.8,30.38,North,351,0.0,2.0,55,0.00,,---,0.00,VWS V14.00,2013-01-21 10:50:00,
2013-01-21 04:51:00,27.9,13.8,30.38,North,351,0.0,0.0,55,0.00,,---,0.00,VWS V14.00,2013-01-21 10:51:00,
2013-01-21 04:52:00,27.9,13.8,30.38,North,351,1.0,2.0,55,0.00,,---,0.00,VWS V14.00,2013-01-21 10:52:00,
2013-01-21 04:53:00,27.8,13.8,30.38,North,351,0.0,2.0,55,0.00,,---,0.00,VWS V14.00,2013-01-21 10:53:00,
2013-01-21 04:54:00,27.9,14.6,30.38,North,351,0.0,3.0,57,0.00,,---,0.00,VWS V14.00,2013-01-21 10:54:00,
2013-01-21 04:55:00,27.8,13.8,30.38,North,351,2.0,5.0,55,0.00,,---,0.00,VWS V14.00,2013-01-21 10:55:00,
2013-01-21 04:56:00,27.8,13.8,30.38,North,351,0.0,2.0,55,0.00,,---,0.00,VWS V14.00,2013-01-21 10:56:00,
2013-01-21 04:57:00,27.8,13.8,30.38,North,351,0.0,0.0,55,0.00,,---,0.00,VWS V14.00,2013-01-21 10:57:00,
2013-01-21 04:58:00,27.8,14.2,30.38,North,351,0.0,0.0,56,0.00,,---,0.00,VWS V14.00,2013-01-21 10:58:00,
2013-01-21 04:59:00,27.8,13.8,30.38,North,351,0.0,0.0,55,0.00,,---,0.00,VWS V14.00,2013-01-21 10:59:00,
2013-01-21 05:00:00,27.8,13.8,30.38,North,351,0.0,0.0,55,0.00,,---,0.00,VWS V14.00,2013-01-21 11:00:00,
2013-01-21 05:01:00,27.6,14.0,30.38,North,351,0.0,0.0,56,0.00,,---,0.00,VWS V14.00,2013-01-21 11:01:00,
2013-01-21 05:02:00,27.6,14.0,30.39,North,351,0.0,1.0,56,0.00,,---,0.00,VWS V14.00,2013-01-21 11:02:00,
2013-01-21 05:03:00,27.6,13.6,30.39,North,351,0.0,0.0,55,0.00,,---,0.00,VWS V14.00,2013-01-21 11:03:00,
2013-01-21 05:04:00,27.6,13.6,30.39,North,351,0.0,0.0,55,0.00,,---,0.00,VWS V14.00,2013-01-21 11:04:00,
2013-01-21 05:05:00,27.6,13.6,30.39,North,351,0.0,1.0,55,0.00,,---,0.00,VWS V14.00,2013-01-21 11:05:00,
2013-01-21 05:06:00,27.5,13.1,30.39,North,351,0.0,0.0,54,0.00,,---,0.00,VWS V14.00,2013-01-21 11:06:00,
2013-01-21 05:07:00,27.5,13.1,30.39,North,355,4.0,7.0,54,0.00,,---,0.00,VWS V14.00,2013-01-21 11:07:00,
2013-01-21 05:08:00,27.5,13.1,30.39,North,355,0.0,1.0,54,0.00,,---,0.00,VWS V14.00,2013-01-21 11:08:00,
2013-01-21 05:09:00,27.5,13.1,30.39,North,355,0.0,1.0,54,0.00,,---,0.00,VWS V14.00,2013-01-21 11:09:00,
2013-01-21 05:10:00,27.5,13.1,30.39,North,355,0.0,2.0,54,0.00,,---,0.00,VWS V14.00,2013-01-21 11:10:00,
2013-01-21 05:11:00,27.5,13.1,30.39,North,355,0.0,1.0,54,0.00,,---,0.00,VWS V14.00,2013-01-21 11:11:00,
2013-01-21 05:12:00,27.3,12.9,30.39,North,355,0.0,0.0,54,0.00,,---,0.00,VWS V14.00,2013-01-21 11:12:00,
2013-01-21 05:13:00,27.3,12.4,30.39,North,355,1.0,3.0,53,0.00,,---,0.00,VWS V14.00,2013-01-21 11:13:00,
2013-01-21 05:14:00,27.3,12.9,30.39,North,355,4.0,5.0,54,0.00,,---,0.00,VWS V14.00,2013-01-21 11:14:00,
2013-01-21 05:15:00,27.3,12.9,30.39,North,355,2.0,4.0,54,0.00,,---,0.00,VWS V14.00,2013-01-21 11:15:00,
2013-01-21 05:16:00,27.3,12.4,30.39,North,355,0.0,3.0,53,0.00,,---,0.00,VWS V14.00,2013-01-21 11:16:00,
2013-01-21 05:17:00,27.2,12.4,30.39,North,355,1.0,1.0,53,0.00,,---,0.00,VWS V14.00,2013-01-21 11:17:00,
2013-01-21 05:18:00,27.2,12.4,30.39,North,355,0.0,6.0,53,0.00,,---,0.00,VWS V14.00,2013-01-21 11:18:00,
2013-01-21 05:19:00,27.2,12.4,30.39,North,355,3.0,3.0,53,0.00,,---,0.00,VWS V14.00,2013-01-21 11:19:00,
2013-01-21 05:20:00,27.2,12.8,30.39,North,355,4.0,4.0,54,0.00,,---,0.00,VWS V14.00,2013-01-21 11:20:00,
2013-01-21 05:21:00,27.2,12.4,30.39,North,355,1.0,6.0,53,0.00,,---,0.00,VWS V14.00,2013-01-21 11:21:00,
2013-01-21 05:22:00,27.2,12.4,30.39,North,355,0.0,1.0,53,0.00,,---,0.00,VWS V14.00,2013-01-21 11:22:00,
2013-01-21 05:23:00,27.0,12.2,30.39,North,355,0.0,5.0,53,0.00,,---,0.00,VWS V14.00,2013-01-21 11:23:00,
2013-01-21 05:24:00,27.0,12.2,30.39,North,355,1.0,2.0,53,0.00,,---,0.00,VWS V14.00,2013-01-21 11:24:00,
2013-01-21 05:25:00,27.0,12.2,30.39,North,355,3.0,6.0,53,0.00,,---,0.00,VWS V14.00,2013-01-21 11:25:00,
2013-01-21 05:26:00,27.0,12.2,30.39,North,355,0.0,5.0,53,0.00,,---,0.00,VWS V14.00,2013-01-21 11:26:00,
2013-01-21 05:27:00,27.0,12.6,30.39,North,355,1.0,3.0,54,0.00,,---,0.00,VWS V14.00,2013-01-21 11:27:00,
2013-01-21 05:28:00,27.0,12.2,30.39,North,355,0.0,2.0,53,0.00,,---,0.00,VWS V14.00,2013-01-21 11:28:00,
2013-01-21 05:29:00,27.0,12.6,30.39,North,355,3.0,4.0,54,0.00,,---,0.00,VWS V14.00,2013-01-21 11:29:00,
2013-01-21 05:30:00,27.0,12.2,30.39,North,355,2.0,3.0,53,0.00,,---,0.00,VWS V14.00,2013-01-21 11:30:00,
2013-01-21 05:31:00,27.0,12.2,30.39,North,355,0.0,2.0,53,0.00,,---,0.00,VWS V14.00,2013-01-21 11:31:00,
2013-01-21 05:32:00,27.0,12.6,30.39,North,355,0.0,0.0,54,0.00,,---,0.00,VWS V14.00,2013-01-21 11:32:00,
2013-01-21 05:33:00,26.9,12.5,30.39,North,355,1.0,2.0,54,0.00,,---,0.00,VWS V14.00,2013-01-21 11:33:00,
2013-01-21 05:34:00,26.9,12.5,30.39,North,355,0.0,3.0,54,0.00,,---,0.00,VWS V14.00,2013-01-21 11:34:00,
2013-01-21 05:35:00,26.9,12.5,30.39,North,355,0.0,0.0,54,0.00,,---,0.00,VWS V14.00,2013-01-21 11:35:00,
2013-01-21 05:36:00,26.9,12.5,30.39,North,355,0.0,2.0,54,0.00,,---,0.00,VWS V14.00,2013-01-21 11:36:00,
2013-01-21 05:37:00,26.9,12.5,30.39,North,355,0.0,1.0,54,0.00,,---,0.00,VWS V14.00,2013-01-21 11:37:00,
2013-01-21 05:38:00,26.9,12.9,30.39,North,355,2.0,3.0,55,0.00,,---,0.00,VWS V14.00,2013-01-21 11:38:00,
2013-01-21 05:39:00,26.9,12.9,30.39,North,355,0.0,3.0,55,0.00,,---,0.00,VWS V14.00,2013-01-21 11:39:00,
2013-01-21 05:40:00,26.9,12.9,30.39,North,355,2.0,3.0,55,0.00,,---,0.00,VWS V14.00,2013-01-21 11:40:00,
2013-01-21 05:41:00,26.7,12.3,30.39,North,355,1.0,3.0,54,0.00,,---,0.00,VWS V14.00,2013-01-21 11:41:00,
2013-01-21 05:42:00,26.7,12.3,30.39,North,355,1.0,4.0,54,0.00,,---,0.00,VWS V14.00,2013-01-21 11:42:00,
2013-01-21 05:43:00,26.7,12.3,30.39,North,355,1.0,2.0,54,0.00,,---,0.00,VWS V14.00,2013-01-21 11:43:00,
2013-01-21 05:44:00,26.7,12.7,30.39,North,355,0.0,3.0,55,0.00,,---,0.00,VWS V14.00,2013-01-21 11:44:00,
2013-01-21 05:45:00,26.7,12.3,30.39,North,355,0.0,1.0,54,0.00,,---,0.00,VWS V14.00,2013-01-21 11:45:00,
2013-01-21 05:46:00,26.7,12.3,30.39,North,355,2.0,3.0,54,0.00,,---,0.00,VWS V14.00,2013-01-21 11:46:00,
2013-01-21 05:47:00,26.7,12.7,30.39,North,355,3.0,3.0,55,0.00,,---,0.00,VWS V14.00,2013-01-21 11:47:00,
2013-01-21 05:48:00,26.6,12.6,30.40,North,355,2.0,2.0,55,0.00,,---,0.00,VWS V14.00,2013-01-21 11:48:00,
2013-01-21 05:49:00,26.6,12.6,30.40,North,355,4.0,5.0,55,0.00,,---,0.00,VWS V14.00,2013-01-21 11:49:00,
2013-01-21 05:50:00,26.6,12.6,30.40,North,355,1.0,4.0,55,0.00,,---,0.00,VWS V14.00,2013-01-21 11:50:00,
2013-01-21 05:51:00,26.6,12.6,30.40,North,355,4.0,6.0,55,0.00,,---,0.00,VWS V14.00,2013-01-21 11:51:00,
2013-01-21 05:52:00,26.6,12.6,30.40,North,355,2.0,4.0,55,0.00,,---,0.00,VWS V14.00,2013-01-21 11:52:00,
2013-01-21 05:53:00,26.4,12.4,30.40,North,355,0.0,0.0,55,0.00,,---,0.00,VWS V14.00,2013-01-21 11:53:00,
2013-01-21 05:54:00,26.6,12.6,30.40,North,355,0.0,2.0,55,0.00,,---,0.00,VWS V14.00,2013-01-21 11:54:00,
2013-01-21 05:55:00,26.4,12.4,30.40,North,355,0.0,0.0,55,0.00,,---,0.00,VWS V14.00,2013-01-21 11:55:00,
2013-01-21 05:56:00,26.4,12.4,30.40,North,355,0.0,0.0,55,0.00,,---,0.00,VWS V14.00,2013-01-21 11:56:00,
2013-01-21 05:57:00,26.4,12.4,30.40,North,355,0.0,0.0,55,0.00,,---,0.00,VWS V14.00,2013-01-21 11:57:00,
2013-01-21 05:58:00,26.3,12.3,30.40,North,355,0.0,2.0,55,0.00,,---,0.00,VWS V14.00,2013-01-21 11:58:00,
2013-01-21 05:59:00,26.4,12.4,30.40,North,355,1.0,1.0,55,0.00,,---,0.00,VWS V14.00,2013-01-21 11:59:00,
2013-01-21 06:00:00,26.3,12.3,30.40,North,355,0.0,1.0,55,0.00,,---,0.00,VWS V14.00,2013-01-21 12:00:00,
2013-01-21 06:01:00,26.3,12.3,30.40,North,355,0.0,2.0,55,0.00,,---,0.00,VWS V14.00,2013-01-21 12:01:00,
2013-01-21 06:02:00,26.3,12.8,30.40,North,355,4.0,4.0,56,0.00,,---,0.00,VWS V14.00,2013-01-21 12:02:00,
2013-01-21 06:03:00,26.3,12.8,30.40,North,355,0.0,0.0,56,0.00,,---,0.00,VWS V14.00,2013-01-21 12:03:00,
2013-01-21 06:04:00,26.3,12.3,30.40,North,355,0.0,1.0,55,0.00,,---,0.00,VWS V14.00,2013-01-21 12:04:00,
2013-01-21 06:05:00,26.3,12.3,30.40,North,355,0.0,0.0,55,0.00,,---,0.00,VWS V14.00,2013-01-21 12:05:00,
2013-01-21 06:06:00,26.3,12.8,30.40,North,355,1.0,1.0,56,0.00,,---,0.00,VWS V14.00,2013-01-21 12:06:00,
2013-01-21 06:07:00,26.3,12.3,30.40,North,355,0.0,1.0,55,0.00,,---,0.00,VWS V14.00,2013-01-21 12:07:00,
2013-01-21 06:08:00,26.1,12.2,30.40,North,355,0.0,1.0,55,0.00,,---,0.00,VWS V14.00,2013-01-21 12:08:00,
2013-01-21 06:09:00,26.1,12.2,30.40,North,355,0.0,1.0,55,0.00,,---,0.00,VWS V14.00,2013-01-21 12:09:00,
2013-01-21 06:10:00,26.1,12.2,30.40,North,355,0.0,0.0,55,0.00,,---,0.00,VWS V14.00,2013-01-21 12:10:00,
2013-01-21 06:11:00,26.1,12.6,30.40,North,355,0.0,2.0,56,0.00,,---,0.00,VWS V14.00,2013-01-21 12:11:00,
2013-01-21 06:12:00,26.1,12.6,30.40,North,355,0.0,2.0,56,0.00,,---,0.00,VWS V14.00,2013-01-21 12:12:00,
2013-01-21 06:13:00,26.1,12.6,30.40,North,355,0.0,0.0,56,0.00,,---,0.00,VWS V14.00,2013-01-21 12:13:00,
2013-01-21 06:14:00,26.1,12.6,30.40,North,355,0.0,2.0,56,0.00,,---,0.00,VWS V14.00,2013-01-21 12:14:00,
2013-01-21 06:15:00,26.1,12.6,30.40,North,355,0.0,0.0,56,0.00,,---,0.00,VWS V14.00,2013-01-21 12:15:00,
2013-01-21 06:16:00,26.1,12.6,30.40,North,355,2.0,2.0,56,0.00,,---,0.00,VWS V14.00,2013-01-21 12:16:00,
2013-01-21 06:17:00,26.0,12.5,30.40,North,355,0.0,2.0,56,0.00,,---,0.00,VWS V14.00,2013-01-21 12:17:00,
2013-01-21 06:18:00,26.0,12.5,30.40,North,355,1.0,2.0,56,0.00,,---,0.00,VWS V14.00,2013-01-21 12:18:00,
2013-01-21 06:19:00,26.0,12.5,30.40,North,355,0.0,1.0,56,0.00,,---,0.00,VWS V14.00,2013-01-21 12:19:00,
2013-01-21 06:20:00,26.0,12.5,30.40,North,355,0.0,1.0,56,0.00,,---,0.00,VWS V14.00,2013-01-21 12:20:00,
2013-01-21 06:21:00,26.0,12.5,30.40,North,355,0.0,2.0,56,0.00,,---,0.00,VWS V14.00,2013-01-21 12:21:00,
2013-01-21 06:22:00,26.0,12.5,30.40,North,355,0.0,0.0,56,0.00,,---,0.00,VWS V14.00,2013-01-21 12:22:00,
2013-01-21 06:23:00,25.8,12.3,30.40,North,355,0.0,0.0,56,0.00,,---,0.00,VWS V14.00,2013-01-21 12:23:00,
2013-01-21 06:24:00,26.0,12.5,30.40,North,355,0.0,0.0,56,0.00,,---,0.00,VWS V14.00,2013-01-21 12:24:00,
2013-01-21 06:25:00,26.0,12.5,30.40,North,355,0.0,0.0,56,0.00,,---,0.00,VWS V14.00,2013-01-21 12:25:00,
2013-01-21 06:26:00,25.8,12.3,30.40,North,355,0.0,0.0,56,0.00,,---,0.00,VWS V14.00,2013-01-21 12:26:00,
2013-01-21 06:27:00,25.8,12.3,30.40,North,355,0.0,0.0,56,0.00,,---,0.00,VWS V14.00,2013-01-21 12:27:00,
2013-01-21 06:28:00,25.7,12.6,30.40,North,355,0.0,0.0,57,0.00,,---,0.00,VWS V14.00,2013-01-21 12:28:00,
2013-01-21 06:29:00,25.8,12.3,30.40,North,355,0.0,0.0,56,0.00,,---,0.00,VWS V14.00,2013-01-21 12:29:00,
2013-01-21 06:30:00,25.8,12.3,30.40,North,355,0.0,0.0,56,0.00,,---,0.00,VWS V14.00,2013-01-21 12:30:00,
2013-01-21 06:31:00,25.7,12.6,30.40,North,355,0.0,0.0,57,0.00,,---,0.00,VWS V14.00,2013-01-21 12:31:00,
2013-01-21 06:32:00,25.7,12.6,30.40,North,355,0.0,1.0,57,0.00,,---,0.00,VWS V14.00,2013-01-21 12:32:00,
2013-01-21 06:33:00,25.7,12.6,30.40,North,355,0.0,0.0,57,0.00,,---,0.00,VWS V14.00,2013-01-21 12:33:00,
2013-01-21 06:34:00,25.7,12.6,30.40,North,355,0.0,1.0,57,0.00,,---,0.00,VWS V14.00,2013-01-21 12:34:00,
2013-01-21 06:35:00,25.7,12.6,30.40,North,355,0.0,2.0,57,0.00,,---,0.00,VWS V14.00,2013-01-21 12:35:00,
2013-01-21 06:36:00,25.7,12.6,30.40,North,355,0.0,0.0,57,0.00,,---,0.00,VWS V14.00,2013-01-21 12:36:00,
2013-01-21 06:37:00,25.7,12.6,30.40,North,355,0.0,0.0,57,0.00,,---,0.00,VWS V14.00,2013-01-21 12:37:00,
2013-01-21 06:38:00,25.6,12.5,30.40,North,355,0.0,0.0,57,0.00,,---,0.00,VWS V14.00,2013-01-21 12:38:00,
2013-01-21 06:39:00,25.6,12.5,30.41,North,355,0.0,0.0,57,0.00,,---,0.00,VWS V14.00,2013-01-21 12:39:00,
2013-01-21 06:40:00,25.6,12.5,30.41,North,355,0.0,2.0,57,0.00,,---,0.00,VWS V14.00,2013-01-21 12:40:00,
2013-01-21 06:41:00,25.6,12.5,30.40,North,355,0.0,1.0,57,0.00,,---,0.00,VWS V14.00,2013-01-21 12:41:00,
2013-01-21 06:42:00,25.6,12.5,30.40,North,355,0.0,2.0,57,0.00,,---,0.00,VWS V14.00,2013-01-21 12:42:00,
2013-01-21 06:43:00,25.6,12.9,30.40,North,355,0.0,0.0,58,0.00,,---,0.00,VWS V14.00,2013-01-21 12:43:00,
2013-01-21 06:44:00,25.6,12.9,30.40,North,355,0.0,0.0,58,0.00,,---,0.00,VWS V14.00,2013-01-21 12:44:00,
2013-01-21 06:45:00,25.6,12.9,30.40,North,355,0.0,0.0,58,0.00,,---,0.00,VWS V14.00,2013-01-21 12:45:00,
2013-01-21 06:46:00,25.6,12.5,30.40,North,355,0.0,0.0,57,0.00,,---,0.00,VWS V14.00,2013-01-21 12:46:00,
2013-01-21 06:47:00,25.4,12.7,30.40,North,355,0.0,0.0,58,0.00,,---,0.00,VWS V14.00,2013-01-21 12:47:00,
2013-01-21 06:48:00,25.4,12.7,30.41,North,355,0.0,0.0,58,0.00,,---,0.00,VWS V14.00,2013-01-21 12:48:00,
2013-01-21 06:49:00,25.4,12.7,30.41,North,355,0.0,0.0,58,0.00,,---,0.00,VWS V14.00,2013-01-21 12:49:00,
2013-01-21 06:50:00,25.4,12.7,30.41,North,355,0.0,0.0,58,0.00,,---,0.00,VWS V14.00,2013-01-21 12:50:00,
2013-01-21 06:51:00,25.3,12.2,30.41,North,355,0.0,0.0,57,0.00,,---,0.00,VWS V14.00,2013-01-21 12:51:00,
2013-01-21 06:52:00,25.3,12.2,30.41,North,355,0.0,0.0,57,0.00,,---,0.00,VWS V14.00,2013-01-21 12:52:00,
2013-01-21 06:53:00,25.1,12.4,30.41,North,355,0.0,0.0,58,0.00,,---,0.00,VWS V14.00,2013-01-21 12:53:00,
2013-01-21 06:54:00,25.3,12.6,30.40,North,355,0.0,0.0,58,0.00,,---,0.00,VWS V14.00,2013-01-21 12:54:00,
2013-01-21 06:55:00,25.1,12.4,30.41,North,355,0.0,0.0,58,0.00,,---,0.00,VWS V14.00,2013-01-21 12:55:00,
2013-01-21 06:56:00,25.1,12.4,30.41,North,355,0.0,0.0,58,0.00,,---,0.00,VWS V14.00,2013-01-21 12:56:00,
2013-01-21 06:57:00,25.1,12.4,30.41,North,355,0.0,0.0,58,0.00,,---,0.00,VWS V14.00,2013-01-21 12:57:00,
2013-01-21 06:58:00,25.0,12.7,30.42,North,355,3.0,3.0,59,0.00,,---,0.00,VWS V14.00,2013-01-21 12:58:00,
2013-01-21 06:59:00,25.0,12.3,30.41,North,355,4.0,5.0,58,0.00,,---,0.00,VWS V14.00,2013-01-21 12:59:00,
2013-01-21 07:00:00,25.0,12.7,30.42,North,355,2.0,5.0,59,0.00,,---,0.00,VWS V14.00,2013-01-21 13:00:00,
2013-01-21 07:01:00,25.0,12.7,30.42,North,355,0.0,3.0,59,0.00,,---,0.00,VWS V14.00,2013-01-21 13:01:00,
2013-01-21 07:02:00,25.0,12.7,30.41,North,355,0.0,2.0,59,0.00,,---,0.00,VWS V14.00,2013-01-21 13:02:00,
2013-01-21 07:03:00,25.0,12.3,30.41,North,355,0.0,1.0,58,0.00,,---,0.00,VWS V14.00,2013-01-21 13:03:00,
2013-01-21 07:04:00,25.1,12.4,30.41,North,355,0.0,1.0,58,0.00,,---,0.00,VWS V14.00,2013-01-21 13:04:00,
2013-01-21 07:05:00,25.0,12.3,30.41,North,355,0.0,0.0,58,0.00,,---,0.00,VWS V14.00,2013-01-21 13:05:00,
2013-01-21 07:06:00,25.0,12.3,30.41,North,355,0.0,1.0,58,0.00,,---,0.00,VWS V14.00,2013-01-21 13:06:00,
2013-01-21 07:07:00,25.0,12.3,30.41,North,355,0.0,0.0,58,0.00,,---,0.00,VWS V14.00,2013-01-21 13:07:00,
2013-01-21 07:08:00,25.0,12.3,30.41,North,355,0.0,0.0,58,0.00,,---,0.00,VWS V14.00,2013-01-21 13:08:00,
2013-01-21 07:09:00,25.0,12.7,30.41,North,355,0.0,4.0,59,0.00,,---,0.00,VWS V14.00,2013-01-21 13:09:00,
2013-01-21 07:10:00,25.0,12.3,30.41,North,355,0.0,1.0,58,0.00,,---,0.00,VWS V14.00,2013-01-21 13:10:00,
2013-01-21 07:11:00,25.0,12.3,30.41,North,355,0.0,0.0,58,0.00,,---,0.00,VWS V14.00,2013-01-21 13:11:00,
2013-01-21 07:12:00,25.0,12.3,30.41,North,355,2.0,2.0,58,0.00,,---,0.00,VWS V14.00,2013-01-21 13:12:00,
2013-01-21 07:13:00,24.8,12.1,30.41,North,355,0.0,0.0,58,0.00,,---,0.00,VWS V14.00,2013-01-21 13:13:00,
2013-01-21 07:14:00,24.8,12.1,30.41,North,355,0.0,3.0,58,0.00,,---,0.00,VWS V14.00,2013-01-21 13:14:00,
2013-01-21 07:15:00,24.8,12.1,30.41,North,355,0.0,1.0,58,0.00,,---,0.00,VWS V14.00,2013-01-21 13:15:00,
2013-01-21 07:16:00,24.8,12.1,30.41,North,355,0.0,0.0,58,0.00,,---,0.00,VWS V14.00,2013-01-21 13:16:00,
2013-01-21 07:17:00,24.8,12.5,30.41,North,355,0.0,0.0,59,0.00,,---,0.00,VWS V14.00,2013-01-21 13:17:00,
2013-01-21 07:18:00,24.8,12.5,30.41,North,355,0.0,0.0,59,0.00,,---,0.00,VWS V14.00,2013-01-21 13:18:00,
2013-01-21 07:19:00,24.8,12.5,30.41,North,355,0.0,0.0,59,0.00,,---,0.00,VWS V14.00,2013-01-21 13:19:00,
2013-01-21 07:20:00,24.8,12.5,30.41,North,355,0.0,0.0,59,0.00,,---,0.00,VWS V14.00,2013-01-21 13:20:00,
2013-01-21 07:21:00,24.8,12.5,30.41,North,355,1.0,1.0,59,0.00,,---,0.00,VWS V14.00,2013-01-21 13:21:00,
2013-01-21 07:22:00,24.8,12.5,30.41,North,355,0.0,1.0,59,0.00,,---,0.00,VWS V14.00,2013-01-21 13:22:00,
2013-01-21 07:23:00,24.7,12.4,30.42,North,355,0.0,0.0,59,0.00,,---,0.00,VWS V14.00,2013-01-21 13:23:00,
2013-01-21 07:24:00,24.7,12.4,30.42,North,355,0.0,0.0,59,0.00,,---,0.00,VWS V14.00,2013-01-21 13:24:00,
2013-01-21 07:25:00,24.7,12.4,30.42,North,355,0.0,0.0,59,0.00,,---,0.00,VWS V14.00,2013-01-21 13:25:00,
2013-01-21 07:26:00,24.7,12.4,30.42,North,355,0.0,0.0,59,0.00,,---,0.00,VWS V14.00,2013-01-21 13:26:00,
2013-01-21 07:27:00,24.7,12.8,30.41,North,355,0.0,0.0,60,0.00,,---,0.00,VWS V14.00,2013-01-21 13:27:00,
2013-01-21 07:28:00,24.7,12.8,30.41,North,355,0.0,0.0,60,0.00,,---,0.00,VWS V14.00,2013-01-21 13:28:00,
2013-01-21 07:29:00,24.7,12.8,30.41,North,355,0.0,0.0,60,0.00,,---,0.00,VWS V14.00,2013-01-21 13:29:00,
2013-01-21 07:30:00,24.7,12.8,30.41,North,355,0.0,0.0,60,0.00,,---,0.00,VWS V14.00,2013-01-21 13:30:00,
2013-01-21 07:31:00,24.7,12.4,30.41,North,355,0.0,0.0,59,0.00,,---,0.00,VWS V14.00,2013-01-21 13:31:00,
2013-01-21 07:32:00,24.7,12.8,30.42,North,355,0.0,0.0,60,0.00,,---,0.00,VWS V14.00,2013-01-21 13:32:00,
2013-01-21 07:33:00,24.7,12.4,30.42,North,355,0.0,0.0,59,0.00,,---,0.00,VWS V14.00,2013-01-21 13:33:00,
2013-01-21 07:34:00,24.7,12.8,30.42,North,355,0.0,2.0,60,0.00,,---,0.00,VWS V14.00,2013-01-21 13:34:00,
2013-01-21 07:35:00,24.7,12.4,30.42,North,355,0.0,0.0,59,0.00,,---,0.00,VWS V14.00,2013-01-21 13:35:00,
2013-01-21 07:36:00,24.7,12.4,30.42,North,355,0.0,0.0,59,0.00,,---,0.00,VWS V14.00,2013-01-21 13:36:00,
2013-01-21 07:37:00,24.7,12.8,30.42,North,355,0.0,0.0,60,0.00,,---,0.00,VWS V14.00,2013-01-21 13:37:00,
2013-01-21 07:38:00,24.5,12.2,30.42,North,355,0.0,0.0,59,0.00,,---,0.00,VWS V14.00,2013-01-21 13:38:00,
2013-01-21 07:39:00,24.7,12.4,30.41,North,355,0.0,0.0,59,0.00,,---,0.00,VWS V14.00,2013-01-21 13:39:00,
2013-01-21 07:40:00,24.5,12.2,30.41,North,355,0.0,0.0,59,0.00,,---,0.00,VWS V14.00,2013-01-21 13:40:00,
2013-01-21 07:41:00,24.5,12.2,30.42,North,355,0.0,0.0,59,0.00,,---,0.00,VWS V14.00,2013-01-21 13:41:00,
2013-01-21 07:42:00,24.5,12.6,30.42,North,355,0.0,0.0,60,0.00,,---,0.00,VWS V14.00,2013-01-21 13:42:00,
2013-01-21 07:43:00,24.5,12.6,30.42,North,355,0.0,2.0,60,0.00,,---,0.00,VWS V14.00,2013-01-21 13:43:00,
2013-01-21 07:44:00,24.5,12.2,30.42,North,355,0.0,3.0,59,0.00,,---,0.00,VWS V14.00,2013-01-21 13:44:00,
2013-01-21 07:45:00,24.5,12.6,30.42,North,355,2.0,2.0,60,0.00,,---,0.00,VWS V14.00,2013-01-21 13:45:00,
2013-01-21 07:46:00,24.5,12.6,30.42,North,355,0.0,2.0,60,0.00,,---,0.00,VWS V14.00,2013-01-21 13:46:00,
2013-01-21 07:47:00,24.5,12.2,30.42,North,355,0.0,0.0,59,0.00,,---,0.00,VWS V14.00,2013-01-21 13:47:00,
2013-01-21 07:48:00,24.5,12.6,30.42,North,355,0.0,0.0,60,0.00,,---,0.00,VWS V14.00,2013-01-21 13:48:00,
2013-01-21 07:49:00,24.5,12.2,30.42,North,355,0.0,0.0,59,0.00,,---,0.00,VWS V14.00,2013-01-21 13:49:00,
2013-01-21 07:50:00,24.5,12.6,30.42,North,355,0.0,0.0,60,0.00,,---,0.00,VWS V14.00,2013-01-21 13:50:00,
2013-01-21 07:51:00,24.7,12.8,30.42,North,355,0.0,0.0,60,0.00,,---,0.00,VWS V14.00,2013-01-21 13:51:00,
2013-01-21 07:52:00,24.7,12.8,30.42,North,355,0.0,0.0,60,0.00,,---,0.00,VWS V14.00,2013-01-21 13:52:00,
2013-01-21 07:53:00,24.8,12.9,30.42,North,355,0.0,0.0,60,0.00,,---,0.00,VWS V14.00,2013-01-21 13:53:00,
2013-01-21 07:54:00,24.8,12.9,30.42,North,355,0.0,2.0,60,0.00,,---,0.00,VWS V14.00,2013-01-21 13:54:00,
2013-01-21 07:55:00,24.8,12.9,30.42,North,355,0.0,1.0,60,0.00,,---,0.00,VWS V14.00,2013-01-21 13:55:00,
2013-01-21 07:56:00,24.8,12.9,30.42,North,355,0.0,0.0,60,0.00,,---,0.00,VWS V14.00,2013-01-21 13:56:00,
2013-01-21 07:57:00,24.8,12.9,30.42,North,355,0.0,0.0,60,0.00,,---,0.00,VWS V14.00,2013-01-21 13:57:00,
2013-01-21 07:58:00,25.0,13.1,30.42,North,355,0.0,0.0,60,0.00,,---,0.00,VWS V14.00,2013-01-21 13:58:00,
2013-01-21 07:59:00,25.0,13.1,30.42,North,355,0.0,0.0,60,0.00,,---,0.00,VWS V14.00,2013-01-21 13:59:00,
2013-01-21 08:00:00,25.0,13.1,30.42,North,355,0.0,0.0,60,0.00,,---,0.00,VWS V14.00,2013-01-21 14:00:00,
2013-01-21 08:01:00,25.0,13.1,30.42,North,355,0.0,0.0,60,0.00,,---,0.00,VWS V14.00,2013-01-21 14:01:00,
2013-01-21 08:02:00,25.0,13.1,30.42,North,355,0.0,0.0,60,0.00,,---,0.00,VWS V14.00,2013-01-21 14:02:00,
2013-01-21 08:03:00,25.1,13.2,30.42,North,355,0.0,0.0,60,0.00,,---,0.00,VWS V14.00,2013-01-21 14:03:00,
2013-01-21 08:04:00,25.1,13.2,30.42,North,355,0.0,0.0,60,0.00,,---,0.00,VWS V14.00,2013-01-21 14:04:00,
2013-01-21 08:05:00,25.1,13.2,30.42,North,355,0.0,0.0,60,0.00,,---,0.00,VWS V14.00,2013-01-21 14:05:00,
2013-01-21 08:06:00,25.1,13.2,30.42,North,355,0.0,0.0,60,0.00,,---,0.00,VWS V14.00,2013-01-21 14:06:00,
2013-01-21 08:07:00,25.1,13.2,30.42,North,355,0.0,0.0,60,0.00,,---,0.00,VWS V14.00,2013-01-21 14:07:00,
2013-01-21 08:08:00,25.4,13.5,30.43,North,355,0.0,0.0,60,0.00,,---,0.00,VWS V14.00,2013-01-21 14:08:00,
2013-01-21 08:09:00,25.3,13.4,30.42,North,355,0.0,0.0,60,0.00,,---,0.00,VWS V14.00,2013-01-21 14:09:00,
2013-01-21 08:10:00,25.4,13.5,30.42,North,355,0.0,0.0,60,0.00,,---,0.00,VWS V14.00,2013-01-21 14:10:00,
2013-01-21 08:11:00,25.4,13.5,30.43,North,355,2.0,2.0,60,0.00,,---,0.00,VWS V14.00,2013-01-21 14:11:00,
2013-01-21 08:12:00,25.4,13.1,30.43,North,355,0.0,3.0,59,0.00,,---,0.00,VWS V14.00,2013-01-21 14:12:00,
2013-01-21 08:13:00,25.7,13.4,30.43,North,355,0.0,0.0,59,0.00,,---,0.00,VWS V14.00,2013-01-21 14:13:00,
2013-01-21 08:14:00,25.6,13.3,30.43,North,355,0.0,0.0,59,0.00,,---,0.00,VWS V14.00,2013-01-21 14:14:00,
2013-01-21 08:15:00,25.7,13.4,30.43,North,355,0.0,0.0,59,0.00,,---,0.00,VWS V14.00,2013-01-21 14:15:00,
2013-01-21 08:16:00,25.7,13.4,30.43,North,355,1.0,1.0,59,0.00,,---,0.00,VWS V14.00,2013-01-21 14:16:00,
2013-01-21 08:17:00,25.7,13.4,30.43,North,355,1.0,3.0,59,0.00,,---,0.00,VWS V14.00,2013-01-21 14:17:00,
2013-01-21 08:18:00,25.7,13.0,30.43,North,355,0.0,3.0,58,0.00,,---,0.00,VWS V14.00,2013-01-21 14:18:00,
2013-01-21 08:19:00,25.7,13.4,30.43,North,355,2.0,3.0,59,0.00,,---,0.00,VWS V14.00,2013-01-21 14:19:00,
2013-01-21 08:20:00,25.7,13.0,30.43,North,355,3.0,3.0,58,0.00,,---,0.00,VWS V14.00,2013-01-21 14:20:00,
2013-01-21 08:21:00,25.7,13.0,30.43,North,355,4.0,5.0,58,0.00,,---,0.00,VWS V14.00,2013-01-21 14:21:00,
2013-01-21 08:22:00,25.7,13.4,30.43,North,355,0.0,4.0,59,0.00,,---,0.00,VWS V14.00,2013-01-21 14:22:00,
2013-01-21 08:23:00,25.6,13.7,30.43,North,355,4.0,5.0,60,0.00,,---,0.00,VWS V14.00,2013-01-21 14:23:00,
2013-01-21 08:24:00,25.6,13.3,30.43,North,355,0.0,0.0,59,0.00,,---,0.00,VWS V14.00,2013-01-21 14:24:00,
2013-01-21 08:25:00,25.6,13.7,30.43,North,355,4.0,6.0,60,0.00,,---,0.00,VWS V14.00,2013-01-21 14:25:00,
2013-01-21 08:26:00,25.6,13.3,30.43,North,355,0.0,5.0,59,0.00,,---,0.00,VWS V14.00,2013-01-21 14:26:00,
2013-01-21 08:27:00,25.6,13.3,30.43,North,355,1.0,4.0,59,0.00,,---,0.00,VWS V14.00,2013-01-21 14:27:00,
2013-01-21 08:28:00,25.6,13.3,30.43,North,355,0.0,0.0,59,0.00,,---,0.00,VWS V14.00,2013-01-21 14:28:00,
2013-01-21 08:29:00,25.6,13.7,30.43,North,355,3.0,4.0,60,0.00,,---,0.00,VWS V14.00,2013-01-21 14:29:00,
2013-01-21 08:30:00,25.6,13.3,30.43,North,355,0.0,4.0,59,0.00,,---,0.00,VWS V14.00,2013-01-21 14:30:00,
2013-01-21 08:31:00,25.6,13.3,30.43,North,355,11.0,13.0,59,0.00,,---,0.00,VWS V14.00,2013-01-21 14:31:00,
2013-01-21 08:32:00,25.6,13.3,30.43,North,350,4.0,13.0,59,0.00,,---,0.00,VWS V14.00,2013-01-21 14:32:00,
2013-01-21 08:33:00,25.4,13.1,30.44,North,350,4.0,8.0,59,0.00,,---,0.00,VWS V14.00,2013-01-21 14:33:00,
2013-01-21 08:34:00,25.4,13.5,30.44,North,350,6.0,7.0,60,0.00,,---,0.00,VWS V14.00,2013-01-21 14:34:00,
2013-01-21 08:35:00,25.4,13.1,30.44,North,350,7.0,11.0,59,0.00,,---,0.00,VWS V14.00,2013-01-21 14:35:00,
2013-01-21 08:36:00,25.4,13.1,30.44,North,350,6.0,8.0,59,0.00,,---,0.00,VWS V14.00,2013-01-21 14:36:00,
2013-01-21 08:37:00,25.3,13.0,30.44,North,350,4.0,6.0,59,0.00,,---,0.00,VWS V14.00,2013-01-21 14:37:00,
2013-01-21 08:38:00,25.3,13.4,30.44,North,351,2.0,3.0,60,0.00,,---,0.00,VWS V14.00,2013-01-21 14:38:00,
2013-01-21 08:39:00,25.3,13.4,30.44,North,351,4.0,10.0,60,0.00,,---,0.00,VWS V14.00,2013-01-21 14:39:00,
2013-01-21 08:40:00,25.3,13.4,30.44,North,351,3.0,6.0,60,0.00,,---,0.00,VWS V14.00,2013-01-21 14:40:00,
2013-01-21 08:41:00,25.3,13.4,30.44,North,351,0.0,3.0,60,0.00,,---,0.00,VWS V14.00,2013-01-21 14:41:00,
2013-01-21 08:42:00,25.3,13.4,30.44,North,351,2.0,7.0,60,0.00,,---,0.00,VWS V14.00,2013-01-21 14:42:00,
2013-01-21 08:43:00,25.4,13.1,30.44,North,350,5.0,9.0,59,0.00,,---,0.00,VWS V14.00,2013-01-21 14:43:00,
2013-01-21 08:44:00,25.3,13.4,30.44,North,350,4.0,7.0,60,0.00,,---,0.00,VWS V14.00,2013-01-21 14:44:00,
2013-01-21 08:45:00,25.4,13.1,30.44,North,350,9.0,9.0,59,0.00,,---,0.00,VWS V14.00,2013-01-21 14:45:00,
2013-01-21 08:46:00,25.4,13.1,30.44,North,350,2.0,9.0,59,0.00,,---,0.00,VWS V14.00,2013-01-21 14:46:00,
2013-01-21 08:47:00,25.4,13.5,30.44,North,350,3.0,5.0,60,0.00,,---,0.00,VWS V14.00,2013-01-21 14:47:00,
2013-01-21 08:48:00,25.4,13.1,30.44,North,350,1.0,1.0,59,0.00,,---,0.00,VWS V14.00,2013-01-21 14:48:00,
2013-01-21 08:49:00,25.4,13.5,30.44,North,350,6.0,7.0,60,0.00,,---,0.00,VWS V14.00,2013-01-21 14:49:00,
2013-01-21 08:50:00,25.4,13.1,30.44,North,350,0.0,6.0,59,0.00,,---,0.00,VWS V14.00,2013-01-21 14:50:00,
2013-01-21 08:51:00,25.4,13.5,30.44,North,350,0.0,1.0,60,0.00,,---,0.00,VWS V14.00,2013-01-21 14:51:00,
2013-01-21 08:52:00,25.6,13.7,30.43,North,350,3.0,5.0,60,0.00,,---,0.00,VWS V14.00,2013-01-21 14:52:00,
2013-01-21 08:53:00,25.7,13.8,30.44,North,350,4.0,5.0,60,0.00,,---,0.00,VWS V14.00,2013-01-21 14:53:00,
2013-01-21 08:54:00,25.7,13.4,30.43,North,350,6.0,6.0,59,0.00,,---,0.00,VWS V14.00,2013-01-21 14:54:00,
2013-01-21 08:55:00,25.7,13.8,30.43,North,350,4.0,6.0,60,0.00,,---,0.00,VWS V14.00,2013-01-21 14:55:00,
2013-01-21 08:56:00,25.7,13.8,30.44,North,350,9.0,10.0,60,0.00,,---,0.00,VWS V14.00,2013-01-21 14:56:00,
2013-01-21 08:57:00,25.7,13.4,30.44,North,350,2.0,9.0,59,0.00,,---,0.00,VWS V14.00,2013-01-21 14:57:00,
2013-01-21 08:58:00,25.7,13.4,30.44,North,351,2.0,3.0,59,0.00,,---,0.00,VWS V14.00,2013-01-21 14:58:00,
2013-01-21 08:59:00,25.7,13.4,30.44,North,351,6.0,10.0,59,0.00,,---,0.00,VWS V14.00,2013-01-21 14:59:00,
2013-01-21 09:00:00,25.7,13.4,30.44,North,351,5.0,10.0,59,0.00,,---,0.00,VWS V14.00,2013-01-21 15:00:00,
2013-01-21 09:01:00,25.8,13.5,30.44,North,351,1.0,5.0,59,0.00,,---,0.00,VWS V14.00,2013-01-21 15:01:00,
2013-01-21 09:02:00,25.8,13.5,30.43,North,351,4.0,5.0,59,0.00,,---,0.00,VWS V14.00,2013-01-21 15:02:00,
2013-01-21 09:03:00,26.0,13.6,30.43,North,355,1.0,2.0,59,0.00,,---,0.00,VWS V14.00,2013-01-21 15:03:00,
2013-01-21 09:04:00,25.8,13.1,30.43,North,355,4.0,6.0,58,0.00,,---,0.00,VWS V14.00,2013-01-21 15:04:00,
2013-01-21 09:05:00,26.0,13.6,30.43,North,355,2.0,6.0,59,0.00,,---,0.00,VWS V14.00,2013-01-21 15:05:00,
2013-01-21 09:06:00,26.0,14.0,30.43,North,355,3.0,4.0,60,0.00,,---,0.00,VWS V14.00,2013-01-21 15:06:00,
2013-01-21 09:07:00,26.0,13.6,30.43,North,355,2.0,7.0,59,0.00,,---,0.00,VWS V14.00,2013-01-21 15:07:00,
2013-01-21 09:08:00,26.1,13.4,30.44,North,355,5.0,5.0,58,0.00,,---,0.00,VWS V14.00,2013-01-21 15:08:00,
2013-01-21 09:09:00,26.1,13.8,30.44,North,355,6.0,8.0,59,0.00,,---,0.00,VWS V14.00,2013-01-21 15:09:00,
2013-01-21 09:10:00,26.1,13.4,30.44,North,355,3.0,8.0,58,0.00,,---,0.00,VWS V14.00,2013-01-21 15:10:00,
2013-01-21 09:11:00,26.1,13.4,30.44,North,355,4.0,5.0,58,0.00,,---,0.00,VWS V14.00,2013-01-21 15:11:00,
2013-01-21 09:12:00,26.3,13.9,30.44,North,355,1.0,9.0,59,0.00,,---,0.00,VWS V14.00,2013-01-21 15:12:00,
2013-01-21 09:13:00,26.4,13.6,30.45,North,355,3.0,3.0,58,0.00,,---,0.00,VWS V14.00,2013-01-21 15:13:00,
2013-01-21 09:14:00,26.3,13.9,30.44,North,355,0.0,4.0,59,0.00,,---,0.00,VWS V14.00,2013-01-21 15:14:00,
2013-01-21 09:15:00,26.4,14.0,30.45,North,355,3.0,4.0,59,0.00,,---,0.00,VWS V14.00,2013-01-21 15:15:00,
2013-01-21 09:16:00,26.4,13.6,30.45,North,355,3.0,5.0,58,0.00,,---,0.00,VWS V14.00,2013-01-21 15:16:00,
2013-01-21 09:17:00,26.6,13.8,30.45,North,355,2.0,4.0,58,0.00,,---,0.00,VWS V14.00,2013-01-21 15:17:00,
2013-01-21 09:18:00,26.7,13.5,30.45,North,355,5.0,5.0,57,0.00,,---,0.00,VWS V14.00,2013-01-21 15:18:00,
2013-01-21 09:19:00,26.6,13.4,30.45,North,355,6.0,7.0,57,0.00,,---,0.00,VWS V14.00,2013-01-21 15:19:00,
2013-01-21 09:20:00,26.7,13.5,30.44,North,355,5.0,6.0,57,0.00,,---,0.00,VWS V14.00,2013-01-21 15:20:00,
2013-01-21 09:21:00,26.7,13.5,30.45,North,355,3.0,5.0,57,0.00,,---,0.00,VWS V14.00,2013-01-21 15:21:00,
2013-01-21 09:22:00,26.7,13.5,30.45,North,355,0.0,3.0,57,0.00,,---,0.00,VWS V14.00,2013-01-21 15:22:00,
2013-01-21 09:23:00,27.0,13.8,30.45,North,355,3.0,4.0,57,0.00,,---,0.00,VWS V14.00,2013-01-21 15:23:00,
2013-01-21 09:24:00,26.9,13.7,30.45,North,355,4.0,5.0,57,0.00,,---,0.00,VWS V14.00,2013-01-21 15:24:00,
2013-01-21 09:25:00,27.0,13.8,30.45,North,355,5.0,9.0,57,0.00,,---,0.00,VWS V14.00,2013-01-21 15:25:00,
2013-01-21 09:26:00,27.0,13.4,30.45,North,355,1.0,5.0,56,0.00,,---,0.00,VWS V14.00,2013-01-21 15:26:00,
2013-01-21 09:27:00,27.0,13.4,30.45,North,355,1.0,6.0,56,0.00,,---,0.00,VWS V14.00,2013-01-21 15:27:00,
2013-01-21 09:28:00,27.3,14.1,30.45,North,355,4.0,4.0,57,0.00,,---,0.00,VWS V14.00,2013-01-21 15:28:00,
2013-01-21 09:29:00,27.2,14.0,30.45,North,355,1.0,3.0,57,0.00,,---,0.00,VWS V14.00,2013-01-21 15:29:00,
2013-01-21 09:30:00,27.3,14.1,30.45,North,355,3.0,3.0,57,0.00,,---,0.00,VWS V14.00,2013-01-21 15:30:00,
2013-01-21 09:31:00,27.5,14.3,30.45,North,355,3.0,5.0,57,0.00,,---,0.00,VWS V14.00,2013-01-21 15:31:00,
2013-01-21 09:32:00,27.5,13.9,30.45,North,355,0.0,5.0,56,0.00,,---,0.00,VWS V14.00,2013-01-21 15:32:00,
2013-01-21 09:33:00,27.6,14.4,30.45,North,355,6.0,6.0,57,0.00,,---,0.00,VWS V14.00,2013-01-21 15:33:00,
2013-01-21 09:34:00,27.6,14.4,30.45,North,355,4.0,4.0,57,0.00,,---,0.00,VWS V14.00,2013-01-21 15:34:00,
2013-01-21 09:35:00,27.6,14.4,30.45,North,355,6.0,6.0,57,0.00,,---,0.00,VWS V14.00,2013-01-21 15:35:00,
2013-01-21 09:36:00,27.6,14.0,30.45,North,355,4.0,8.0,56,0.00,,---,0.00,VWS V14.00,2013-01-21 15:36:00,
2013-01-21 09:37:00,27.6,14.0,30.45,North,355,1.0,9.0,56,0.00,,---,0.00,VWS V14.00,2013-01-21 15:37:00,
2013-01-21 09:38:00,27.6,14.0,30.45,North,355,5.0,5.0,56,0.00,,---,0.00,VWS V14.00,2013-01-21 15:38:00,
2013-01-21 09:39:00,27.6,14.0,30.45,North,355,4.0,10.0,56,0.00,,---,0.00,VWS V14.00,2013-01-21 15:39:00,
2013-01-21 09:40:00,27.6,14.0,30.45,North,355,2.0,7.0,56,0.00,,---,0.00,VWS V14.00,2013-01-21 15:40:00,
2013-01-21 09:41:00,27.6,14.0,30.45,North,355,12.0,12.0,56,0.00,,---,0.00,VWS V14.00,2013-01-21 15:41:00,
2013-01-21 09:42:00,27.6,13.6,30.45,North,355,7.0,13.0,55,0.00,,---,0.00,VWS V14.00,2013-01-21 15:42:00,
2013-01-21 09:43:00,27.6,14.0,30.46,North,355,2.0,2.0,56,0.00,,---,0.00,VWS V14.00,2013-01-21 15:43:00,
2013-01-21 09:44:00,27.6,14.0,30.46,North,355,5.0,6.0,56,0.00,,---,0.00,VWS V14.00,2013-01-21 15:44:00,
2013-01-21 09:45:00,27.6,14.0,30.46,North,355,0.0,5.0,56,0.00,,---,0.00,VWS V14.00,2013-01-21 15:45:00,
2013-01-21 09:46:00,27.8,14.2,30.46,North,355,0.0,4.0,56,0.00,,---,0.00,VWS V14.00,2013-01-21 15:46:00,
2013-01-21 09:47:00,27.8,13.8,30.45,North,355,0.0,4.0,55,0.00,,---,0.00,VWS V14.00,2013-01-21 15:47:00,
2013-01-21 09:48:00,28.1,14.0,30.45,North,355,0.0,0.0,55,0.00,,---,0.00,VWS V14.00,2013-01-21 15:48:00,
2013-01-21 09:49:00,27.9,13.8,30.45,North,355,0.0,4.0,55,0.00,,---,0.00,VWS V14.00,2013-01-21 15:49:00,
2013-01-21 09:50:00,28.1,14.0,30.45,North,355,0.0,0.0,55,0.00,,---,0.00,VWS V14.00,2013-01-21 15:50:00,
2013-01-21 09:51:00,28.2,14.1,30.45,North,355,4.0,5.0,55,0.00,,---,0.00,VWS V14.00,2013-01-21 15:51:00,
2013-01-21 09:52:00,28.2,13.7,30.45,North,355,3.0,6.0,54,0.00,,---,0.00,VWS V14.00,2013-01-21 15:52:00,
2013-01-21 09:53:00,28.4,13.9,30.45,North,355,4.0,6.0,54,0.00,,---,0.00,VWS V14.00,2013-01-21 15:53:00,
2013-01-21 09:54:00,28.4,14.3,30.45,North,355,4.0,6.0,55,0.00,,---,0.00,VWS V14.00,2013-01-21 15:54:00,
2013-01-21 09:55:00,28.4,13.9,30.45,North,355,6.0,8.0,54,0.00,,---,0.00,VWS V14.00,2013-01-21 15:55:00,
2013-01-21 09:56:00,28.4,13.9,30.45,North,355,4.0,6.0,54,0.00,,---,0.00,VWS V14.00,2013-01-21 15:56:00,
2013-01-21 09:57:00,28.4,13.9,30.45,North,355,2.0,6.0,54,0.00,,---,0.00,VWS V14.00,2013-01-21 15:57:00,
2013-01-21 09:58:00,28.4,13.5,30.45,North,355,3.0,3.0,53,0.00,,---,0.00,VWS V14.00,2013-01-21 15:58:00,
2013-01-21 09:59:00,28.4,13.5,30.45,North,355,3.0,4.0,53,0.00,,---,0.00,VWS V14.00,2013-01-21 15:59:00,
2013-01-21 10:00:00,28.4,13.5,30.45,North,355,3.0,4.0,53,0.00,,---,0.00,VWS V14.00,2013-01-21 16:00:00,
2013-01-21 10:01:00,28.5,13.6,30.45,North,355,1.0,4.0,53,0.00,,---,0.00,VWS V14.00,2013-01-21 16:01:00,
2013-01-21 10:02:00,28.5,13.6,30.45,North,355,1.0,3.0,53,0.00,,---,0.00,VWS V14.00,2013-01-21 16:02:00,
2013-01-21 10:03:00,28.8,13.8,30.45,North,355,5.0,5.0,53,0.00,,---,0.00,VWS V14.00,2013-01-21 16:03:00,
2013-01-21 10:04:00,28.7,13.8,30.45,North,355,9.0,11.0,53,0.00,,---,0.00,VWS V14.00,2013-01-21 16:04:00,
2013-01-21 10:05:00,28.8,13.8,30.45,North,355,5.0,11.0,53,0.00,,---,0.00,VWS V14.00,2013-01-21 16:05:00,
2013-01-21 10:06:00,28.8,13.8,30.45,North,355,6.0,7.0,53,0.00,,---,0.00,VWS V14.00,2013-01-21 16:06:00,
2013-01-21 10:07:00,29.0,14.4,30.45,North,355,3.0,7.0,54,0.00,,---,0.00,VWS V14.00,2013-01-21 16:07:00,
2013-01-21 10:08:00,29.1,14.1,30.45,North,355,5.0,5.0,53,0.00,,---,0.00,VWS V14.00,2013-01-21 16:08:00,
2013-01-21 10:09:00,29.0,14.0,30.45,North,355,2.0,5.0,53,0.00,,---,0.00,VWS V14.00,2013-01-21 16:09:00,
2013-01-21 10:10:00,29.1,14.1,30.45,North,355,0.0,3.0,53,0.00,,---,0.00,VWS V14.00,2013-01-21 16:10:00,
2013-01-21 10:11:00,29.1,13.7,30.45,North,355,0.0,7.0,52,0.00,,---,0.00,VWS V14.00,2013-01-21 16:11:00,
2013-01-21 10:12:00,29.3,14.3,30.45,North,355,0.0,0.0,53,0.00,,---,0.00,VWS V14.00,2013-01-21 16:12:00,
2013-01-21 10:13:00,29.5,14.1,30.45,North,355,5.0,9.0,52,0.00,,---,0.00,VWS V14.00,2013-01-21 16:13:00,
2013-01-21 10:14:00,29.4,14.4,30.45,North,355,0.0,6.0,53,0.00,,---,0.00,VWS V14.00,2013-01-21 16:14:00,
2013-01-21 10:15:00,29.5,14.1,30.45,North,355,7.0,7.0,52,0.00,,---,0.00,VWS V14.00,2013-01-21 16:15:00,
2013-01-21 10:16:00,29.7,14.2,30.45,North,355,4.0,9.0,52,0.00,,---,0.00,VWS V14.00,2013-01-21 16:16:00,
2013-01-21 10:17:00,29.8,14.3,30.45,North,355,5.0,10.0,52,0.00,,---,0.00,VWS V14.00,2013-01-21 16:17:00,
2013-01-21 10:18:00,30.0,14.5,30.45,North,360,3.0,5.0,52,0.00,,---,0.00,VWS V14.00,2013-01-21 16:18:00,
2013-01-21 10:19:00,29.8,13.9,30.45,North,360,2.0,11.0,51,0.00,,---,0.00,VWS V14.00,2013-01-21 16:19:00,
2013-01-21 10:20:00,30.0,14.5,30.45,North,360,5.0,6.0,52,0.00,,---,0.00,VWS V14.00,2013-01-21 16:20:00,
2013-01-21 10:21:00,30.0,14.1,30.45,North,5,5.0,11.0,51,0.00,,---,0.00,VWS V14.00,2013-01-21 16:21:00,
2013-01-21 10:22:00,30.0,13.6,30.45,North,5,7.0,7.0,50,0.00,,---,0.00,VWS V14.00,2013-01-21 16:22:00,
2013-01-21 10:23:00,30.1,13.3,30.45,North,5,5.0,5.0,49,0.00,,---,0.00,VWS V14.00,2013-01-21 16:23:00,
2013-01-21 10:24:00,30.0,13.2,30.45,North,5,4.0,8.0,49,0.00,,---,0.00,VWS V14.00,2013-01-21 16:24:00,
2013-01-21 10:25:00,30.1,13.3,30.45,North,5,3.0,4.0,49,0.00,,---,0.00,VWS V14.00,2013-01-21 16:25:00,
2013-01-21 10:26:00,30.1,13.3,30.45,North,5,4.0,9.0,49,0.00,,---,0.00,VWS V14.00,2013-01-21 16:26:00,
2013-01-21 10:27:00,30.1,13.3,30.45,North,5,0.0,4.0,49,0.00,,---,0.00,VWS V14.00,2013-01-21 16:27:00,
2013-01-21 10:28:00,30.4,13.1,30.45,North,5,9.0,9.0,48,0.00,,---,0.00,VWS V14.00,2013-01-21 16:28:00,
2013-01-21 10:29:00,30.3,13.4,30.45,North,5,2.0,7.0,49,0.00,,---,0.00,VWS V14.00,2013-01-21 16:29:00,
2013-01-21 10:30:00,30.4,13.1,30.45,North,5,5.0,5.0,48,0.00,,---,0.00,VWS V14.00,2013-01-21 16:30:00,
2013-01-21 10:31:00,30.4,13.1,30.45,North,5,1.0,9.0,48,0.00,,---,0.00,VWS V14.00,2013-01-21 16:31:00,
2013-01-21 10:32:00,30.6,13.3,30.45,North,5,2.0,3.0,48,0.00,,---,0.00,VWS V14.00,2013-01-21 16:32:00,
2013-01-21 10:33:00,30.9,13.1,30.44,NE,54,10.0,13.0,47,0.00,,---,0.00,VWS V14.00,2013-01-21 16:33:00,
2013-01-21 10:34:00,30.7,13.4,30.44,North,5,2.0,5.0,48,0.00,,---,0.00,VWS V14.00,2013-01-21 16:34:00,
2013-01-21 10:35:00,30.7,12.9,30.44,NE,53,13.0,13.0,47,0.00,,---,0.00,VWS V14.00,2013-01-21 16:35:00,
2013-01-21 10:36:00,30.7,12.9,30.44,NE,54,4.0,13.0,47,0.00,,---,0.00,VWS V14.00,2013-01-21 16:36:00,
2013-01-21 10:37:00,30.7,12.4,30.44,NE,53,2.0,6.0,46,0.00,,---,0.00,VWS V14.00,2013-01-21 16:37:00,
2013-01-21 10:38:00,30.7,12.4,30.44,East,93,1.0,2.0,46,0.00,,---,0.00,VWS V14.00,2013-01-21 16:38:00,
2013-01-21 10:39:00,30.7,12.4,30.44,East,93,4.0,7.0,46,0.00,,---,0.00,VWS V14.00,2013-01-21 16:39:00,
2013-01-21 10:40:00,30.7,12.4,30.44,East,93,2.0,5.0,46,0.00,,---,0.00,VWS V14.00,2013-01-21 16:40:00,
2013-01-21 10:41:00,30.7,12.4,30.44,East,93,0.0,3.0,46,0.00,,---,0.00,VWS V14.00,2013-01-21 16:41:00,
2013-01-21 10:42:00,30.7,13.4,30.44,East,79,3.0,5.0,48,0.00,,---,0.00,VWS V14.00,2013-01-21 16:42:00,
2013-01-21 10:43:00,30.9,13.1,30.44,ENE,68,0.0,1.0,47,0.00,,---,0.00,VWS V14.00,2013-01-21 16:43:00,
2013-01-21 10:44:00,30.9,13.1,30.44,ENE,77,3.0,5.0,47,0.00,,---,0.00,VWS V14.00,2013-01-21 16:44:00,
2013-01-21 10:45:00,30.9,13.1,30.44,ENE,68,0.0,6.0,47,0.00,,---,0.00,VWS V14.00,2013-01-21 16:45:00,
2013-01-21 10:46:00,30.9,13.1,30.44,ENE,69,1.0,3.0,47,0.00,,---,0.00,VWS V14.00,2013-01-21 16:46:00,
2013-01-21 10:47:00,31.0,13.1,30.44,ENE,68,0.0,2.0,47,0.00,,---,0.00,VWS V14.00,2013-01-21 16:47:00,
2013-01-21 10:48:00,31.3,13.4,30.44,NNE,23,2.0,2.0,47,0.00,,---,0.00,VWS V14.00,2013-01-21 16:48:00,
2013-01-21 10:49:00,31.3,13.4,30.44,NE,37,4.0,6.0,47,0.00,,---,0.00,VWS V14.00,2013-01-21 16:49:00,
2013-01-21 10:50:00,31.3,13.4,30.44,NNE,23,1.0,5.0,47,0.00,,---,0.00,VWS V14.00,2013-01-21 16:50:00,
2013-01-21 10:51:00,31.5,13.6,30.44,NNE,19,6.0,6.0,47,0.00,,---,0.00,VWS V14.00,2013-01-21 16:51:00,
2013-01-21 10:52:00,31.5,12.6,30.44,NNE,17,4.0,8.0,45,0.00,,---,0.00,VWS V14.00,2013-01-21 16:52:00,
2013-01-21 10:53:00,31.5,13.1,30.44,NE,45,2.0,2.0,46,0.00,,---,0.00,VWS V14.00,2013-01-21 16:53:00,
2013-01-21 10:54:00,31.5,12.6,30.44,NE,45,1.0,6.0,45,0.00,,---,0.00,VWS V14.00,2013-01-21 16:54:00,
2013-01-21 10:55:00,31.5,13.1,30.44,NE,45,3.0,3.0,46,0.00,,---,0.00,VWS V14.00,2013-01-21 16:55:00,
2013-01-21 10:56:00,31.5,13.1,30.44,NE,45,1.0,3.0,46,0.00,,---,0.00,VWS V14.00,2013-01-21 16:56:00,
2013-01-21 10:57:00,31.6,13.2,30.44,NE,38,5.0,5.0,46,0.00,,---,0.00,VWS V14.00,2013-01-21 16:57:00,
2013-01-21 10:58:00,31.6,12.7,30.44,NNW,341,10.0,13.0,45,0.00,,---,0.00,VWS V14.00,2013-01-21 16:58:00,
2013-01-21 10:59:00,31.6,13.2,30.44,NNW,338,13.0,13.0,46,0.00,,---,0.00,VWS V14.00,2013-01-21 16:59:00,
2013-01-21 11:00:00,31.6,12.7,30.44,NNW,341,10.0,13.0,45,0.00,,---,0.00,VWS V14.00,2013-01-21 17:00:00,
2013-01-21 11:01:00,31.6,12.7,30.44,NNW,342,7.0,12.0,45,0.00,,---,0.00,VWS V14.00,2013-01-21 17:01:00,
2013-01-21 11:02:00,31.6,12.7,30.45,NNW,342,4.0,10.0,45,0.00,,---,0.00,VWS V14.00,2013-01-21 17:02:00,
2013-01-21 11:03:00,31.6,12.7,30.45,NNE,13,7.0,10.0,45,0.00,,---,0.00,VWS V14.00,2013-01-21 17:03:00,
2013-01-21 11:04:00,31.6,12.7,30.45,NNE,12,7.0,11.0,45,0.00,,---,0.00,VWS V14.00,2013-01-21 17:04:00,
2013-01-21 11:05:00,31.6,12.7,30.45,NNE,13,7.0,10.0,45,0.00,,---,0.00,VWS V14.00,2013-01-21 17:05:00,
2013-01-21 11:06:00,31.6,12.2,30.45,NNE,13,4.0,7.0,44,0.00,,---,0.00,VWS V14.00,2013-01-21 17:06:00,
2013-01-21 11:07:00,31.6,12.7,30.45,NNE,13,2.0,5.0,45,0.00,,---,0.00,VWS V14.00,2013-01-21 17:07:00,
2013-01-21 11:08:00,31.8,12.9,30.45,NNE,13,0.0,3.0,45,0.00,,---,0.00,VWS V14.00,2013-01-21 17:08:00,
2013-01-21 11:09:00,31.8,12.9,30.45,NNE,13,1.0,3.0,45,0.00,,---,0.00,VWS V14.00,2013-01-21 17:09:00,
2013-01-21 11:10:00,31.8,12.9,30.45,NNE,13,0.0,3.0,45,0.00,,---,0.00,VWS V14.00,2013-01-21 17:10:00,
2013-01-21 11:11:00,31.9,13.0,30.44,NNE,13,4.0,6.0,45,0.00,,---,0.00,VWS V14.00,2013-01-21 17:11:00,
2013-01-21 11:12:00,32.1,12.7,30.45,NNE,13,1.0,5.0,44,0.00,,---,0.00,VWS V14.00,2013-01-21 17:12:00,
2013-01-21 11:13:00,32.2,13.3,30.45,NNW,340,6.0,11.0,45,0.00,,---,0.00,VWS V14.00,2013-01-21 17:13:00,
2013-01-21 11:14:00,32.2,13.3,30.45,North,10,6.0,9.0,45,0.00,,---,0.00,VWS V14.00,2013-01-21 17:14:00,
2013-01-21 11:15:00,32.2,13.3,30.45,NNW,340,6.0,11.0,45,0.00,,---,0.00,VWS V14.00,2013-01-21 17:15:00,
2013-01-21 11:16:00,32.2,13.3,30.45,NNW,342,6.0,10.0,45,0.00,,---,0.00,VWS V14.00,2013-01-21 17:16:00,
2013-01-21 11:17:00,32.2,13.3,30.44,NNW,342,10.0,10.0,45,0.00,,---,0.00,VWS V14.00,2013-01-21 17:17:00,
2013-01-21 11:18:00,32.2,12.8,30.44,NNW,336,10.0,11.0,44,0.00,,---,0.00,VWS V14.00,2013-01-21 17:18:00,
2013-01-21 11:19:00,32.2,13.3,30.44,NNW,335,4.0,9.0,45,0.00,,---,0.00,VWS V14.00,2013-01-21 17:19:00,
2013-01-21 11:20:00,32.2,12.8,30.44,NNW,336,10.0,11.0,44,0.00,,---,0.00,VWS V14.00,2013-01-21 17:20:00,
2013-01-21 11:21:00,32.2,12.2,30.44,NW,325,10.0,15.0,43,0.00,,---,0.00,VWS V14.00,2013-01-21 17:21:00,
2013-01-21 11:22:00,32.4,13.4,30.44,NNW,327,11.0,15.0,45,0.00,,---,0.00,VWS V14.00,2013-01-21 17:22:00,
2013-01-21 11:23:00,32.4,12.4,30.44,NW,325,4.0,10.0,43,0.00,,---,0.00,VWS V14.00,2013-01-21 17:23:00,
2013-01-21 11:24:00,32.4,12.4,30.44,NW,325,7.0,9.0,43,0.00,,---,0.00,VWS V14.00,2013-01-21 17:24:00,
2013-01-21 11:25:00,32.4,12.4,30.44,NW,325,4.0,10.0,43,0.00,,---,0.00,VWS V14.00,2013-01-21 17:25:00,
2013-01-21 11:26:00,32.5,13.0,30.44,NW,326,12.0,12.0,44,0.00,,---,0.00,VWS V14.00,2013-01-21 17:26:00,
2013-01-21 11:27:00,32.5,12.5,30.44,NNW,331,7.0,17.0,43,0.00,,---,0.00,VWS V14.00,2013-01-21 17:27:00,
2013-01-21 11:28:00,32.7,12.2,30.44,NNW,338,1.0,10.0,42,0.00,,---,0.00,VWS V14.00,2013-01-21 17:28:00,
2013-01-21 11:29:00,32.5,12.0,30.44,NNW,343,2.0,15.0,42,0.00,,---,0.00,VWS V14.00,2013-01-21 17:29:00,
2013-01-21 11:30:00,32.7,12.2,30.44,NNW,338,1.0,10.0,42,0.00,,---,0.00,VWS V14.00,2013-01-21 17:30:00,
2013-01-21 11:31:00,32.7,12.7,30.44,NNW,347,10.0,12.0,43,0.00,,---,0.00,VWS V14.00,2013-01-21 17:31:00,
2013-01-21 11:32:00,32.7,12.2,30.44,NNW,338,8.0,10.0,42,0.00,,---,0.00,VWS V14.00,2013-01-21 17:32:00,
2013-01-21 11:33:00,32.8,12.8,30.44,North,355,9.0,9.0,43,0.00,,---,0.00,VWS V14.00,2013-01-21 17:33:00,
2013-01-21 11:34:00,32.8,12.2,30.44,North,5,5.0,9.0,42,0.00,,---,0.00,VWS V14.00,2013-01-21 17:34:00,
2013-01-21 11:35:00,32.8,12.8,30.44,NNW,347,12.0,12.0,43,0.00,,---,0.00,VWS V14.00,2013-01-21 17:35:00,
2013-01-21 11:36:00,32.9,11.8,30.43,NNW,327,6.0,12.0,41,0.00,,---,0.00,VWS V14.00,2013-01-21 17:36:00,
2013-01-21 11:37:00,32.9,12.3,30.43,NNW,328,4.0,10.0,42,0.00,,---,0.00,VWS V14.00,2013-01-21 17:37:00,
2013-01-21 11:38:00,32.9,11.8,30.43,NNW,342,5.0,8.0,41,0.00,,---,0.00,VWS V14.00,2013-01-21 17:38:00,
2013-01-21 11:39:00,32.9,11.8,30.43,NNW,342,2.0,12.0,41,0.00,,---,0.00,VWS V14.00,2013-01-21 17:39:00,
2013-01-21 11:40:00,32.9,11.8,30.43,NNW,342,2.0,8.0,41,0.00,,---,0.00,VWS V14.00,2013-01-21 17:40:00,
2013-01-21 11:41:00,32.9,11.8,30.43,North,355,7.0,17.0,41,0.00,,---,0.00,VWS V14.00,2013-01-21 17:41:00,
2013-01-21 11:42:00,32.9,11.2,30.43,North,360,6.0,15.0,40,0.00,,---,0.00,VWS V14.00,2013-01-21 17:42:00,
2013-01-21 11:43:00,32.8,11.7,30.43,NNE,17,10.0,15.0,41,0.00,,---,0.00,VWS V14.00,2013-01-21 17:43:00,
2013-01-21 11:44:00,32.8,11.7,30.43,NNW,336,5.0,10.0,41,0.00,,---,0.00,VWS V14.00,2013-01-21 17:44:00,
2013-01-21 11:45:00,32.8,11.7,30.43,NNE,17,10.0,15.0,41,0.00,,---,0.00,VWS V14.00,2013-01-21 17:45:00,
2013-01-21 11:46:00,32.7,11.6,30.43,NNE,17,5.0,10.0,41,0.00,,---,0.00,VWS V14.00,2013-01-21 17:46:00,
2013-01-21 11:47:00,32.7,11.6,30.43,North,351,7.0,15.0,41,0.00,,---,0.00,VWS V14.00,2013-01-21 17:47:00,
2013-01-21 11:48:00,32.8,11.7,30.43,NNW,340,2.0,9.0,41,0.00,,---,0.00,VWS V14.00,2013-01-21 17:48:00,
2013-01-21 11:49:00,32.7,11.6,30.43,North,360,5.0,14.0,41,0.00,,---,0.00,VWS V14.00,2013-01-21 17:49:00,
2013-01-21 11:50:00,32.8,11.7,30.43,NNW,340,2.0,9.0,41,0.00,,---,0.00,VWS V14.00,2013-01-21 17:50:00,
2013-01-21 11:51:00,32.8,12.2,30.43,NNW,342,9.0,10.0,42,0.00,,---,0.00,VWS V14.00,2013-01-21 17:51:00,
2013-01-21 11:52:00,32.9,11.8,30.43,NNW,344,4.0,9.0,41,0.00,,---,0.00,VWS V14.00,2013-01-21 17:52:00,
2013-01-21 11:53:00,33.1,12.0,30.43,NNW,343,11.0,14.0,41,0.00,,---,0.00,VWS V14.00,2013-01-21 17:53:00,
2013-01-21 11:54:00,32.9,11.8,30.43,NNW,348,9.0,10.0,41,0.00,,---,0.00,VWS V14.00,2013-01-21 17:54:00,
2013-01-21 11:55:00,33.1,12.0,30.43,NNW,343,11.0,14.0,41,0.00,,---,0.00,VWS V14.00,2013-01-21 17:55:00,
2013-01-21 11:56:00,33.1,12.0,30.43,NNW,331,11.0,13.0,41,0.00,,---,0.00,VWS V14.00,2013-01-21 17:56:00,
2013-01-21 11:57:00,33.1,12.0,30.43,NNW,338,12.0,13.0,41,0.00,,---,0.00,VWS V14.00,2013-01-21 17:57:00,
2013-01-21 11:58:00,32.9,11.8,30.43,NNW,333,2.0,10.0,41,0.00,,---,0.00,VWS V14.00,2013-01-21 17:58:00,
2013-01-21 11:59:00,32.9,11.2,30.43,NW,323,8.0,11.0,40,0.00,,---,0.00,VWS V14.00,2013-01-21 17:59:00,
2013-01-21 12:00:00,32.9,11.8,30.43,NNW,333,2.0,10.0,41,0.00,,---,0.00,VWS V14.00,2013-01-21 18:00:00,
2013-01-21 12:01:00,32.9,11.8,30.43,NNW,335,4.0,9.0,41,0.00,,---,0.00,VWS V14.00,2013-01-21 18:01:00,
2013-01-21 12:02:00,33.1,12.5,30.43,NNW,335,3.0,4.0,42,0.00,,---,0.00,VWS V14.00,2013-01-21 18:02:00,
2013-01-21 12:03:00,33.1,12.0,30.43,NNW,336,4.0,12.0,41,0.00,,---,0.00,VWS V14.00,2013-01-21 18:03:00,
2013-01-21 12:04:00,33.1,12.0,30.43,NNW,336,10.0,13.0,41,0.00,,---,0.00,VWS V14.00,2013-01-21 18:04:00,
2013-01-21 12:05:00,33.1,12.0,30.43,NNW,336,5.0,12.0,41,0.00,,---,0.00,VWS V14.00,2013-01-21 18:05:00,
2013-01-21 12:06:00,33.2,12.6,30.43,NNW,342,5.0,6.0,42,0.00,,---,0.00,VWS V14.00,2013-01-21 18:06:00,
2013-01-21 12:07:00,33.2,12.1,30.43,NNW,340,6.0,10.0,41,0.00,,---,0.00,VWS V14.00,2013-01-21 18:07:00,
2013-01-21 12:08:00,33.4,12.2,30.43,NNW,339,0.0,5.0,41,0.00,,---,0.00,VWS V14.00,2013-01-21 18:08:00,
2013-01-21 12:09:00,33.2,12.1,30.43,NNW,339,3.0,5.0,41,0.00,,---,0.00,VWS V14.00,2013-01-21 18:09:00,
2013-01-21 12:10:00,33.4,12.2,30.43,NNW,339,0.0,5.0,41,0.00,,---,0.00,VWS V14.00,2013-01-21 18:10:00,
2013-01-21 12:11:00,33.4,12.2,30.43,NNW,339,1.0,3.0,41,0.00,,---,0.00,VWS V14.00,2013-01-21 18:11:00,
2013-01-21 12:12:00,33.5,12.3,30.42,NNE,18,9.0,11.0,41,0.00,,---,0.00,VWS V14.00,2013-01-21 18:12:00,
2013-01-21 12:13:00,33.5,12.3,30.42,NNE,32,3.0,4.0,41,0.00,,---,0.00,VWS V14.00,2013-01-21 18:13:00,
2013-01-21 12:14:00,33.5,12.3,30.42,NNE,32,2.0,8.0,41,0.00,,---,0.00,VWS V14.00,2013-01-21 18:14:00,
2013-01-21 12:15:00,33.5,12.3,30.42,NNE,32,3.0,4.0,41,0.00,,---,0.00,VWS V14.00,2013-01-21 18:15:00,
2013-01-21 12:16:00,33.5,12.3,30.42,NE,34,5.0,7.0,41,0.00,,---,0.00,VWS V14.00,2013-01-21 18:16:00,
2013-01-21 12:17:00,33.5,12.3,30.42,NE,34,1.0,6.0,41,0.00,,---,0.00,VWS V14.00,2013-01-21 18:17:00,
2013-01-21 12:18:00,33.7,12.5,30.42,NNE,21,7.0,11.0,41,0.00,,---,0.00,VWS V14.00,2013-01-21 18:18:00,
2013-01-21 12:19:00,33.5,12.3,30.42,NE,34,0.0,1.0,41,0.00,,---,0.00,VWS V14.00,2013-01-21 18:19:00,
2013-01-21 12:20:00,33.7,12.5,30.42,NNE,22,7.0,11.0,41,0.00,,---,0.00,VWS V14.00,2013-01-21 18:20:00,
2013-01-21 12:21:00,33.7,12.0,30.42,NNE,24,7.0,9.0,40,0.00,,---,0.00,VWS V14.00,2013-01-21 18:21:00,
2013-01-21 12:22:00,33.7,12.5,30.42,NNE,24,5.0,8.0,41,0.00,,---,0.00,VWS V14.00,2013-01-21 18:22:00,
2013-01-21 12:23:00,33.8,12.6,30.41,NNE,24,0.0,0.0,41,0.00,,---,0.00,VWS V14.00,2013-01-21 18:23:00,
2013-01-21 12:24:00,33.7,12.5,30.42,NNE,24,0.0,0.0,41,0.00,,---,0.00,VWS V14.00,2013-01-21 18:24:00,
2013-01-21 12:25:00,33.8,12.6,30.41,NNE,24,0.0,0.0,41,0.00,,---,0.00,VWS V14.00,2013-01-21 18:25:00,
2013-01-21 12:26:00,34.0,12.8,30.42,NNE,24,0.0,0.0,41,0.00,,---,0.00,VWS V14.00,2013-01-21 18:26:00,
2013-01-21 12:27:00,34.1,12.9,30.41,NNE,24,4.0,4.0,41,0.00,,---,0.00,VWS V14.00,2013-01-21 18:27:00,
2013-01-21 12:28:00,34.3,13.6,30.41,NW,321,7.0,10.0,42,0.00,,---,0.00,VWS V14.00,2013-01-21 18:28:00,
2013-01-21 12:29:00,34.3,13.6,30.41,North,5,4.0,7.0,42,0.00,,---,0.00,VWS V14.00,2013-01-21 18:29:00,
2013-01-21 12:30:00,34.3,13.6,30.41,NW,320,7.0,10.0,42,0.00,,---,0.00,VWS V14.00,2013-01-21 18:30:00,
2013-01-21 12:31:00,34.4,13.7,30.41,NW,317,11.0,13.0,42,0.00,,---,0.00,VWS V14.00,2013-01-21 18:31:00,
2013-01-21 12:32:00,34.4,13.1,30.41,NW,319,5.0,11.0,41,0.00,,---,0.00,VWS V14.00,2013-01-21 18:32:00,
2013-01-21 12:33:00,34.4,13.1,30.40,NW,320,0.0,3.0,41,0.00,,---,0.00,VWS V14.00,2013-01-21 18:33:00,
2013-01-21 12:34:00,34.4,13.1,30.40,NW,320,4.0,4.0,41,0.00,,---,0.00,VWS V14.00,2013-01-21 18:34:00,
2013-01-21 12:35:00,34.4,13.1,30.40,NW,320,0.0,3.0,41,0.00,,---,0.00,VWS V14.00,2013-01-21 18:35:00,
2013-01-21 12:36:00,34.4,13.1,30.40,NW,320,3.0,6.0,41,0.00,,---,0.00,VWS V14.00,2013-01-21 18:36:00,
2013-01-21 12:37:00,34.4,13.7,30.40,NW,320,7.0,7.0,42,0.00,,---,0.00,VWS V14.00,2013-01-21 18:37:00,
2013-01-21 12:38:00,34.6,14.4,30.40,NW,320,5.0,6.0,43,0.00,,---,0.00,VWS V14.00,2013-01-21 18:38:00,
2013-01-21 12:39:00,34.6,14.9,30.40,NW,320,6.0,10.0,44,0.00,,---,0.00,VWS V14.00,2013-01-21 18:39:00,
2013-01-21 12:40:00,34.7,14.5,30.40,NW,320,4.0,6.0,43,0.00,,---,0.00,VWS V14.00,2013-01-21 18:40:00,
2013-01-21 12:41:00,34.7,14.0,30.40,NW,320,1.0,4.0,42,0.00,,---,0.00,VWS V14.00,2013-01-21 18:41:00,
2013-01-21 12:42:00,34.7,14.0,30.40,NW,320,0.0,1.0,42,0.00,,---,0.00,VWS V14.00,2013-01-21 18:42:00,
2013-01-21 12:43:00,34.9,14.1,30.40,NW,320,5.0,9.0,42,0.00,,---,0.00,VWS V14.00,2013-01-21 18:43:00,
2013-01-21 12:44:00,34.9,14.1,30.40,NW,320,5.0,5.0,42,0.00,,---,0.00,VWS V14.00,2013-01-21 18:44:00,
2013-01-21 12:45:00,34.9,14.1,30.40,NW,320,3.0,9.0,42,0.00,,---,0.00,VWS V14.00,2013-01-21 18:45:00,
2013-01-21 12:46:00,35.0,13.7,30.40,NW,320,5.0,6.0,41,0.00,,---,0.00,VWS V14.00,2013-01-21 18:46:00,
2013-01-21 12:47:00,35.0,14.2,30.40,NW,320,6.0,7.0,42,0.00,,---,0.00,VWS V14.00,2013-01-21 18:47:00,
2013-01-21 12:48:00,35.0,13.1,30.40,NW,320,2.0,4.0,40,0.00,,---,0.00,VWS V14.00,2013-01-21 18:48:00,
2013-01-21 12:49:00,35.0,13.7,30.40,NW,320,3.0,3.0,41,0.00,,---,0.00,VWS V14.00,2013-01-21 18:49:00,
2013-01-21 12:50:00,35.0,13.1,30.40,NW,320,2.0,4.0,40,0.00,,---,0.00,VWS V14.00,2013-01-21 18:50:00,
2013-01-21 12:51:00,35.0,13.1,30.40,NW,320,6.0,6.0,40,0.00,,---,0.00,VWS V14.00,2013-01-21 18:51:00,
2013-01-21 12:52:00,35.0,13.7,30.40,NW,320,5.0,10.0,41,0.00,,---,0.00,VWS V14.00,2013-01-21 18:52:00,
2013-01-21 12:53:00,35.0,14.2,30.40,NW,319,5.0,6.0,42,0.00,,---,0.00,VWS V14.00,2013-01-21 18:53:00,
2013-01-21 12:54:00,35.2,13.3,30.40,NW,319,6.0,9.0,40,0.00,,---,0.00,VWS V14.00,2013-01-21 18:54:00,
2013-01-21 12:55:00,35.0,14.2,30.40,NW,319,6.0,6.0,42,0.00,,---,0.00,VWS V14.00,2013-01-21 18:55:00,
2013-01-21 12:56:00,35.0,13.7,30.40,NW,319,2.0,7.0,41,0.00,,---,0.00,VWS V14.00,2013-01-21 18:56:00,
2013-01-21 12:57:00,35.0,13.7,30.40,NW,319,4.0,5.0,41,0.00,,---,0.00,VWS V14.00,2013-01-21 18:57:00,
2013-01-21 12:58:00,35.2,13.9,30.40,NW,319,4.0,4.0,41,0.00,,---,0.00,VWS V14.00,2013-01-21 18:58:00,
2013-01-21 12:59:00,35.2,13.9,30.40,NW,319,1.0,5.0,41,0.00,,---,0.00,VWS V14.00,2013-01-21 18:59:00,
2013-01-21 13:00:00,35.2,13.9,30.40,NW,319,2.0,4.0,41,0.00,,---,0.00,VWS V14.00,2013-01-21 19:00:00,
2013-01-21 13:01:00,35.3,14.0,30.40,NW,319,5.0,5.0,41,0.00,,---,0.00,VWS V14.00,2013-01-21 19:01:00,
2013-01-21 13:02:00,35.3,14.0,30.40,NW,319,3.0,7.0,41,0.00,,---,0.00,VWS V14.00,2013-01-21 19:02:00,
2013-01-21 13:03:00,35.5,14.1,30.39,NW,311,3.0,8.0,41,0.00,,---,0.00,VWS V14.00,2013-01-21 19:03:00,
2013-01-21 13:04:00,35.5,13.6,30.40,NW,311,6.0,9.0,40,0.00,,---,0.00,VWS V14.00,2013-01-21 19:04:00,
2013-01-21 13:05:00,35.5,14.1,30.39,NW,311,2.0,8.0,41,0.00,,---,0.00,VWS V14.00,2013-01-21 19:05:00,
2013-01-21 13:06:00,35.6,14.2,30.39,NW,311,8.0,8.0,41,0.00,,---,0.00,VWS V14.00,2013-01-21 19:06:00,
2013-01-21 13:07:00,35.6,14.2,30.39,NNW,340,10.0,12.0,41,0.00,,---,0.00,VWS V14.00,2013-01-21 19:07:00,
2013-01-21 13:08:00,35.6,14.2,30.39,NNW,347,7.0,8.0,41,0.00,,---,0.00,VWS V14.00,2013-01-21 19:08:00,
2013-01-21 13:09:00,35.6,14.2,30.39,North,9,1.0,2.0,41,0.00,,---,0.00,VWS V14.00,2013-01-21 19:09:00,
2013-01-21 13:10:00,35.6,14.8,30.39,NNW,340,6.0,8.0,42,0.00,,---,0.00,VWS V14.00,2013-01-21 19:10:00,
2013-01-21 13:11:00,35.6,14.2,30.39,NW,324,12.0,12.0,41,0.00,,---,0.00,VWS V14.00,2013-01-21 19:11:00,
2013-01-21 13:12:00,35.6,14.2,30.39,NW,325,9.0,12.0,41,0.00,,---,0.00,VWS V14.00,2013-01-21 19:12:00,
2013-01-21 13:13:00,35.6,13.7,30.39,NW,325,2.0,5.0,40,0.00,,---,0.00,VWS V14.00,2013-01-21 19:13:00,
2013-01-21 13:14:00,35.6,14.2,30.39,NW,325,2.0,9.0,41,0.00,,---,0.00,VWS V14.00,2013-01-21 19:14:00,
2013-01-21 13:15:00,35.6,13.7,30.39,NW,325,1.0,5.0,40,0.00,,---,0.00,VWS V14.00,2013-01-21 19:15:00,
2013-01-21 13:16:00,35.6,13.7,30.39,NW,313,6.0,10.0,40,0.00,,---,0.00,VWS V14.00,2013-01-21 19:16:00,
2013-01-21 13:17:00,35.6,13.7,30.39,NW,311,6.0,7.0,40,0.00,,---,0.00,VWS V14.00,2013-01-21 19:17:00,
2013-01-21 13:18:00,35.6,13.7,30.39,NW,311,7.0,10.0,40,0.00,,---,0.00,VWS V14.00,2013-01-21 19:18:00,
2013-01-21 13:19:00,35.6,13.7,30.39,NW,311,3.0,8.0,40,0.00,,---,0.00,VWS V14.00,2013-01-21 19:19:00,
2013-01-21 13:20:00,35.6,13.7,30.39,NW,311,4.0,7.0,40,0.00,,---,0.00,VWS V14.00,2013-01-21 19:20:00,
2013-01-21 13:21:00,35.8,13.9,30.39,NW,311,1.0,6.0,40,0.00,,---,0.00,VWS V14.00,2013-01-21 19:21:00,
2013-01-21 13:22:00,35.9,13.4,30.38,NW,307,5.0,6.0,39,0.00,,---,0.00,VWS V14.00,2013-01-21 19:22:00,
2013-01-21 13:23:00,35.8,13.9,30.39,NW,308,6.0,11.0,40,0.00,,---,0.00,VWS V14.00,2013-01-21 19:23:00,
2013-01-21 13:24:00,35.8,13.9,30.39,NW,307,6.0,8.0,40,0.00,,---,0.00,VWS V14.00,2013-01-21 19:24:00,
2013-01-21 13:25:00,35.9,13.4,30.38,NW,307,3.0,6.0,39,0.00,,---,0.00,VWS V14.00,2013-01-21 19:25:00,
2013-01-21 13:26:00,35.9,13.4,30.38,NW,307,4.0,5.0,39,0.00,,---,0.00,VWS V14.00,2013-01-21 19:26:00,
2013-01-21 13:27:00,35.9,14.5,30.38,NW,312,9.0,13.0,41,0.00,,---,0.00,VWS V14.00,2013-01-21 19:27:00,
2013-01-21 13:28:00,35.9,13.4,30.38,NW,307,3.0,6.0,39,0.00,,---,0.00,VWS V14.00,2013-01-21 19:28:00,
2013-01-21 13:29:00,35.9,13.4,30.38,NW,307,7.0,7.0,39,0.00,,---,0.00,VWS V14.00,2013-01-21 19:29:00,
2013-01-21 13:30:00,36.0,14.6,30.38,NW,312,6.0,13.0,41,0.00,,---,0.00,VWS V14.00,2013-01-21 19:30:00,
2013-01-21 13:31:00,36.0,14.0,30.38,NW,314,6.0,10.0,40,0.00,,---,0.00,VWS V14.00,2013-01-21 19:31:00,
2013-01-21 13:32:00,36.2,14.2,30.38,NW,314,5.0,6.0,40,0.00,,---,0.00,VWS V14.00,2013-01-21 19:32:00,
2013-01-21 13:33:00,36.2,14.2,30.38,NW,314,5.0,8.0,40,0.00,,---,0.00,VWS V14.00,2013-01-21 19:33:00,
2013-01-21 13:34:00,36.2,14.2,30.38,NW,314,6.0,9.0,40,0.00,,---,0.00,VWS V14.00,2013-01-21 19:34:00,
2013-01-21 13:35:00,36.2,14.2,30.38,NW,314,5.0,6.0,40,0.00,,---,0.00,VWS V14.00,2013-01-21 19:35:00,
2013-01-21 13:36:00,36.2,14.2,30.38,NW,314,3.0,7.0,40,0.00,,---,0.00,VWS V14.00,2013-01-21 19:36:00,
2013-01-21 13:37:00,36.3,14.3,30.38,NW,309,4.0,6.0,40,0.00,,---,0.00,VWS V14.00,2013-01-21 19:37:00,
2013-01-21 13:38:00,36.3,14.3,30.38,NNW,328,6.0,10.0,40,0.00,,---,0.00,VWS V14.00,2013-01-21 19:38:00,
2013-01-21 13:39:00,36.3,14.3,30.38,NW,309,6.0,7.0,40,0.00,,---,0.00,VWS V14.00,2013-01-21 19:39:00,
2013-01-21 13:40:00,36.3,14.3,30.38,NW,309,5.0,6.0,40,0.00,,---,0.00,VWS V14.00,2013-01-21 19:40:00,
2013-01-21 13:41:00,36.5,15.1,30.38,NNW,330,9.0,12.0,41,0.00,,---,0.00,VWS V14.00,2013-01-21 19:41:00,
2013-01-21 13:42:00,36.5,13.9,30.37,NNW,329,7.0,10.0,39,0.00,,---,0.00,VWS V14.00,2013-01-21 19:42:00,
2013-01-21 13:43:00,36.5,13.9,30.38,NNW,329,6.0,7.0,39,0.00,,---,0.00,VWS V14.00,2013-01-21 19:43:00,
2013-01-21 13:44:00,36.5,13.9,30.38,NNW,329,3.0,6.0,39,0.00,,---,0.00,VWS V14.00,2013-01-21 19:44:00,
2013-01-21 13:45:00,36.5,14.5,30.37,NNW,328,6.0,10.0,40,0.00,,---,0.00,VWS V14.00,2013-01-21 19:45:00,
2013-01-21 13:46:00,36.5,14.5,30.37,NNW,327,6.0,7.0,40,0.00,,---,0.00,VWS V14.00,2013-01-21 19:46:00,
2013-01-21 13:47:00,36.5,14.5,30.37,NW,326,7.0,7.0,40,0.00,,---,0.00,VWS V14.00,2013-01-21 19:47:00,
2013-01-21 13:48:00,36.5,14.5,30.37,NW,324,3.0,6.0,40,0.00,,---,0.00,VWS V14.00,2013-01-21 19:48:00,
2013-01-21 13:49:00,36.5,14.5,30.37,NNW,329,4.0,6.0,40,0.00,,---,0.00,VWS V14.00,2013-01-21 19:49:00,
2013-01-21 13:50:00,36.6,14.6,30.37,NW,306,6.0,7.0,40,0.00,,---,0.00,VWS V14.00,2013-01-21 19:50:00,
2013-01-21 13:51:00,36.6,14.0,30.37,NW,307,2.0,9.0,39,0.00,,---,0.00,VWS V14.00,2013-01-21 19:51:00,
2013-01-21 13:52:00,36.8,14.2,30.37,WNW,302,9.0,11.0,39,0.00,,---,0.00,VWS V14.00,2013-01-21 19:52:00,
2013-01-21 13:53:00,36.6,14.0,30.38,NW,307,3.0,9.0,39,0.00,,---,0.00,VWS V14.00,2013-01-21 19:53:00,
2013-01-21 13:54:00,36.6,13.4,30.37,WNW,300,5.0,9.0,38,0.00,,---,0.00,VWS V14.00,2013-01-21 19:54:00,
2013-01-21 13:55:00,36.8,14.2,30.37,WNW,302,7.0,11.0,39,0.00,,---,0.00,VWS V14.00,2013-01-21 19:55:00,
2013-01-21 13:56:00,36.8,13.6,30.37,WNW,302,3.0,7.0,38,0.00,,---,0.00,VWS V14.00,2013-01-21 19:56:00,
2013-01-21 13:57:00,36.9,14.9,30.37,NW,317,3.0,11.0,40,0.00,,---,0.00,VWS V14.00,2013-01-21 19:57:00,
2013-01-21 13:58:00,36.9,14.3,30.37,NW,318,9.0,10.0,39,0.00,,---,0.00,VWS V14.00,2013-01-21 19:58:00,
2013-01-21 13:59:00,36.9,14.3,30.37,NW,320,7.0,9.0,39,0.00,,---,0.00,VWS V14.00,2013-01-21 19:59:00,
2013-01-21 14:00:00,36.9,14.9,30.37,NW,317,2.0,11.0,40,0.00,,---,0.00,VWS V14.00,2013-01-21 20:00:00,
2013-01-21 14:01:00,36.9,14.3,30.37,NW,317,6.0,7.0,39,0.00,,---,0.00,VWS V14.00,2013-01-21 20:01:00,
2013-01-21 14:02:00,36.9,14.3,30.38,NW,314,5.0,9.0,39,0.00,,---,0.00,VWS V14.00,2013-01-21 20:02:00,
2013-01-21 14:03:00,36.9,14.3,30.38,NW,314,6.0,7.0,39,0.00,,---,0.00,VWS V14.00,2013-01-21 20:03:00,
2013-01-21 14:04:00,36.9,14.3,30.38,NW,314,6.0,9.0,39,0.00,,---,0.00,VWS V14.00,2013-01-21 20:04:00,
2013-01-21 14:05:00,36.9,14.3,30.38,NW,314,3.0,9.0,39,0.00,,---,0.00,VWS V14.00,2013-01-21 20:05:00,
2013-01-21 14:06:00,36.9,14.3,30.38,NW,314,3.0,6.0,39,0.00,,---,0.00,VWS V14.00,2013-01-21 20:06:00,
2013-01-21 14:07:00,37.0,13.8,30.38,NW,313,5.0,7.0,38,0.00,,---,0.00,VWS V14.00,2013-01-21 20:07:00,
2013-01-21 14:08:00,36.9,13.7,30.38,NW,314,4.0,6.0,38,0.00,,---,0.00,VWS V14.00,2013-01-21 20:08:00,
2013-01-21 14:09:00,36.9,13.7,30.38,NW,313,5.0,10.0,38,0.00,,---,0.00,VWS V14.00,2013-01-21 20:09:00,
2013-01-21 14:10:00,37.0,13.8,30.38,NW,313,6.0,7.0,38,0.00,,---,0.00,VWS V14.00,2013-01-21 20:10:00,
2013-01-21 14:11:00,37.0,14.4,30.37,NW,313,7.0,10.0,39,0.00,,---,0.00,VWS V14.00,2013-01-21 20:11:00,
2013-01-21 14:12:00,37.0,13.8,30.38,NW,313,5.0,6.0,38,0.00,,---,0.00,VWS V14.00,2013-01-21 20:12:00,
2013-01-21 14:13:00,37.0,13.8,30.38,NW,313,5.0,6.0,38,0.00,,---,0.00,VWS V14.00,2013-01-21 20:13:00,
2013-01-21 14:14:00,37.0,13.8,30.38,NW,313,6.0,7.0,38,0.00,,---,0.00,VWS V14.00,2013-01-21 20:14:00,
2013-01-21 14:15:00,37.0,13.8,30.38,NW,313,8.0,8.0,38,0.00,,---,0.00,VWS V14.00,2013-01-21 20:15:00,
2013-01-21 14:16:00,37.0,13.8,30.38,NW,313,5.0,8.0,38,0.00,,---,0.00,VWS V14.00,2013-01-21 20:16:00,
2013-01-21 14:17:00,37.0,13.8,30.38,NW,313,5.0,5.0,38,0.00,,---,0.00,VWS V14.00,2013-01-21 20:17:00,
2013-01-21 14:18:00,37.0,13.8,30.38,NW,313,7.0,9.0,38,0.00,,---,0.00,VWS V14.00,2013-01-21 20:18:00,
2013-01-21 14:19:00,37.0,13.8,30.38,NW,313,0.0,7.0,38,0.00,,---,0.00,VWS V14.00,2013-01-21 20:19:00,
2013-01-21 14:20:00,37.0,14.4,30.38,NW,313,9.0,9.0,39,0.00,,---,0.00,VWS V14.00,2013-01-21 20:20:00,
2013-01-21 14:21:00,37.2,15.1,30.38,NW,313,4.0,9.0,40,0.00,,---,0.00,VWS V14.00,2013-01-21 20:21:00,
2013-01-21 14:22:00,37.2,13.9,30.37,NW,313,4.0,7.0,38,0.00,,---,0.00,VWS V14.00,2013-01-21 20:22:00,
2013-01-21 14:23:00,37.2,13.9,30.38,NW,313,0.0,4.0,38,0.00,,---,0.00,VWS V14.00,2013-01-21 20:23:00,
2013-01-21 14:24:00,37.2,13.9,30.37,NW,313,2.0,4.0,38,0.00,,---,0.00,VWS V14.00,2013-01-21 20:24:00,
2013-01-21 14:25:00,37.2,13.9,30.37,NW,313,6.0,7.0,38,0.00,,---,0.00,VWS V14.00,2013-01-21 20:25:00,
2013-01-21 14:26:00,37.3,14.0,30.37,NW,313,4.0,5.0,38,0.00,,---,0.00,VWS V14.00,2013-01-21 20:26:00,
2013-01-21 14:27:00,37.3,14.0,30.38,NW,313,4.0,6.0,38,0.00,,---,0.00,VWS V14.00,2013-01-21 20:27:00,
2013-01-21 14:28:00,37.3,14.0,30.37,NW,313,10.0,10.0,38,0.00,,---,0.00,VWS V14.00,2013-01-21 20:28:00,
2013-01-21 14:29:00,37.3,14.0,30.37,NW,313,4.0,10.0,38,0.00,,---,0.00,VWS V14.00,2013-01-21 20:29:00,
2013-01-21 14:30:00,37.3,14.0,30.38,NW,313,3.0,6.0,38,0.00,,---,0.00,VWS V14.00,2013-01-21 20:30:00,
2013-01-21 14:31:00,37.3,14.0,30.38,NW,313,3.0,6.0,38,0.00,,---,0.00,VWS V14.00,2013-01-21 20:31:00,
2013-01-21 14:32:00,37.5,14.8,30.37,NW,313,4.0,7.0,39,0.00,,---,0.00,VWS V14.00,2013-01-21 20:32:00,
2013-01-21 14:33:00,37.5,14.8,30.37,NW,313,4.0,5.0,39,0.00,,---,0.00,VWS V14.00,2013-01-21 20:33:00,
2013-01-21 14:34:00,37.5,14.2,30.37,NW,313,7.0,9.0,38,0.00,,---,0.00,VWS V14.00,2013-01-21 20:34:00,
2013-01-21 14:35:00,37.5,14.8,30.37,NW,313,6.0,7.0,39,0.00,,---,0.00,VWS V14.00,2013-01-21 20:35:00,
2013-01-21 14:36:00,37.5,14.8,30.37,NW,313,4.0,9.0,39,0.00,,---,0.00,VWS V14.00,2013-01-21 20:36:00,
2013-01-21 14:37:00,37.5,14.2,30.38,NW,313,7.0,7.0,38,0.00,,---,0.00,VWS V14.00,2013-01-21 20:37:00,
2013-01-21 14:38:00,37.5,14.2,30.38,NW,313,6.0,7.0,38,0.00,,---,0.00,VWS V14.00,2013-01-21 20:38:00,
2013-01-21 14:39:00,37.5,14.2,30.38,NW,313,5.0,7.0,38,0.00,,---,0.00,VWS V14.00,2013-01-21 20:39:00,
2013-01-21 14:40:00,37.5,14.2,30.38,NW,313,6.0,7.0,38,0.00,,---,0.00,VWS V14.00,2013-01-21 20:40:00,
2013-01-21 14:41:00,37.5,14.2,30.38,NW,313,4.0,6.0,38,0.00,,---,0.00,VWS V14.00,2013-01-21 20:41:00,
2013-01-21 14:42:00,37.5,14.8,30.38,NW,315,7.0,8.0,39,0.00,,---,0.00,VWS V14.00,2013-01-21 20:42:00,
2013-01-21 14:43:00,37.5,14.2,30.38,NW,315,8.0,10.0,38,0.00,,---,0.00,VWS V14.00,2013-01-21 20:43:00,
2013-01-21 14:44:00,37.5,14.8,30.38,NW,315,5.0,8.0,39,0.00,,---,0.00,VWS V14.00,2013-01-21 20:44:00,
2013-01-21 14:45:00,37.5,14.8,30.38,NW,321,6.0,12.0,39,0.00,,---,0.00,VWS V14.00,2013-01-21 20:45:00,
2013-01-21 14:46:00,37.5,14.2,30.38,NW,321,0.0,6.0,38,0.00,,---,0.00,VWS V14.00,2013-01-21 20:46:00,
2013-01-21 14:47:00,37.6,14.3,30.38,NW,324,9.0,13.0,38,0.00,,---,0.00,VWS V14.00,2013-01-21 20:47:00,
2013-01-21 14:48:00,37.5,14.2,30.38,NW,321,4.0,4.0,38,0.00,,---,0.00,VWS V14.00,2013-01-21 20:48:00,
2013-01-21 14:49:00,37.5,14.2,30.38,NW,321,6.0,6.0,38,0.00,,---,0.00,VWS V14.00,2013-01-21 20:49:00,
2013-01-21 14:50:00,37.6,14.3,30.38,NW,324,10.0,13.0,38,0.00,,---,0.00,VWS V14.00,2013-01-21 20:50:00,
2013-01-21 14:51:00,37.6,14.3,30.38,NW,324,9.0,10.0,38,0.00,,---,0.00,VWS V14.00,2013-01-21 20:51:00,
2013-01-21 14:52:00,37.8,14.5,30.38,NW,326,2.0,3.0,38,0.00,,---,0.00,VWS V14.00,2013-01-21 20:52:00,
2013-01-21 14:53:00,37.6,14.3,30.38,NW,326,7.0,7.0,38,0.00,,---,0.00,VWS V14.00,2013-01-21 20:53:00,
2013-01-21 14:54:00,37.8,14.5,30.38,NW,326,3.0,7.0,38,0.00,,---,0.00,VWS V14.00,2013-01-21 20:54:00,
2013-01-21 14:55:00,37.8,14.5,30.38,NW,326,1.0,3.0,38,0.00,,---,0.00,VWS V14.00,2013-01-21 20:55:00,
2013-01-21 14:56:00,37.8,14.5,30.37,NW,326,6.0,6.0,38,0.00,,---,0.00,VWS V14.00,2013-01-21 20:56:00,
2013-01-21 14:57:00,38.0,14.7,30.37,NNW,327,7.0,9.0,38,0.00,,---,0.00,VWS V14.00,2013-01-21 20:57:00,
2013-01-21 14:58:00,37.9,15.8,30.37,NW,326,9.0,11.0,40,0.00,,---,0.00,VWS V14.00,2013-01-21 20:58:00,
2013-01-21 14:59:00,38.0,15.3,30.37,NW,326,7.0,10.0,39,0.00,,---,0.00,VWS V14.00,2013-01-21 20:59:00,
2013-01-21 15:00:00,38.0,14.7,30.37,NNW,327,8.0,9.0,38,0.00,,---,0.00,VWS V14.00,2013-01-21 21:00:00,
2013-01-21 15:01:00,38.0,14.7,30.37,NNW,327,7.0,10.0,38,0.00,,---,0.00,VWS V14.00,2013-01-21 21:01:00,
2013-01-21 15:02:00,38.0,14.7,30.37,NW,321,5.0,10.0,38,0.00,,---,0.00,VWS V14.00,2013-01-21 21:02:00,
2013-01-21 15:03:00,38.0,15.3,30.37,NW,315,3.0,10.0,39,0.00,,---,0.00,VWS V14.00,2013-01-21 21:03:00,
2013-01-21 15:04:00,38.0,14.7,30.37,NW,321,9.0,11.0,38,0.00,,---,0.00,VWS V14.00,2013-01-21 21:04:00,
2013-01-21 15:05:00,38.0,14.7,30.37,NW,321,6.0,10.0,38,0.00,,---,0.00,VWS V14.00,2013-01-21 21:05:00,
2013-01-21 15:06:00,38.0,14.7,30.37,NW,321,4.0,7.0,38,0.00,,---,0.00,VWS V14.00,2013-01-21 21:06:00,
2013-01-21 15:07:00,38.0,15.3,30.37,NW,322,6.0,11.0,39,0.00,,---,0.00,VWS V14.00,2013-01-21 21:07:00,
2013-01-21 15:08:00,38.0,14.7,30.37,NW,321,7.0,8.0,38,0.00,,---,0.00,VWS V14.00,2013-01-21 21:08:00,
2013-01-21 15:09:00,38.0,14.7,30.37,NW,321,5.0,10.0,38,0.00,,---,0.00,VWS V14.00,2013-01-21 21:09:00,
2013-01-21 15:10:00,38.0,15.3,30.37,NW,323,9.0,11.0,39,0.00,,---,0.00,VWS V14.00,2013-01-21 21:10:00,
2013-01-21 15:11:00,38.0,14.7,30.37,NW,321,9.0,9.0,38,0.00,,---,0.00,VWS V14.00,2013-01-21 21:11:00,
2013-01-21 15:12:00,38.2,15.4,30.37,NW,317,7.0,11.0,39,0.00,,---,0.00,VWS V14.00,2013-01-21 21:12:00,
2013-01-21 15:13:00,38.0,14.7,30.37,NW,320,6.0,11.0,38,0.00,,---,0.00,VWS V14.00,2013-01-21 21:13:00,
2013-01-21 15:14:00,38.0,15.3,30.37,NW,317,3.0,9.0,39,0.00,,---,0.00,VWS V14.00,2013-01-21 21:14:00,
2013-01-21 15:15:00,38.2,14.8,30.37,NW,318,6.0,11.0,38,0.00,,---,0.00,VWS V14.00,2013-01-21 21:15:00,
2013-01-21 15:16:00,38.2,15.4,30.37,NW,320,7.0,10.0,39,0.00,,---,0.00,VWS V14.00,2013-01-21 21:16:00,
2013-01-21 15:17:00,38.2,15.4,30.37,NW,318,9.0,11.0,39,0.00,,---,0.00,VWS V14.00,2013-01-21 21:17:00,
2013-01-21 15:18:00,38.2,14.8,30.37,NW,321,7.0,10.0,38,0.00,,---,0.00,VWS V14.00,2013-01-21 21:18:00,
2013-01-21 15:19:00,38.2,15.4,30.37,NW,321,10.0,12.0,39,0.00,,---,0.00,VWS V14.00,2013-01-21 21:19:00,
2013-01-21 15:20:00,38.2,14.8,30.37,NW,318,7.0,11.0,38,0.00,,---,0.00,VWS V14.00,2013-01-21 21:20:00,
2013-01-21 15:21:00,38.2,14.8,30.37,NW,317,7.0,11.0,38,0.00,,---,0.00,VWS V14.00,2013-01-21 21:21:00,
2013-01-21 15:22:00,38.3,15.5,30.37,NNW,331,6.0,12.0,39,0.00,,---,0.00,VWS V14.00,2013-01-21 21:22:00,
2013-01-21 15:23:00,38.2,14.8,30.37,NW,317,8.0,9.0,38,0.00,,---,0.00,VWS V14.00,2013-01-21 21:23:00,
2013-01-21 15:24:00,38.3,15.5,30.37,NW,321,12.0,12.0,39,0.00,,---,0.00,VWS V14.00,2013-01-21 21:24:00,
2013-01-21 15:25:00,38.3,15.5,30.37,NNW,331,5.0,12.0,39,0.00,,---,0.00,VWS V14.00,2013-01-21 21:25:00,
2013-01-21 15:26:00,38.3,15.5,30.37,NNW,331,7.0,10.0,39,0.00,,---,0.00,VWS V14.00,2013-01-21 21:26:00,
2013-01-21 15:27:00,38.2,14.8,30.37,NW,308,9.0,10.0,38,0.00,,---,0.00,VWS V14.00,2013-01-21 21:27:00,
2013-01-21 15:28:00,38.3,14.9,30.37,NW,305,12.0,12.0,38,0.00,,---,0.00,VWS V14.00,2013-01-21 21:28:00,
2013-01-21 15:29:00,38.2,14.2,30.37,NW,308,6.0,12.0,37,0.00,,---,0.00,VWS V14.00,2013-01-21 21:29:00,
2013-01-21 15:30:00,38.2,14.8,30.37,NW,307,10.0,10.0,38,0.00,,---,0.00,VWS V14.00,2013-01-21 21:30:00,
2013-01-21 15:31:00,38.2,14.2,30.37,NW,308,9.0,10.0,37,0.00,,---,0.00,VWS V14.00,2013-01-21 21:31:00,
2013-01-21 15:32:00,38.0,14.7,30.37,NW,308,6.0,7.0,38,0.00,,---,0.00,VWS V14.00,2013-01-21 21:32:00,
2013-01-21 15:33:00,38.2,14.2,30.37,NW,308,6.0,10.0,37,0.00,,---,0.00,VWS V14.00,2013-01-21 21:33:00,
2013-01-21 15:34:00,38.2,14.8,30.37,NW,308,7.0,10.0,38,0.00,,---,0.00,VWS V14.00,2013-01-21 21:34:00,
2013-01-21 15:35:00,38.0,14.7,30.37,NW,308,4.0,7.0,38,0.00,,---,0.00,VWS V14.00,2013-01-21 21:35:00,
2013-01-21 15:36:00,38.2,14.8,30.37,NW,312,9.0,12.0,38,0.00,,---,0.00,VWS V14.00,2013-01-21 21:36:00,
2013-01-21 15:37:00,38.2,14.8,30.37,NW,311,3.0,8.0,38,0.00,,---,0.00,VWS V14.00,2013-01-21 21:37:00,
2013-01-21 15:38:00,38.2,14.8,30.37,NW,313,6.0,9.0,38,0.00,,---,0.00,VWS V14.00,2013-01-21 21:38:00,
2013-01-21 15:39:00,38.2,14.8,30.37,NW,311,8.0,9.0,38,0.00,,---,0.00,VWS V14.00,2013-01-21 21:39:00,
2013-01-21 15:40:00,38.2,14.8,30.37,NW,311,7.0,8.0,38,0.00,,---,0.00,VWS V14.00,2013-01-21 21:40:00,
2013-01-21 15:41:00,38.2,14.8,30.37,NW,311,9.0,10.0,38,0.00,,---,0.00,VWS V14.00,2013-01-21 21:41:00,
2013-01-21 15:42:00,38.3,14.9,30.38,NW,313,6.0,11.0,38,0.00,,---,0.00,VWS V14.00,2013-01-21 21:42:00,
2013-01-21 15:43:00,38.2,14.8,30.37,NW,312,3.0,7.0,38,0.00,,---,0.00,VWS V14.00,2013-01-21 21:43:00,
2013-01-21 15:44:00,38.3,15.5,30.38,NW,313,7.0,10.0,39,0.00,,---,0.00,VWS V14.00,2013-01-21 21:44:00,
2013-01-21 15:45:00,38.3,14.9,30.38,NW,312,9.0,11.0,38,0.00,,---,0.00,VWS V14.00,2013-01-21 21:45:00,
2013-01-21 15:46:00,38.2,14.8,30.38,NW,312,4.0,10.0,38,0.00,,---,0.00,VWS V14.00,2013-01-21 21:46:00,
2013-01-21 15:47:00,38.2,14.8,30.39,NW,313,7.0,7.0,38,0.00,,---,0.00,VWS V14.00,2013-01-21 21:47:00,
2013-01-21 15:48:00,38.2,14.8,30.38,NW,312,6.0,6.0,38,0.00,,---,0.00,VWS V14.00,2013-01-21 21:48:00,
2013-01-21 15:49:00,38.2,14.8,30.38,NW,313,5.0,10.0,38,0.00,,---,0.00,VWS V14.00,2013-01-21 21:49:00,
2013-01-21 15:50:00,38.2,14.8,30.39,NW,315,7.0,9.0,38,0.00,,---,0.00,VWS V14.00,2013-01-21 21:50:00,
2013-01-21 15:51:00,38.2,14.8,30.39,NW,315,4.0,8.0,38,0.00,,---,0.00,VWS V14.00,2013-01-21 21:51:00,
2013-01-21 15:52:00,38.2,14.8,30.39,NW,315,6.0,7.0,38,0.00,,---,0.00,VWS V14.00,2013-01-21 21:52:00,
2013-01-21 15:53:00,38.2,15.4,30.39,NW,315,4.0,8.0,39,0.00,,---,0.00,VWS V14.00,2013-01-21 21:53:00,
2013-01-21 15:54:00,38.2,14.8,30.39,NW,315,6.0,7.0,38,0.00,,---,0.00,VWS V14.00,2013-01-21 21:54:00,
2013-01-21 15:55:00,38.2,14.8,30.39,NW,315,4.0,7.0,38,0.00,,---,0.00,VWS V14.00,2013-01-21 21:55:00,
2013-01-21 15:56:00,38.2,14.8,30.39,NW,315,3.0,7.0,38,0.00,,---,0.00,VWS V14.00,2013-01-21 21:56:00,
2013-01-21 15:57:00,38.2,16.0,30.38,NW,316,9.0,9.0,40,0.00,,---,0.00,VWS V14.00,2013-01-21 21:57:00,
2013-01-21 15:58:00,38.2,14.8,30.39,NW,316,7.0,9.0,38,0.00,,---,0.00,VWS V14.00,2013-01-21 21:58:00,
2013-01-21 15:59:00,38.2,15.4,30.38,NW,316,6.0,7.0,39,0.00,,---,0.00,VWS V14.00,2013-01-21 21:59:00,
2013-01-21 16:00:00,38.2,15.4,30.38,NW,317,8.0,10.0,39,0.00,,---,0.00,VWS V14.00,2013-01-21 22:00:00,
2013-01-21 16:01:00,38.2,15.4,30.38,NW,317,7.0,9.0,39,0.00,,---,0.00,VWS V14.00,2013-01-21 22:01:00,
2013-01-21 16:02:00,38.2,14.8,30.38,NW,317,4.0,7.0,38,0.00,,---,0.00,VWS V14.00,2013-01-21 22:02:00,
2013-01-21 16:03:00,38.2,14.8,30.38,NW,317,5.0,7.0,38,0.00,,---,0.00,VWS V14.00,2013-01-21 22:03:00,
2013-01-21 16:04:00,38.2,14.8,30.38,NW,317,7.0,7.0,38,0.00,,---,0.00,VWS V14.00,2013-01-21 22:04:00,
2013-01-21 16:05:00,38.0,14.7,30.38,NW,317,3.0,7.0,38,0.00,,---,0.00,VWS V14.00,2013-01-21 22:05:00,
2013-01-21 16:06:00,38.0,14.7,30.38,NW,317,3.0,5.0,38,0.00,,---,0.00,VWS V14.00,2013-01-21 22:06:00,
2013-01-21 16:07:00,38.0,15.3,30.37,NW,317,6.0,7.0,39,0.00,,---,0.00,VWS V14.00,2013-01-21 22:07:00,
2013-01-21 16:08:00,38.0,15.3,30.37,NW,317,0.0,2.0,39,0.00,,---,0.00,VWS V14.00,2013-01-21 22:08:00,
2013-01-21 16:09:00,38.0,14.7,30.37,NW,317,2.0,2.0,38,0.00,,---,0.00,VWS V14.00,2013-01-21 22:09:00,
2013-01-21 16:10:00,38.0,15.3,30.37,NW,317,6.0,7.0,39,0.00,,---,0.00,VWS V14.00,2013-01-21 22:10:00,
2013-01-21 16:11:00,38.0,14.7,30.37,NW,317,6.0,6.0,38,0.00,,---,0.00,VWS V14.00,2013-01-21 22:11:00,
2013-01-21 16:12:00,38.0,15.3,30.37,NW,317,6.0,6.0,39,0.00,,---,0.00,VWS V14.00,2013-01-21 22:12:00,
2013-01-21 16:13:00,38.0,14.7,30.37,NW,317,1.0,4.0,38,0.00,,---,0.00,VWS V14.00,2013-01-21 22:13:00,
2013-01-21 16:14:00,38.0,15.3,30.37,NW,317,2.0,4.0,39,0.00,,---,0.00,VWS V14.00,2013-01-21 22:14:00,
2013-01-21 16:15:00,38.0,15.3,30.37,NW,317,5.0,6.0,39,0.00,,---,0.00,VWS V14.00,2013-01-21 22:15:00,
2013-01-21 16:16:00,38.2,15.4,30.37,NW,317,4.0,5.0,39,0.00,,---,0.00,VWS V14.00,2013-01-21 22:16:00,
2013-01-21 16:17:00,38.2,16.0,30.37,NW,317,0.0,7.0,40,0.00,,---,0.00,VWS V14.00,2013-01-21 22:17:00,
2013-01-21 16:18:00,38.2,15.4,30.37,NW,317,5.0,10.0,39,0.00,,---,0.00,VWS V14.00,2013-01-21 22:18:00,
2013-01-21 16:19:00,38.2,16.0,30.37,NW,317,6.0,7.0,40,0.00,,---,0.00,VWS V14.00,2013-01-21 22:19:00,
2013-01-21 16:20:00,38.2,16.0,30.37,NW,317,3.0,7.0,40,0.00,,---,0.00,VWS V14.00,2013-01-21 22:20:00,
2013-01-21 16:21:00,38.2,16.0,30.37,NW,317,1.0,7.0,40,0.00,,---,0.00,VWS V14.00,2013-01-21 22:21:00,
2013-01-21 16:22:00,38.2,14.8,30.37,NW,318,8.0,9.0,38,0.00,,---,0.00,VWS V14.00,2013-01-21 22:22:00,
2013-01-21 16:23:00,38.2,15.4,30.37,NW,317,7.0,7.0,39,0.00,,---,0.00,VWS V14.00,2013-01-21 22:23:00,
2013-01-21 16:24:00,38.2,14.8,30.37,NW,317,4.0,7.0,38,0.00,,---,0.00,VWS V14.00,2013-01-21 22:24:00,
2013-01-21 16:25:00,38.2,15.4,30.37,NW,318,5.0,9.0,39,0.00,,---,0.00,VWS V14.00,2013-01-21 22:25:00,
2013-01-21 16:26:00,38.2,15.4,30.37,NW,318,6.0,10.0,39,0.00,,---,0.00,VWS V14.00,2013-01-21 22:26:00,
2013-01-21 16:27:00,38.2,15.4,30.37,NW,318,4.0,7.0,39,0.00,,---,0.00,VWS V14.00,2013-01-21 22:27:00,
2013-01-21 16:28:00,38.2,14.8,30.37,NW,318,2.0,5.0,38,0.00,,---,0.00,VWS V14.00,2013-01-21 22:28:00,
2013-01-21 16:29:00,38.2,15.4,30.37,NW,318,4.0,6.0,39,0.00,,---,0.00,VWS V14.00,2013-01-21 22:29:00,
2013-01-21 16:30:00,38.2,15.4,30.37,NW,318,2.0,7.0,39,0.00,,---,0.00,VWS V14.00,2013-01-21 22:30:00,
2013-01-21 16:31:00,38.2,15.4,30.37,NW,318,7.0,7.0,39,0.00,,---,0.00,VWS V14.00,2013-01-21 22:31:00,
2013-01-21 16:32:00,38.2,15.4,30.37,NW,319,4.0,5.0,39,0.00,,---,0.00,VWS V14.00,2013-01-21 22:32:00,
2013-01-21 16:33:00,38.2,15.4,30.37,NW,319,4.0,7.0,39,0.00,,---,0.00,VWS V14.00,2013-01-21 22:33:00,
2013-01-21 16:34:00,38.2,14.8,30.37,NW,319,4.0,7.0,38,0.00,,---,0.00,VWS V14.00,2013-01-21 22:34:00,
2013-01-21 16:35:00,38.2,15.4,30.37,NW,319,6.0,6.0,39,0.00,,---,0.00,VWS V14.00,2013-01-21 22:35:00,
2013-01-21 16:36:00,38.2,15.4,30.37,NW,319,6.0,7.0,39,0.00,,---,0.00,VWS V14.00,2013-01-21 22:36:00,
2013-01-21 16:37:00,38.0,15.8,30.37,NW,319,2.0,4.0,40,0.00,,---,0.00,VWS V14.00,2013-01-21 22:37:00,
2013-01-21 16:38:00,38.0,15.8,30.37,NW,319,4.0,9.0,40,0.00,,---,0.00,VWS V14.00,2013-01-21 22:38:00,
2013-01-21 16:39:00,38.0,15.8,30.37,NW,319,4.0,4.0,40,0.00,,---,0.00,VWS V14.00,2013-01-21 22:39:00,
2013-01-21 16:40:00,38.0,15.8,30.37,NW,319,5.0,5.0,40,0.00,,---,0.00,VWS V14.00,2013-01-21 22:40:00,
2013-01-21 16:41:00,38.0,15.3,30.37,NW,319,5.0,9.0,39,0.00,,---,0.00,VWS V14.00,2013-01-21 22:41:00,
2013-01-21 16:42:00,37.9,15.2,30.37,NW,320,5.0,9.0,39,0.00,,---,0.00,VWS V14.00,2013-01-21 22:42:00,
2013-01-21 16:43:00,37.9,15.2,30.37,NW,320,5.0,6.0,39,0.00,,---,0.00,VWS V14.00,2013-01-21 22:43:00,
2013-01-21 16:44:00,37.9,15.2,30.37,NW,320,9.0,11.0,39,0.00,,---,0.00,VWS V14.00,2013-01-21 22:44:00,
2013-01-21 16:45:00,37.9,15.2,30.37,NW,321,5.0,9.0,39,0.00,,---,0.00,VWS V14.00,2013-01-21 22:45:00,
2013-01-21 16:46:00,37.9,15.8,30.37,NW,321,6.0,7.0,40,0.00,,---,0.00,VWS V14.00,2013-01-21 22:46:00,
2013-01-21 16:47:00,37.8,15.1,30.37,NNW,327,1.0,6.0,39,0.00,,---,0.00,VWS V14.00,2013-01-21 22:47:00,
2013-01-21 16:48:00,37.8,15.1,30.37,NW,321,5.0,6.0,39,0.00,,---,0.00,VWS V14.00,2013-01-21 22:48:00,
2013-01-21 16:49:00,37.8,15.1,30.37,NNW,327,4.0,8.0,39,0.00,,---,0.00,VWS V14.00,2013-01-21 22:49:00,
2013-01-21 16:50:00,37.8,15.1,30.37,NNW,327,3.0,6.0,39,0.00,,---,0.00,VWS V14.00,2013-01-21 22:50:00,
2013-01-21 16:51:00,37.8,15.1,30.37,NNW,328,0.0,7.0,39,0.00,,---,0.00,VWS V14.00,2013-01-21 22:51:00,
2013-01-21 16:52:00,37.6,15.5,30.37,NNW,328,3.0,4.0,40,0.00,,---,0.00,VWS V14.00,2013-01-21 22:52:00,
2013-01-21 16:53:00,37.6,14.9,30.37,NNW,328,0.0,3.0,39,0.00,,---,0.00,VWS V14.00,2013-01-21 22:53:00,
2013-01-21 16:54:00,37.6,14.9,30.37,NNW,328,4.0,5.0,39,0.00,,---,0.00,VWS V14.00,2013-01-21 22:54:00,
2013-01-21 16:55:00,37.6,15.5,30.37,NNW,329,9.0,9.0,40,0.00,,---,0.00,VWS V14.00,2013-01-21 22:55:00,
2013-01-21 16:56:00,37.6,14.9,30.37,NNW,329,1.0,9.0,39,0.00,,---,0.00,VWS V14.00,2013-01-21 22:56:00,
2013-01-21 16:57:00,37.5,14.8,30.37,NNW,330,4.0,5.0,39,0.00,,---,0.00,VWS V14.00,2013-01-21 22:57:00,
2013-01-21 16:58:00,37.5,15.4,30.37,NNW,330,5.0,8.0,40,0.00,,---,0.00,VWS V14.00,2013-01-21 22:58:00,
2013-01-21 16:59:00,37.5,14.8,30.37,NNW,330,5.0,5.0,39,0.00,,---,0.00,VWS V14.00,2013-01-21 22:59:00,
2013-01-21 17:00:00,37.3,14.6,30.37,NNW,330,3.0,5.0,39,0.00,,---,0.00,VWS V14.00,2013-01-21 23:00:00,
2013-01-21 17:01:00,37.3,14.6,30.37,NNW,330,2.0,5.0,39,0.00,,---,0.00,VWS V14.00,2013-01-21 23:01:00,
2013-01-21 17:02:00,37.3,15.2,30.37,NNW,330,4.0,7.0,40,0.00,,---,0.00,VWS V14.00,2013-01-21 23:02:00,
2013-01-21 17:03:00,37.3,15.2,30.37,NNW,330,2.0,6.0,40,0.00,,---,0.00,VWS V14.00,2013-01-21 23:03:00,
2013-01-21 17:04:00,37.3,15.2,30.37,NNW,330,7.0,7.0,40,0.00,,---,0.00,VWS V14.00,2013-01-21 23:04:00,
2013-01-21 17:05:00,37.3,15.2,30.37,NNW,330,6.0,7.0,40,0.00,,---,0.00,VWS V14.00,2013-01-21 23:05:00,
2013-01-21 17:06:00,37.2,15.1,30.37,NNW,330,9.0,9.0,40,0.00,,---,0.00,VWS V14.00,2013-01-21 23:06:00,
2013-01-21 17:07:00,37.2,15.7,30.37,NNW,331,2.0,5.0,41,0.00,,---,0.00,VWS V14.00,2013-01-21 23:07:00,
2013-01-21 17:08:00,37.2,15.1,30.37,NNW,331,3.0,10.0,40,0.00,,---,0.00,VWS V14.00,2013-01-21 23:08:00,
2013-01-21 17:09:00,37.2,15.1,30.37,NNW,331,5.0,5.0,40,0.00,,---,0.00,VWS V14.00,2013-01-21 23:09:00,
2013-01-21 17:10:00,37.2,15.1,30.37,NNW,331,0.0,5.0,40,0.00,,---,0.00,VWS V14.00,2013-01-21 23:10:00,
2013-01-21 17:11:00,37.2,15.7,30.37,NNW,331,10.0,10.0,41,0.00,,---,0.00,VWS V14.00,2013-01-21 23:11:00,
2013-01-21 17:12:00,37.0,14.9,30.37,NNW,333,2.0,6.0,40,0.00,,---,0.00,VWS V14.00,2013-01-21 23:12:00,
2013-01-21 17:13:00,37.0,15.5,30.37,NNW,333,6.0,11.0,41,0.00,,---,0.00,VWS V14.00,2013-01-21 23:13:00,
2013-01-21 17:14:00,37.0,14.9,30.37,NNW,333,6.0,10.0,40,0.00,,---,0.00,VWS V14.00,2013-01-21 23:14:00,
2013-01-21 17:15:00,36.9,14.9,30.37,NNW,333,0.0,6.0,40,0.00,,---,0.00,VWS V14.00,2013-01-21 23:15:00,
2013-01-21 17:16:00,36.9,15.4,30.37,NNW,333,1.0,4.0,41,0.00,,---,0.00,VWS V14.00,2013-01-21 23:16:00,
2013-01-21 17:17:00,36.8,15.3,30.36,NNW,333,2.0,5.0,41,0.00,,---,0.00,VWS V14.00,2013-01-21 23:17:00,
2013-01-21 17:18:00,36.9,15.4,30.36,NNW,333,3.0,6.0,41,0.00,,---,0.00,VWS V14.00,2013-01-21 23:18:00,
2013-01-21 17:19:00,36.8,15.3,30.36,NNW,333,2.0,3.0,41,0.00,,---,0.00,VWS V14.00,2013-01-21 23:19:00,
2013-01-21 17:20:00,36.8,15.3,30.36,NNW,333,2.0,5.0,41,0.00,,---,0.00,VWS V14.00,2013-01-21 23:20:00,
2013-01-21 17:21:00,36.8,15.9,30.36,NNW,333,0.0,4.0,42,0.00,,---,0.00,VWS V14.00,2013-01-21 23:21:00,
2013-01-21 17:22:00,36.6,15.1,30.36,NNW,333,5.0,5.0,41,0.00,,---,0.00,VWS V14.00,2013-01-21 23:22:00,
2013-01-21 17:23:00,36.6,15.1,30.36,NNW,333,5.0,6.0,41,0.00,,---,0.00,VWS V14.00,2013-01-21 23:23:00,
2013-01-21 17:24:00,36.6,15.1,30.36,NNW,333,5.0,9.0,41,0.00,,---,0.00,VWS V14.00,2013-01-21 23:24:00,
2013-01-21 17:25:00,36.6,15.1,30.36,NNW,333,4.0,5.0,41,0.00,,---,0.00,VWS V14.00,2013-01-21 23:25:00,
2013-01-21 17:26:00,36.5,15.1,30.36,NNW,333,2.0,4.0,41,0.00,,---,0.00,VWS V14.00,2013-01-21 23:26:00,
2013-01-21 17:27:00,36.3,15.4,30.36,NNW,333,4.0,4.0,42,0.00,,---,0.00,VWS V14.00,2013-01-21 23:27:00,
2013-01-21 17:28:00,36.5,16.1,30.36,NNW,333,1.0,4.0,43,0.00,,---,0.00,VWS V14.00,2013-01-21 23:28:00,
2013-01-21 17:29:00,36.3,15.4,30.36,NNW,333,0.0,5.0,42,0.00,,---,0.00,VWS V14.00,2013-01-21 23:29:00,
2013-01-21 17:30:00,36.3,15.4,30.36,NNW,333,6.0,9.0,42,0.00,,---,0.00,VWS V14.00,2013-01-21 23:30:00,
2013-01-21 17:31:00,36.3,15.4,30.36,NNW,333,6.0,9.0,42,0.00,,---,0.00,VWS V14.00,2013-01-21 23:31:00,
2013-01-21 17:32:00,36.2,15.3,30.36,NNW,333,6.0,6.0,42,0.00,,---,0.00,VWS V14.00,2013-01-21 23:32:00,
2013-01-21 17:33:00,36.2,15.3,30.36,NNW,333,0.0,5.0,42,0.00,,---,0.00,VWS V14.00,2013-01-21 23:33:00,
2013-01-21 17:34:00,36.2,15.3,30.36,NNW,333,3.0,3.0,42,0.00,,---,0.00,VWS V14.00,2013-01-21 23:34:00,
2013-01-21 17:35:00,36.0,15.1,30.36,NNW,333,2.0,6.0,42,0.00,,---,0.00,VWS V14.00,2013-01-21 23:35:00,
2013-01-21 17:36:00,36.0,15.7,30.36,NNW,333,4.0,4.0,43,0.00,,---,0.00,VWS V14.00,2013-01-21 23:36:00,
2013-01-21 17:37:00,35.9,15.6,30.36,NNW,333,3.0,6.0,43,0.00,,---,0.00,VWS V14.00,2013-01-21 23:37:00,
2013-01-21 17:38:00,35.9,15.6,30.36,NNW,333,4.0,5.0,43,0.00,,---,0.00,VWS V14.00,2013-01-21 23:38:00,
2013-01-21 17:39:00,35.9,15.6,30.36,NNW,333,2.0,4.0,43,0.00,,---,0.00,VWS V14.00,2013-01-21 23:39:00,
2013-01-21 17:40:00,35.9,15.6,30.36,NNW,333,3.0,6.0,43,0.00,,---,0.00,VWS V14.00,2013-01-21 23:40:00,
2013-01-21 17:41:00,35.8,15.5,30.36,NNW,333,4.0,4.0,43,0.00,,---,0.00,VWS V14.00,2013-01-21 23:41:00,
2013-01-21 17:42:00,35.6,15.3,30.36,NNW,333,3.0,5.0,43,0.00,,---,0.00,VWS V14.00,2013-01-21 23:42:00,
2013-01-21 17:43:00,35.8,15.5,30.36,NNW,333,4.0,5.0,43,0.00,,---,0.00,VWS V14.00,2013-01-21 23:43:00,
2013-01-21 17:44:00,35.6,15.3,30.36,NNW,333,3.0,5.0,43,0.00,,---,0.00,VWS V14.00,2013-01-21 23:44:00,
2013-01-21 17:45:00,35.6,15.3,30.36,NNW,333,4.0,6.0,43,0.00,,---,0.00,VWS V14.00,2013-01-21 23:45:00,
2013-01-21 17:46:00,35.6,15.9,30.36,NNW,333,2.0,4.0,44,0.00,,---,0.00,VWS V14.00,2013-01-21 23:46:00,
2013-01-21 17:47:00,35.5,15.2,30.36,NNW,333,2.0,2.0,43,0.00,,---,0.00,VWS V14.00,2013-01-21 23:47:00,
2013-01-21 17:48:00,35.5,15.2,30.36,NNW,333,1.0,5.0,43,0.00,,---,0.00,VWS V14.00,2013-01-21 23:48:00,
2013-01-21 17:49:00,35.5,15.2,30.36,NNW,333,1.0,3.0,43,0.00,,---,0.00,VWS V14.00,2013-01-21 23:49:00,
2013-01-21 17:50:00,35.3,15.1,30.36,NNW,333,3.0,4.0,43,0.00,,---,0.00,VWS V14.00,2013-01-21 23:50:00,
2013-01-21 17:51:00,35.3,15.6,30.36,NNW,333,3.0,3.0,44,0.00,,---,0.00,VWS V14.00,2013-01-21 23:51:00,
2013-01-21 17:52:00,35.2,15.5,30.36,NNW,333,1.0,3.0,44,0.00,,---,0.00,VWS V14.00,2013-01-21 23:52:00,
2013-01-21 17:53:00,35.2,15.5,30.36,NNW,333,1.0,3.0,44,0.00,,---,0.00,VWS V14.00,2013-01-21 23:53:00,
2013-01-21 17:54:00,35.2,15.5,30.36,NNW,333,2.0,4.0,44,0.00,,---,0.00,VWS V14.00,2013-01-21 23:54:00,
2013-01-21 17:55:00,35.2,15.5,30.36,NNW,333,2.0,3.0,44,0.00,,---,0.00,VWS V14.00,2013-01-21 23:55:00,
2013-01-21 17:56:00,35.2,16.0,30.36,NNW,333,0.0,2.0,45,0.00,,---,0.00,VWS V14.00,2013-01-21 23:56:00,
2013-01-21 17:57:00,34.9,15.7,30.36,NNW,333,1.0,4.0,45,0.00,,---,0.00,VWS V14.00,2013-01-21 23:57:00,
2013-01-21 17:58:00,35.0,15.8,30.36,NNW,333,0.0,4.0,45,0.00,,---,0.00,VWS V14.00,2013-01-21 23:58:00,
2013-01-21 17:59:00,35.0,15.8,30.36,NNW,333,3.0,4.0,45,0.00,,---,0.00,VWS V14.00,2013-01-21 23:59:00,
2013-01-21 18:00:00,34.9,15.7,30.36,NNW,333,1.0,4.0,45,0.00,,---,0.00,VWS V14.00,2013-01-22 00:00:00,
2013-01-21 18:01:00,34.9,15.7,30.36,NNW,333,3.0,5.0,45,0.00,,---,0.00,VWS V14.00,2013-01-22 00:01:00,
2013-01-21 18:02:00,34.7,15.6,30.36,NNW,333,1.0,2.0,45,0.00,,---,0.00,VWS V14.00,2013-01-22 00:02:00,
2013-01-21 18:03:00,34.7,16.0,30.36,NNW,333,2.0,3.0,46,0.00,,---,0.00,VWS V14.00,2013-01-22 00:03:00,
2013-01-21 18:04:00,34.7,15.6,30.36,NNW,333,0.0,3.0,45,0.00,,---,0.00,VWS V14.00,2013-01-22 00:04:00,
2013-01-21 18:05:00,34.7,16.0,30.36,NNW,333,0.0,2.0,46,0.00,,---,0.00,VWS V14.00,2013-01-22 00:05:00,
2013-01-21 18:06:00,34.6,16.0,30.36,NNW,333,0.0,0.0,46,0.00,,---,0.00,VWS V14.00,2013-01-22 00:06:00,
2013-01-21 18:07:00,34.4,15.8,30.36,NNW,333,3.0,3.0,46,0.00,,---,0.00,VWS V14.00,2013-01-22 00:07:00,
2013-01-21 18:08:00,34.6,16.0,30.36,NNW,333,1.0,2.0,46,0.00,,---,0.00,VWS V14.00,2013-01-22 00:08:00,
2013-01-21 18:09:00,34.6,16.0,30.36,NNW,333,1.0,4.0,46,0.00,,---,0.00,VWS V14.00,2013-01-22 00:09:00,
2013-01-21 18:10:00,34.4,15.8,30.36,NNW,333,4.0,4.0,46,0.00,,---,0.00,VWS V14.00,2013-01-22 00:10:00,
2013-01-21 18:11:00,34.4,15.8,30.37,NNW,333,2.0,4.0,46,0.00,,---,0.00,VWS V14.00,2013-01-22 00:11:00,
2013-01-21 18:12:00,34.3,15.7,30.37,NNW,333,3.0,4.0,46,0.00,,---,0.00,VWS V14.00,2013-01-22 00:12:00,
2013-01-21 18:13:00,34.3,15.7,30.37,NNW,333,1.0,3.0,46,0.00,,---,0.00,VWS V14.00,2013-01-22 00:13:00,
2013-01-21 18:14:00,34.3,15.7,30.37,NNW,333,2.0,3.0,46,0.00,,---,0.00,VWS V14.00,2013-01-22 00:14:00,
2013-01-21 18:15:00,34.1,15.5,30.37,NNW,333,3.0,4.0,46,0.00,,---,0.00,VWS V14.00,2013-01-22 00:15:00,
2013-01-21 18:16:00,34.1,16.0,30.37,NNW,333,3.0,4.0,47,0.00,,---,0.00,VWS V14.00,2013-01-22 00:16:00,
2013-01-21 18:17:00,34.0,15.9,30.37,NNW,333,4.0,4.0,47,0.00,,---,0.00,VWS V14.00,2013-01-22 00:17:00,
2013-01-21 18:18:00,34.0,15.4,30.37,NNW,333,3.0,7.0,46,0.00,,---,0.00,VWS V14.00,2013-01-22 00:18:00,
2013-01-21 18:19:00,34.0,15.4,30.37,NNW,333,3.0,3.0,46,0.00,,---,0.00,VWS V14.00,2013-01-22 00:19:00,
2013-01-21 18:20:00,34.0,15.9,30.37,NNW,333,3.0,4.0,47,0.00,,---,0.00,VWS V14.00,2013-01-22 00:20:00,
2013-01-21 18:21:00,33.8,15.7,30.37,NNW,333,2.0,4.0,47,0.00,,---,0.00,VWS V14.00,2013-01-22 00:21:00,
2013-01-21 18:22:00,33.8,16.2,30.37,NNW,333,3.0,4.0,48,0.00,,---,0.00,VWS V14.00,2013-01-22 00:22:00,
2013-01-21 18:23:00,33.8,16.2,30.37,NNW,333,0.0,0.0,48,0.00,,---,0.00,VWS V14.00,2013-01-22 00:23:00,
2013-01-21 18:24:00,33.8,16.2,30.37,NNW,333,2.0,2.0,48,0.00,,---,0.00,VWS V14.00,2013-01-22 00:24:00,
2013-01-21 18:25:00,33.8,16.2,30.37,NNW,333,3.0,6.0,48,0.00,,---,0.00,VWS V14.00,2013-01-22 00:25:00,
2013-01-21 18:26:00,33.8,15.7,30.37,NNW,333,3.0,5.0,47,0.00,,---,0.00,VWS V14.00,2013-01-22 00:26:00,
2013-01-21 18:27:00,33.7,15.6,30.37,NNW,333,0.0,2.0,47,0.00,,---,0.00,VWS V14.00,2013-01-22 00:27:00,
2013-01-21 18:28:00,33.7,16.1,30.37,NNW,333,2.0,3.0,48,0.00,,---,0.00,VWS V14.00,2013-01-22 00:28:00,
2013-01-21 18:29:00,33.7,16.1,30.37,NNW,333,2.0,2.0,48,0.00,,---,0.00,VWS V14.00,2013-01-22 00:29:00,
2013-01-21 18:30:00,33.7,15.6,30.37,NNW,333,0.0,2.0,47,0.00,,---,0.00,VWS V14.00,2013-01-22 00:30:00,
2013-01-21 18:31:00,33.5,15.9,30.37,NNW,333,0.0,0.0,48,0.00,,---,0.00,VWS V14.00,2013-01-22 00:31:00,
2013-01-21 18:32:00,33.5,15.9,30.37,NNW,333,3.0,3.0,48,0.00,,---,0.00,VWS V14.00,2013-01-22 00:32:00,
2013-01-21 18:33:00,33.5,15.9,30.37,NNW,333,0.0,2.0,48,0.00,,---,0.00,VWS V14.00,2013-01-22 00:33:00,
2013-01-21 18:34:00,33.5,15.9,30.37,NNW,333,3.0,3.0,48,0.00,,---,0.00,VWS V14.00,2013-01-22 00:34:00,
2013-01-21 18:35:00,33.4,15.8,30.37,NNW,333,1.0,4.0,48,0.00,,---,0.00,VWS V14.00,2013-01-22 00:35:00,
2013-01-21 18:36:00,33.4,15.8,30.37,NNW,333,0.0,3.0,48,0.00,,---,0.00,VWS V14.00,2013-01-22 00:36:00,
2013-01-21 18:37:00,33.2,15.6,30.37,NNW,333,0.0,0.0,48,0.00,,---,0.00,VWS V14.00,2013-01-22 00:37:00,
2013-01-21 18:38:00,33.4,15.8,30.37,NNW,333,1.0,2.0,48,0.00,,---,0.00,VWS V14.00,2013-01-22 00:38:00,
2013-01-21 18:39:00,33.2,15.6,30.37,NNW,333,0.0,1.0,48,0.00,,---,0.00,VWS V14.00,2013-01-22 00:39:00,
2013-01-21 18:40:00,33.2,16.1,30.37,NNW,333,0.0,0.0,49,0.00,,---,0.00,VWS V14.00,2013-01-22 00:40:00,
2013-01-21 18:41:00,33.2,15.6,30.37,NNW,333,0.0,0.0,48,0.00,,---,0.00,VWS V14.00,2013-01-22 00:41:00,
2013-01-21 18:42:00,33.1,15.6,30.37,NNW,333,0.0,0.0,48,0.00,,---,0.00,VWS V14.00,2013-01-22 00:42:00,
2013-01-21 18:43:00,33.1,16.0,30.37,NNW,333,0.0,1.0,49,0.00,,---,0.00,VWS V14.00,2013-01-22 00:43:00,
2013-01-21 18:44:00,33.1,15.6,30.37,NNW,333,0.0,0.0,48,0.00,,---,0.00,VWS V14.00,2013-01-22 00:44:00,
2013-01-21 18:45:00,33.1,16.0,30.37,NNW,333,0.0,0.0,49,0.00,,---,0.00,VWS V14.00,2013-01-22 00:45:00,
2013-01-21 18:46:00,33.1,16.0,30.37,NNW,333,0.0,0.0,49,0.00,,---,0.00,VWS V14.00,2013-01-22 00:46:00,
2013-01-21 18:47:00,32.9,16.3,30.37,NNW,333,0.0,0.0,50,0.00,,---,0.00,VWS V14.00,2013-01-22 00:47:00,
2013-01-21 18:48:00,32.9,15.4,30.37,NNW,333,0.0,0.0,48,0.00,,---,0.00,VWS V14.00,2013-01-22 00:48:00,
2013-01-21 18:49:00,32.9,15.9,30.37,NNW,333,0.0,0.0,49,0.00,,---,0.00,VWS V14.00,2013-01-22 00:49:00,
2013-01-21 18:50:00,32.9,16.3,30.37,NNW,333,0.0,0.0,50,0.00,,---,0.00,VWS V14.00,2013-01-22 00:50:00,
2013-01-21 18:51:00,32.9,16.8,30.37,NNW,333,0.0,0.0,51,0.00,,---,0.00,VWS V14.00,2013-01-22 00:51:00,
2013-01-21 18:52:00,32.7,16.6,30.37,NNW,333,0.0,0.0,51,0.00,,---,0.00,VWS V14.00,2013-01-22 00:52:00,
2013-01-21 18:53:00,32.8,16.7,30.37,NNW,333,0.0,0.0,51,0.00,,---,0.00,VWS V14.00,2013-01-22 00:53:00,
2013-01-21 18:54:00,32.8,17.1,30.37,NNW,333,0.0,0.0,52,0.00,,---,0.00,VWS V14.00,2013-01-22 00:54:00,
2013-01-21 18:55:00,32.7,16.6,30.37,NNW,333,0.0,0.0,51,0.00,,---,0.00,VWS V14.00,2013-01-22 00:55:00,
2013-01-21 18:56:00,32.7,17.0,30.37,NNW,333,0.0,0.0,52,0.00,,---,0.00,VWS V14.00,2013-01-22 00:56:00,
2013-01-21 18:57:00,32.4,16.8,30.37,NNW,333,0.0,0.0,52,0.00,,---,0.00,VWS V14.00,2013-01-22 00:57:00,
2013-01-21 18:58:00,32.5,16.9,30.37,NNW,333,0.0,0.0,52,0.00,,---,0.00,VWS V14.00,2013-01-22 00:58:00,
2013-01-21 18:59:00,32.5,16.9,30.37,NNW,333,0.0,0.0,52,0.00,,---,0.00,VWS V14.00,2013-01-22 00:59:00,
2013-01-21 19:00:00,32.4,16.8,30.37,NNW,333,0.0,0.0,52,0.00,,---,0.00,VWS V14.00,2013-01-22 01:00:00,
2013-01-21 19:01:00,32.4,16.8,30.37,NNW,333,0.0,0.0,52,0.00,,---,0.00,VWS V14.00,2013-01-22 01:01:00,
2013-01-21 19:02:00,32.1,16.5,30.37,NNW,333,0.0,0.0,52,0.00,,---,0.00,VWS V14.00,2013-01-22 01:02:00,
2013-01-21 19:03:00,32.2,16.6,30.37,NNW,333,0.0,0.0,52,0.00,,---,0.00,VWS V14.00,2013-01-22 01:03:00,
2013-01-21 19:04:00,32.1,16.5,30.37,NNW,333,0.0,0.0,52,0.00,,---,0.00,VWS V14.00,2013-01-22 01:04:00,
2013-01-21 19:05:00,32.1,16.5,30.37,NNW,333,0.0,0.0,52,0.00,,---,0.00,VWS V14.00,2013-01-22 01:05:00,
2013-01-21 19:06:00,31.9,16.3,30.37,NNW,333,0.0,0.0,52,0.00,,---,0.00,VWS V14.00,2013-01-22 01:06:00,
2013-01-21 19:07:00,31.8,17.1,30.37,NNW,333,0.0,0.0,54,0.00,,---,0.00,VWS V14.00,2013-01-22 01:07:00,
2013-01-21 19:08:00,31.8,17.1,30.37,NNW,333,0.0,0.0,54,0.00,,---,0.00,VWS V14.00,2013-01-22 01:08:00,
2013-01-21 19:09:00,31.8,17.1,30.37,NNW,333,0.0,0.0,54,0.00,,---,0.00,VWS V14.00,2013-01-22 01:09:00,
2013-01-21 19:10:00,31.6,16.9,30.37,NNW,333,0.0,0.0,54,0.00,,---,0.00,VWS V14.00,2013-01-22 01:10:00,
2013-01-21 19:11:00,31.6,16.9,30.37,NNW,333,0.0,0.0,54,0.00,,---,0.00,VWS V14.00,2013-01-22 01:11:00,
2013-01-21 19:12:00,31.3,16.6,30.37,NNW,333,0.0,0.0,54,0.00,,---,0.00,VWS V14.00,2013-01-22 01:12:00,
2013-01-21 19:13:00,31.5,16.8,30.37,NNW,333,0.0,0.0,54,0.00,,---,0.00,VWS V14.00,2013-01-22 01:13:00,
2013-01-21 19:14:00,31.3,16.6,30.37,NNW,333,0.0,0.0,54,0.00,,---,0.00,VWS V14.00,2013-01-22 01:14:00,
2013-01-21 19:15:00,31.3,16.6,30.37,NNW,333,0.0,0.0,54,0.00,,---,0.00,VWS V14.00,2013-01-22 01:15:00,
2013-01-21 19:16:00,31.2,16.5,30.37,NNW,333,0.0,0.0,54,0.00,,---,0.00,VWS V14.00,2013-01-22 01:16:00,
2013-01-21 19:17:00,30.9,16.6,30.37,NNW,333,0.0,0.0,55,0.00,,---,0.00,VWS V14.00,2013-01-22 01:17:00,
2013-01-21 19:18:00,31.0,16.7,30.37,NNW,333,0.0,0.0,55,0.00,,---,0.00,VWS V14.00,2013-01-22 01:18:00,
2013-01-21 19:19:00,30.9,16.6,30.37,NNW,333,0.0,0.0,55,0.00,,---,0.00,VWS V14.00,2013-01-22 01:19:00,
2013-01-21 19:20:00,30.7,16.5,30.37,NNW,333,0.0,0.0,55,0.00,,---,0.00,VWS V14.00,2013-01-22 01:20:00,
2013-01-21 19:21:00,30.7,16.5,30.37,NNW,333,0.0,0.0,55,0.00,,---,0.00,VWS V14.00,2013-01-22 01:21:00,
2013-01-21 19:22:00,30.4,16.2,30.37,NNW,333,0.0,0.0,55,0.00,,---,0.00,VWS V14.00,2013-01-22 01:22:00,
2013-01-21 19:23:00,30.6,16.4,30.37,NNW,333,0.0,0.0,55,0.00,,---,0.00,VWS V14.00,2013-01-22 01:23:00,
2013-01-21 19:24:00,30.4,16.2,30.37,NNW,333,0.0,0.0,55,0.00,,---,0.00,VWS V14.00,2013-01-22 01:24:00,
2013-01-21 19:25:00,30.4,16.2,30.37,NNW,333,0.0,0.0,55,0.00,,---,0.00,VWS V14.00,2013-01-22 01:25:00,
2013-01-21 19:26:00,30.3,16.1,30.37,NNW,333,0.0,0.0,55,0.00,,---,0.00,VWS V14.00,2013-01-22 01:26:00,
2013-01-21 19:27:00,30.1,16.3,30.37,NNW,333,0.0,0.0,56,0.00,,---,0.00,VWS V14.00,2013-01-22 01:27:00,
2013-01-21 19:28:00,30.3,16.1,30.37,NNW,333,0.0,0.0,55,0.00,,---,0.00,VWS V14.00,2013-01-22 01:28:00,
2013-01-21 19:29:00,30.1,16.3,30.37,NNW,333,0.0,0.0,56,0.00,,---,0.00,VWS V14.00,2013-01-22 01:29:00,
2013-01-21 19:30:00,30.1,16.3,30.37,NNW,333,0.0,0.0,56,0.00,,---,0.00,VWS V14.00,2013-01-22 01:30:00,
2013-01-21 19:31:00,30.1,16.7,30.37,NNW,333,0.0,0.0,57,0.00,,---,0.00,VWS V14.00,2013-01-22 01:31:00,
2013-01-21 19:32:00,30.0,16.6,30.37,NNW,333,0.0,0.0,57,0.00,,---,0.00,VWS V14.00,2013-01-22 01:32:00,
2013-01-21 19:33:00,30.1,17.1,30.37,NNW,333,0.0,0.0,58,0.00,,---,0.00,VWS V14.00,2013-01-22 01:33:00,
2013-01-21 19:34:00,30.0,17.0,30.37,NNW,333,0.0,0.0,58,0.00,,---,0.00,VWS V14.00,2013-01-22 01:34:00,
2013-01-21 19:35:00,30.0,16.6,30.37,NNW,333,0.0,0.0,57,0.00,,---,0.00,VWS V14.00,2013-01-22 01:35:00,
2013-01-21 19:36:00,30.0,16.6,30.37,NNW,333,0.0,0.0,57,0.00,,---,0.00,VWS V14.00,2013-01-22 01:36:00,
2013-01-21 19:37:00,29.7,16.8,30.37,NNW,333,0.0,0.0,58,0.00,,---,0.00,VWS V14.00,2013-01-22 01:37:00,
2013-01-21 19:38:00,29.8,16.8,30.37,NNW,333,0.0,0.0,58,0.00,,---,0.00,VWS V14.00,2013-01-22 01:38:00,
2013-01-21 19:39:00,29.8,16.8,30.37,NNW,333,0.0,0.0,58,0.00,,---,0.00,VWS V14.00,2013-01-22 01:39:00,
2013-01-21 19:40:00,29.7,16.8,30.37,NNW,333,0.0,0.0,58,0.00,,---,0.00,VWS V14.00,2013-01-22 01:40:00,
2013-01-21 19:41:00,29.7,16.8,30.37,NNW,333,0.0,0.0,58,0.00,,---,0.00,VWS V14.00,2013-01-22 01:41:00,
2013-01-21 19:42:00,29.5,17.0,30.37,NNW,333,0.0,0.0,59,0.00,,---,0.00,VWS V14.00,2013-01-22 01:42:00,
2013-01-21 19:43:00,29.7,16.8,30.37,NNW,333,0.0,0.0,58,0.00,,---,0.00,VWS V14.00,2013-01-22 01:43:00,
2013-01-21 19:44:00,29.5,17.0,30.37,NNW,333,0.0,0.0,59,0.00,,---,0.00,VWS V14.00,2013-01-22 01:44:00,
2013-01-21 19:45:00,29.5,17.0,30.37,NNW,333,0.0,0.0,59,0.00,,---,0.00,VWS V14.00,2013-01-22 01:45:00,
2013-01-21 19:46:00,29.5,17.0,30.37,NNW,333,0.0,0.0,59,0.00,,---,0.00,VWS V14.00,2013-01-22 01:46:00,
2013-01-21 19:47:00,29.4,16.9,30.38,NNW,333,0.0,0.0,59,0.00,,---,0.00,VWS V14.00,2013-01-22 01:47:00,
2013-01-21 19:48:00,29.5,17.0,30.38,NNW,333,0.0,0.0,59,0.00,,---,0.00,VWS V14.00,2013-01-22 01:48:00,
2013-01-21 19:49:00,29.5,17.0,30.38,NNW,333,0.0,0.0,59,0.00,,---,0.00,VWS V14.00,2013-01-22 01:49:00,
2013-01-21 19:50:00,29.4,16.9,30.38,NNW,333,0.0,0.0,59,0.00,,---,0.00,VWS V14.00,2013-01-22 01:50:00,
2013-01-21 19:51:00,29.4,16.9,30.38,NNW,333,0.0,0.0,59,0.00,,---,0.00,VWS V14.00,2013-01-22 01:51:00,
2013-01-21 19:52:00,29.4,16.9,30.38,NNW,333,0.0,0.0,59,0.00,,---,0.00,VWS V14.00,2013-01-22 01:52:00,
2013-01-21 19:53:00,29.4,16.9,30.38,NNW,333,0.0,0.0,59,0.00,,---,0.00,VWS V14.00,2013-01-22 01:53:00,
2013-01-21 19:54:00,29.4,16.9,30.38,NNW,333,0.0,0.0,59,0.00,,---,0.00,VWS V14.00,2013-01-22 01:54:00,
2013-01-21 19:55:00,29.4,16.9,30.38,NNW,333,0.0,0.0,59,0.00,,---,0.00,VWS V14.00,2013-01-22 01:55:00,
2013-01-21 19:56:00,29.4,17.2,30.38,NNW,333,0.0,0.0,60,0.00,,---,0.00,VWS V14.00,2013-01-22 01:56:00,
2013-01-21 19:57:00,29.3,16.8,30.38,NNW,333,0.0,0.0,59,0.00,,---,0.00,VWS V14.00,2013-01-22 01:57:00,
2013-01-21 19:58:00,29.4,16.9,30.38,NNW,333,0.0,0.0,59,0.00,,---,0.00,VWS V14.00,2013-01-22 01:58:00,
2013-01-21 19:59:00,29.3,16.8,30.38,NNW,333,0.0,0.0,59,0.00,,---,0.00,VWS V14.00,2013-01-22 01:59:00,
2013-01-21 20:00:00,29.3,16.8,30.38,NNW,333,0.0,0.0,59,0.00,,---,0.00,VWS V14.00,2013-01-22 02:00:00,
2013-01-21 20:01:00,29.3,16.8,30.38,NNW,333,0.0,0.0,59,0.00,,---,0.00,VWS V14.00,2013-01-22 02:01:00,
2013-01-21 20:02:00,29.1,17.0,30.38,NNW,333,0.0,0.0,60,0.00,,---,0.00,VWS V14.00,2013-01-22 02:02:00,
2013-01-21 20:03:00,29.1,17.0,30.38,NNW,333,0.0,0.0,60,0.00,,---,0.00,VWS V14.00,2013-01-22 02:03:00,
2013-01-21 20:04:00,29.1,17.0,30.38,NNW,333,0.0,0.0,60,0.00,,---,0.00,VWS V14.00,2013-01-22 02:04:00,
2013-01-21 20:05:00,29.1,17.0,30.38,NNW,333,0.0,0.0,60,0.00,,---,0.00,VWS V14.00,2013-01-22 02:05:00,
2013-01-21 20:06:00,29.1,17.0,30.38,NNW,333,0.0,0.0,60,0.00,,---,0.00,VWS V14.00,2013-01-22 02:06:00,
2013-01-21 20:07:00,29.0,16.9,30.38,NNW,333,0.0,0.0,60,0.00,,---,0.00,VWS V14.00,2013-01-22 02:07:00,
2013-01-21 20:08:00,29.0,16.9,30.38,NNW,333,0.0,0.0,60,0.00,,---,0.00,VWS V14.00,2013-01-22 02:08:00,
2013-01-21 20:09:00,29.0,16.9,30.38,NNW,333,0.0,0.0,60,0.00,,---,0.00,VWS V14.00,2013-01-22 02:09:00,
2013-01-21 20:10:00,29.0,16.9,30.38,NNW,333,0.0,0.0,60,0.00,,---,0.00,VWS V14.00,2013-01-22 02:10:00,
2013-01-21 20:11:00,29.0,16.9,30.38,NNW,333,0.0,0.0,60,0.00,,---,0.00,VWS V14.00,2013-01-22 02:11:00,
2013-01-21 20:12:00,28.8,16.3,30.38,NNW,333,0.0,0.0,59,0.00,,---,0.00,VWS V14.00,2013-01-22 02:12:00,
2013-01-21 20:13:00,28.8,16.7,30.38,NNW,333,0.0,0.0,60,0.00,,---,0.00,VWS V14.00,2013-01-22 02:13:00,
2013-01-21 20:14:00,28.8,16.7,30.38,NNW,333,0.0,0.0,60,0.00,,---,0.00,VWS V14.00,2013-01-22 02:14:00,
2013-01-21 20:15:00,28.8,16.3,30.38,NNW,333,0.0,0.0,59,0.00,,---,0.00,VWS V14.00,2013-01-22 02:15:00,
2013-01-21 20:16:00,28.8,16.3,30.38,NNW,333,0.0,0.0,59,0.00,,---,0.00,VWS V14.00,2013-01-22 02:16:00,
2013-01-21 20:17:00,28.7,17.0,30.38,NNW,333,0.0,0.0,61,0.00,,---,0.00,VWS V14.00,2013-01-22 02:17:00,
2013-01-21 20:18:00,28.7,16.6,30.38,NNW,333,0.0,0.0,60,0.00,,---,0.00,VWS V14.00,2013-01-22 02:18:00,
2013-01-21 20:19:00,28.7,17.0,30.38,NNW,333,0.0,0.0,61,0.00,,---,0.00,VWS V14.00,2013-01-22 02:19:00,
2013-01-21 20:20:00,28.7,17.0,30.38,NNW,333,0.0,0.0,61,0.00,,---,0.00,VWS V14.00,2013-01-22 02:20:00,
2013-01-21 20:21:00,28.7,16.6,30.38,NNW,333,0.0,0.0,60,0.00,,---,0.00,VWS V14.00,2013-01-22 02:21:00,
2013-01-21 20:22:00,28.5,16.4,30.38,NNW,333,0.0,0.0,60,0.00,,---,0.00,VWS V14.00,2013-01-22 02:22:00,
2013-01-21 20:23:00,28.7,16.6,30.38,NNW,333,0.0,0.0,60,0.00,,---,0.00,VWS V14.00,2013-01-22 02:23:00,
2013-01-21 20:24:00,28.5,16.4,30.38,NNW,333,0.0,0.0,60,0.00,,---,0.00,VWS V14.00,2013-01-22 02:24:00,
2013-01-21 20:25:00,28.5,16.4,30.38,NNW,333,0.0,0.0,60,0.00,,---,0.00,VWS V14.00,2013-01-22 02:25:00,
2013-01-21 20:26:00,28.5,16.8,30.38,NNW,333,0.0,0.0,61,0.00,,---,0.00,VWS V14.00,2013-01-22 02:26:00,
2013-01-21 20:27:00,28.2,16.9,30.38,NNW,333,0.0,0.0,62,0.00,,---,0.00,VWS V14.00,2013-01-22 02:27:00,
2013-01-21 20:28:00,28.4,16.7,30.38,NNW,333,0.0,0.0,61,0.00,,---,0.00,VWS V14.00,2013-01-22 02:28:00,
2013-01-21 20:29:00,28.2,16.9,30.38,NNW,333,0.0,0.0,62,0.00,,---,0.00,VWS V14.00,2013-01-22 02:29:00,
2013-01-21 20:30:00,28.2,16.9,30.38,NNW,333,0.0,0.0,62,0.00,,---,0.00,VWS V14.00,2013-01-22 02:30:00,
2013-01-21 20:31:00,28.2,16.9,30.38,NNW,333,0.0,0.0,62,0.00,,---,0.00,VWS V14.00,2013-01-22 02:31:00,
2013-01-21 20:32:00,28.1,16.8,30.39,NNW,333,0.0,0.0,62,0.00,,---,0.00,VWS V14.00,2013-01-22 02:32:00,
2013-01-21 20:33:00,28.1,16.8,30.39,NNW,333,0.0,0.0,62,0.00,,---,0.00,VWS V14.00,2013-01-22 02:33:00,
2013-01-21 20:34:00,28.1,16.8,30.39,NNW,333,0.0,0.0,62,0.00,,---,0.00,VWS V14.00,2013-01-22 02:34:00,
2013-01-21 20:35:00,28.1,16.8,30.39,NNW,333,0.0,0.0,62,0.00,,---,0.00,VWS V14.00,2013-01-22 02:35:00,
2013-01-21 20:36:00,28.1,16.8,30.39,NNW,333,0.0,0.0,62,0.00,,---,0.00,VWS V14.00,2013-01-22 02:36:00,
2013-01-21 20:37:00,27.9,16.2,30.39,NNW,333,0.0,0.0,61,0.00,,---,0.00,VWS V14.00,2013-01-22 02:37:00,
2013-01-21 20:38:00,27.9,16.2,30.39,NNW,333,0.0,0.0,61,0.00,,---,0.00,VWS V14.00,2013-01-22 02:38:00,
2013-01-21 20:39:00,27.9,16.2,30.39,NNW,333,0.0,0.0,61,0.00,,---,0.00,VWS V14.00,2013-01-22 02:39:00,
2013-01-21 20:40:00,27.9,16.2,30.39,NNW,333,0.0,0.0,61,0.00,,---,0.00,VWS V14.00,2013-01-22 02:40:00,
2013-01-21 20:41:00,27.9,16.6,30.39,NNW,333,0.0,0.0,62,0.00,,---,0.00,VWS V14.00,2013-01-22 02:41:00,
2013-01-21 20:42:00,27.9,16.6,30.39,NNW,333,0.0,0.0,62,0.00,,---,0.00,VWS V14.00,2013-01-22 02:42:00,
2013-01-21 20:43:00,27.9,17.0,30.39,NNW,333,0.0,0.0,63,0.00,,---,0.00,VWS V14.00,2013-01-22 02:43:00,
2013-01-21 20:44:00,27.9,16.6,30.39,NNW,333,0.0,0.0,62,0.00,,---,0.00,VWS V14.00,2013-01-22 02:44:00,
2013-01-21 20:45:00,27.9,16.6,30.39,NNW,333,0.0,0.0,62,0.00,,---,0.00,VWS V14.00,2013-01-22 02:45:00,
2013-01-21 20:46:00,27.9,16.6,30.39,NNW,333,0.0,0.0,62,0.00,,---,0.00,VWS V14.00,2013-01-22 02:46:00,
2013-01-21 20:47:00,27.9,17.0,30.39,NNW,333,0.0,0.0,63,0.00,,---,0.00,VWS V14.00,2013-01-22 02:47:00,
2013-01-21 20:48:00,27.9,16.6,30.39,NNW,333,0.0,0.0,62,0.00,,---,0.00,VWS V14.00,2013-01-22 02:48:00,
2013-01-21 20:49:00,27.9,17.0,30.39,NNW,333,0.0,0.0,63,0.00,,---,0.00,VWS V14.00,2013-01-22 02:49:00,
2013-01-21 20:50:00,27.9,17.0,30.39,NNW,333,0.0,0.0,63,0.00,,---,0.00,VWS V14.00,2013-01-22 02:50:00,
2013-01-21 20:51:00,27.9,17.3,30.39,NNW,333,0.0,0.0,64,0.00,,---,0.00,VWS V14.00,2013-01-22 02:51:00,
2013-01-21 20:52:00,27.9,17.0,30.40,NNW,333,0.0,0.0,63,0.00,,---,0.00,VWS V14.00,2013-01-22 02:52:00,
2013-01-21 20:53:00,27.9,17.3,30.39,NNW,333,0.0,0.0,64,0.00,,---,0.00,VWS V14.00,2013-01-22 02:53:00,
2013-01-21 20:54:00,27.9,17.0,30.39,NNW,333,0.0,0.0,63,0.00,,---,0.00,VWS V14.00,2013-01-22 02:54:00,
2013-01-21 20:55:00,27.9,17.0,30.40,NNW,333,0.0,0.0,63,0.00,,---,0.00,VWS V14.00,2013-01-22 02:55:00,
2013-01-21 20:56:00,27.9,16.6,30.40,NNW,333,0.0,0.0,62,0.00,,---,0.00,VWS V14.00,2013-01-22 02:56:00,
2013-01-21 20:57:00,28.2,16.5,30.40,NNW,333,0.0,0.0,61,0.00,,---,0.00,VWS V14.00,2013-01-22 02:57:00,
2013-01-21 20:58:00,28.1,16.8,30.40,NNW,333,2.0,3.0,62,0.00,,---,0.00,VWS V14.00,2013-01-22 02:58:00,
2013-01-21 20:59:00,28.2,16.5,30.40,NNW,333,0.0,2.0,61,0.00,,---,0.00,VWS V14.00,2013-01-22 02:59:00,
2013-01-21 21:00:00,28.2,16.1,30.40,NNW,333,1.0,1.0,60,0.00,,---,0.00,VWS V14.00,2013-01-22 03:00:00,
2013-01-21 21:01:00,28.4,16.7,30.40,NNW,333,1.0,4.0,61,0.00,,---,0.00,VWS V14.00,2013-01-22 03:01:00,
2013-01-21 21:02:00,28.5,16.4,30.40,NNW,333,0.0,0.0,60,0.00,,---,0.00,VWS V14.00,2013-01-22 03:02:00,
2013-01-21 21:03:00,28.4,16.3,30.40,NNW,333,0.0,0.0,60,0.00,,---,0.00,VWS V14.00,2013-01-22 03:03:00,
2013-01-21 21:04:00,28.5,16.4,30.40,NNW,333,0.0,0.0,60,0.00,,---,0.00,VWS V14.00,2013-01-22 03:04:00,
2013-01-21 21:05:00,28.5,16.0,30.40,NNW,333,2.0,2.0,59,0.00,,---,0.00,VWS V14.00,2013-01-22 03:05:00,
2013-01-21 21:06:00,28.7,16.2,30.40,NNW,333,0.0,2.0,59,0.00,,---,0.00,VWS V14.00,2013-01-22 03:06:00,
2013-01-21 21:07:00,28.8,16.3,30.40,NNW,333,0.0,0.0,59,0.00,,---,0.00,VWS V14.00,2013-01-22 03:07:00,
2013-01-21 21:08:00,28.8,16.3,30.40,NNW,333,0.0,2.0,59,0.00,,---,0.00,VWS V14.00,2013-01-22 03:08:00,
2013-01-21 21:09:00,28.8,15.9,30.40,NNW,333,0.0,0.0,58,0.00,,---,0.00,VWS V14.00,2013-01-22 03:09:00,
2013-01-21 21:10:00,28.8,16.3,30.40,NNW,333,0.0,0.0,59,0.00,,---,0.00,VWS V14.00,2013-01-22 03:10:00,
2013-01-21 21:11:00,29.0,16.5,30.40,NNW,333,0.0,0.0,59,0.00,,---,0.00,VWS V14.00,2013-01-22 03:11:00,
2013-01-21 21:12:00,29.0,16.1,30.40,NNW,333,1.0,2.0,58,0.00,,---,0.00,VWS V14.00,2013-01-22 03:12:00,
2013-01-21 21:13:00,29.0,16.1,30.40,NNW,333,0.0,0.0,58,0.00,,---,0.00,VWS V14.00,2013-01-22 03:13:00,
2013-01-21 21:14:00,29.0,16.1,30.40,NNW,333,2.0,2.0,58,0.00,,---,0.00,VWS V14.00,2013-01-22 03:14:00,
2013-01-21 21:15:00,29.0,16.1,30.40,NNW,333,0.0,2.0,58,0.00,,---,0.00,VWS V14.00,2013-01-22 03:15:00,
2013-01-21 21:16:00,29.0,16.5,30.40,NNW,333,0.0,0.0,59,0.00,,---,0.00,VWS V14.00,2013-01-22 03:16:00,
2013-01-21 21:17:00,29.0,16.1,30.40,NNW,333,0.0,0.0,58,0.00,,---,0.00,VWS V14.00,2013-01-22 03:17:00,
2013-01-21 21:18:00,29.0,16.5,30.40,NNW,333,0.0,0.0,59,0.00,,---,0.00,VWS V14.00,2013-01-22 03:18:00,
2013-01-21 21:19:00,29.0,16.1,30.40,NNW,333,0.0,0.0,58,0.00,,---,0.00,VWS V14.00,2013-01-22 03:19:00,
2013-01-21 21:20:00,29.0,16.1,30.40,NNW,333,0.0,0.0,58,0.00,,---,0.00,VWS V14.00,2013-01-22 03:20:00,
2013-01-21 21:21:00,29.0,16.5,30.40,NNW,333,0.0,0.0,59,0.00,,---,0.00,VWS V14.00,2013-01-22 03:21:00,
2013-01-21 21:22:00,28.8,15.9,30.40,NNW,333,0.0,0.0,58,0.00,,---,0.00,VWS V14.00,2013-01-22 03:22:00,
2013-01-21 21:23:00,29.0,16.1,30.40,NNW,333,0.0,0.0,58,0.00,,---,0.00,VWS V14.00,2013-01-22 03:23:00,
2013-01-21 21:24:00,29.0,16.1,30.40,NNW,333,0.0,0.0,58,0.00,,---,0.00,VWS V14.00,2013-01-22 03:24:00,
2013-01-21 21:25:00,28.8,15.9,30.40,NNW,333,0.0,0.0,58,0.00,,---,0.00,VWS V14.00,2013-01-22 03:25:00,
2013-01-21 21:26:00,28.8,16.3,30.40,NNW,333,0.0,0.0,59,0.00,,---,0.00,VWS V14.00,2013-01-22 03:26:00,
2013-01-21 21:27:00,28.8,16.3,30.40,NNW,333,1.0,2.0,59,0.00,,---,0.00,VWS V14.00,2013-01-22 03:27:00,
2013-01-21 21:28:00,28.8,16.3,30.40,NNW,333,0.0,1.0,59,0.00,,---,0.00,VWS V14.00,2013-01-22 03:28:00,
2013-01-21 21:29:00,28.8,16.3,30.40,NNW,333,0.0,0.0,59,0.00,,---,0.00,VWS V14.00,2013-01-22 03:29:00,
2013-01-21 21:30:00,28.7,16.2,30.40,NNW,333,0.0,2.0,59,0.00,,---,0.00,VWS V14.00,2013-01-22 03:30:00,
2013-01-21 21:31:00,28.7,16.6,30.40,NNW,333,0.0,0.0,60,0.00,,---,0.00,VWS V14.00,2013-01-22 03:31:00,
2013-01-21 21:32:00,28.7,16.6,30.40,NNW,333,0.0,0.0,60,0.00,,---,0.00,VWS V14.00,2013-01-22 03:32:00,
2013-01-21 21:33:00,28.7,16.6,30.40,NNW,333,0.0,1.0,60,0.00,,---,0.00,VWS V14.00,2013-01-22 03:33:00,
2013-01-21 21:34:00,28.7,16.6,30.40,NNW,333,0.0,0.0,60,0.00,,---,0.00,VWS V14.00,2013-01-22 03:34:00,
2013-01-21 21:35:00,28.7,16.6,30.40,NNW,333,0.0,0.0,60,0.00,,---,0.00,VWS V14.00,2013-01-22 03:35:00,
2013-01-21 21:36:00,28.7,16.6,30.40,NNW,333,0.0,0.0,60,0.00,,---,0.00,VWS V14.00,2013-01-22 03:36:00,
2013-01-21 21:37:00,28.5,16.8,30.40,NNW,333,0.0,0.0,61,0.00,,---,0.00,VWS V14.00,2013-01-22 03:37:00,
2013-01-21 21:38:00,28.5,16.8,30.40,NNW,333,0.0,2.0,61,0.00,,---,0.00,VWS V14.00,2013-01-22 03:38:00,
2013-01-21 21:39:00,28.5,16.8,30.40,NNW,333,0.0,2.0,61,0.00,,---,0.00,VWS V14.00,2013-01-22 03:39:00,
2013-01-21 21:40:00,28.5,16.8,30.40,NNW,333,2.0,2.0,61,0.00,,---,0.00,VWS V14.00,2013-01-22 03:40:00,
2013-01-21 21:41:00,28.5,16.4,30.40,NNW,333,1.0,2.0,60,0.00,,---,0.00,VWS V14.00,2013-01-22 03:41:00,
2013-01-21 21:42:00,28.4,15.9,30.41,NNW,333,2.0,2.0,59,0.00,,---,0.00,VWS V14.00,2013-01-22 03:42:00,
2013-01-21 21:43:00,28.5,16.4,30.40,NNW,333,1.0,2.0,60,0.00,,---,0.00,VWS V14.00,2013-01-22 03:43:00,
2013-01-21 21:44:00,28.5,16.4,30.41,NNW,333,1.0,3.0,60,0.00,,---,0.00,VWS V14.00,2013-01-22 03:44:00,
2013-01-21 21:45:00,28.4,15.9,30.41,NNW,333,1.0,2.0,59,0.00,,---,0.00,VWS V14.00,2013-01-22 03:45:00,
2013-01-21 21:46:00,28.4,15.9,30.41,NNW,333,0.0,2.0,59,0.00,,---,0.00,VWS V14.00,2013-01-22 03:46:00,
2013-01-21 21:47:00,28.4,16.3,30.41,NNW,333,0.0,0.0,60,0.00,,---,0.00,VWS V14.00,2013-01-22 03:47:00,
2013-01-21 21:48:00,28.4,15.5,30.41,NNW,333,0.0,1.0,58,0.00,,---,0.00,VWS V14.00,2013-01-22 03:48:00,
2013-01-21 21:49:00,28.4,15.9,30.41,NNW,333,0.0,0.0,59,0.00,,---,0.00,VWS V14.00,2013-01-22 03:49:00,
2013-01-21 21:50:00,28.4,16.3,30.41,NNW,333,0.0,0.0,60,0.00,,---,0.00,VWS V14.00,2013-01-22 03:50:00,
2013-01-21 21:51:00,28.4,16.7,30.41,NNW,333,0.0,0.0,61,0.00,,---,0.00,VWS V14.00,2013-01-22 03:51:00,
2013-01-21 21:52:00,28.2,16.1,30.41,NNW,333,0.0,0.0,60,0.00,,---,0.00,VWS V14.00,2013-01-22 03:52:00,
2013-01-21 21:53:00,28.4,16.3,30.41,NNW,333,0.0,0.0,60,0.00,,---,0.00,VWS V14.00,2013-01-22 03:53:00,
2013-01-21 21:54:00,28.4,16.3,30.41,NNW,333,0.0,0.0,60,0.00,,---,0.00,VWS V14.00,2013-01-22 03:54:00,
2013-01-21 21:55:00,28.2,16.1,30.41,NNW,333,0.0,0.0,60,0.00,,---,0.00,VWS V14.00,2013-01-22 03:55:00,
2013-01-21 21:56:00,28.2,16.1,30.41,NNW,333,0.0,0.0,60,0.00,,---,0.00,VWS V14.00,2013-01-22 03:56:00,
2013-01-21 21:57:00,28.1,16.0,30.41,NNW,333,0.0,0.0,60,0.00,,---,0.00,VWS V14.00,2013-01-22 03:57:00,
2013-01-21 21:58:00,28.2,16.1,30.41,NNW,333,0.0,0.0,60,0.00,,---,0.00,VWS V14.00,2013-01-22 03:58:00,
2013-01-21 21:59:00,28.2,16.1,30.41,NNW,333,0.0,0.0,60,0.00,,---,0.00,VWS V14.00,2013-01-22 03:59:00,
2013-01-21 22:00:00,28.1,16.0,30.41,NNW,333,0.0,0.0,60,0.00,,---,0.00,VWS V14.00,2013-01-22 04:00:00,
2013-01-21 22:01:00,28.1,16.0,30.41,NNW,333,0.0,0.0,60,0.00,,---,0.00,VWS V14.00,2013-01-22 04:01:00,
2013-01-21 22:02:00,27.9,16.6,30.40,NNW,333,0.0,0.0,62,0.00,,---,0.00,VWS V14.00,2013-01-22 04:02:00,
2013-01-21 22:03:00,28.1,16.4,30.40,NNW,333,0.0,0.0,61,0.00,,---,0.00,VWS V14.00,2013-01-22 04:03:00,
2013-01-21 22:04:00,27.9,16.6,30.40,NNW,333,0.0,0.0,62,0.00,,---,0.00,VWS V14.00,2013-01-22 04:04:00,
2013-01-21 22:05:00,27.9,16.6,30.40,NNW,333,0.0,0.0,62,0.00,,---,0.00,VWS V14.00,2013-01-22 04:05:00,
2013-01-21 22:06:00,27.9,16.6,30.40,NNW,333,0.0,0.0,62,0.00,,---,0.00,VWS V14.00,2013-01-22 04:06:00,
2013-01-21 22:07:00,27.8,16.5,30.40,NNW,333,0.0,0.0,62,0.00,,---,0.00,VWS V14.00,2013-01-22 04:07:00,
2013-01-21 22:08:00,27.8,16.5,30.40,NNW,333,0.0,0.0,62,0.00,,---,0.00,VWS V14.00,2013-01-22 04:08:00,
2013-01-21 22:09:00,27.8,16.5,30.40,NNW,333,0.0,0.0,62,0.00,,---,0.00,VWS V14.00,2013-01-22 04:09:00,
2013-01-21 22:10:00,27.6,16.3,30.40,NNW,333,0.0,0.0,62,0.00,,---,0.00,VWS V14.00,2013-01-22 04:10:00,
2013-01-21 22:11:00,27.6,16.3,30.40,NNW,333,0.0,0.0,62,0.00,,---,0.00,VWS V14.00,2013-01-22 04:11:00,
2013-01-21 22:12:00,27.5,16.2,30.40,NNW,333,0.0,0.0,62,0.00,,---,0.00,VWS V14.00,2013-01-22 04:12:00,
2013-01-21 22:13:00,27.5,16.2,30.40,NNW,333,0.0,0.0,62,0.00,,---,0.00,VWS V14.00,2013-01-22 04:13:00,
2013-01-21 22:14:00,27.5,16.2,30.40,NNW,333,0.0,0.0,62,0.00,,---,0.00,VWS V14.00,2013-01-22 04:14:00,
2013-01-21 22:15:00,27.5,16.2,30.40,NNW,333,0.0,0.0,62,0.00,,---,0.00,VWS V14.00,2013-01-22 04:15:00,
2013-01-21 22:16:00,27.3,16.0,30.40,NNW,333,0.0,0.0,62,0.00,,---,0.00,VWS V14.00,2013-01-22 04:16:00,
2013-01-21 22:17:00,27.2,15.9,30.40,NNW,333,0.0,0.0,62,0.00,,---,0.00,VWS V14.00,2013-01-22 04:17:00,
2013-01-21 22:18:00,27.2,15.9,30.40,NNW,333,0.0,0.0,62,0.00,,---,0.00,VWS V14.00,2013-01-22 04:18:00,
2013-01-21 22:19:00,27.2,15.9,30.40,NNW,333,0.0,0.0,62,0.00,,---,0.00,VWS V14.00,2013-01-22 04:19:00,
2013-01-21 22:20:00,27.2,15.9,30.40,NNW,333,0.0,0.0,62,0.00,,---,0.00,VWS V14.00,2013-01-22 04:20:00,
2013-01-21 22:21:00,27.2,15.9,30.40,NNW,333,0.0,0.0,62,0.00,,---,0.00,VWS V14.00,2013-01-22 04:21:00,
2013-01-21 22:22:00,27.0,15.7,30.40,NNW,333,0.0,0.0,62,0.00,,---,0.00,VWS V14.00,2013-01-22 04:22:00,
2013-01-21 22:23:00,27.0,15.7,30.40,NNW,333,0.0,0.0,62,0.00,,---,0.00,VWS V14.00,2013-01-22 04:23:00,
2013-01-21 22:24:00,27.0,15.7,30.40,NNW,333,0.0,0.0,62,0.00,,---,0.00,VWS V14.00,2013-01-22 04:24:00,
2013-01-21 22:25:00,27.0,15.7,30.40,NNW,333,0.0,0.0,62,0.00,,---,0.00,VWS V14.00,2013-01-22 04:25:00,
2013-01-21 22:26:00,27.0,15.7,30.40,NNW,333,0.0,0.0,62,0.00,,---,0.00,VWS V14.00,2013-01-22 04:26:00,
2013-01-21 22:27:00,27.0,15.4,30.40,NNW,333,1.0,1.0,61,0.00,,---,0.00,VWS V14.00,2013-01-22 04:27:00,
2013-01-21 22:28:00,27.0,15.7,30.40,NNW,333,0.0,0.0,62,0.00,,---,0.00,VWS V14.00,2013-01-22 04:28:00,
2013-01-21 22:29:00,27.0,15.7,30.40,NNW,333,0.0,0.0,62,0.00,,---,0.00,VWS V14.00,2013-01-22 04:29:00,
2013-01-21 22:30:00,27.0,15.4,30.40,NNW,333,0.0,1.0,61,0.00,,---,0.00,VWS V14.00,2013-01-22 04:30:00,
2013-01-21 22:31:00,27.0,15.4,30.40,NNW,333,1.0,1.0,61,0.00,,---,0.00,VWS V14.00,2013-01-22 04:31:00,
2013-01-21 22:32:00,27.0,15.4,30.40,NNW,333,0.0,0.0,61,0.00,,---,0.00,VWS V14.00,2013-01-22 04:32:00,
2013-01-21 22:33:00,27.0,15.4,30.40,NNW,333,0.0,0.0,61,0.00,,---,0.00,VWS V14.00,2013-01-22 04:33:00,
2013-01-21 22:34:00,27.0,15.4,30.40,NNW,333,0.0,0.0,61,0.00,,---,0.00,VWS V14.00,2013-01-22 04:34:00,
2013-01-21 22:35:00,27.0,15.4,30.40,NNW,333,0.0,0.0,61,0.00,,---,0.00,VWS V14.00,2013-01-22 04:35:00,
2013-01-21 22:36:00,27.0,15.4,30.40,NNW,333,0.0,0.0,61,0.00,,---,0.00,VWS V14.00,2013-01-22 04:36:00,
2013-01-21 22:37:00,27.0,15.4,30.40,NNW,333,0.0,4.0,61,0.00,,---,0.00,VWS V14.00,2013-01-22 04:37:00,
2013-01-21 22:38:00,27.0,15.7,30.40,NNW,333,0.0,0.0,62,0.00,,---,0.00,VWS V14.00,2013-01-22 04:38:00,
2013-01-21 22:39:00,27.0,15.4,30.40,NNW,333,1.0,3.0,61,0.00,,---,0.00,VWS V14.00,2013-01-22 04:39:00,
2013-01-21 22:40:00,27.2,15.6,30.40,NNW,333,0.0,4.0,61,0.00,,---,0.00,VWS V14.00,2013-01-22 04:40:00,
2013-01-21 22:41:00,27.2,15.6,30.40,NNW,333,0.0,0.0,61,0.00,,---,0.00,VWS V14.00,2013-01-22 04:41:00,
2013-01-21 22:42:00,27.2,15.6,30.40,NNW,333,0.0,0.0,61,0.00,,---,0.00,VWS V14.00,2013-01-22 04:42:00,
2013-01-21 22:43:00,27.2,15.6,30.40,NNW,333,1.0,2.0,61,0.00,,---,0.00,VWS V14.00,2013-01-22 04:43:00,
2013-01-21 22:44:00,27.2,15.6,30.40,NNW,333,0.0,2.0,61,0.00,,---,0.00,VWS V14.00,2013-01-22 04:44:00,
2013-01-21 22:45:00,27.2,15.6,30.40,NNW,333,0.0,0.0,61,0.00,,---,0.00,VWS V14.00,2013-01-22 04:45:00,
2013-01-21 22:46:00,27.2,15.6,30.40,NNW,333,0.0,0.0,61,0.00,,---,0.00,VWS V14.00,2013-01-22 04:46:00,
2013-01-21 22:47:00,27.2,15.6,30.40,NNW,333,0.0,0.0,61,0.00,,---,0.00,VWS V14.00,2013-01-22 04:47:00,
2013-01-21 22:48:00,27.2,15.6,30.40,NNW,333,0.0,0.0,61,0.00,,---,0.00,VWS V14.00,2013-01-22 04:48:00,
2013-01-21 22:49:00,27.2,15.6,30.40,NNW,333,0.0,0.0,61,0.00,,---,0.00,VWS V14.00,2013-01-22 04:49:00,
2013-01-21 22:50:00,27.2,15.6,30.40,NNW,333,0.0,0.0,61,0.00,,---,0.00,VWS V14.00,2013-01-22 04:50:00,
2013-01-21 22:51:00,27.2,15.6,30.40,NNW,333,0.0,0.0,61,0.00,,---,0.00,VWS V14.00,2013-01-22 04:51:00,
2013-01-21 22:52:00,27.2,15.6,30.40,NNW,333,5.0,6.0,61,0.00,,---,0.00,VWS V14.00,2013-01-22 04:52:00,
2013-01-21 22:53:00,27.2,15.6,30.40,NNW,333,1.0,5.0,61,0.00,,---,0.00,VWS V14.00,2013-01-22 04:53:00,
2013-01-21 22:54:00,27.2,15.6,30.40,NNW,333,0.0,2.0,61,0.00,,---,0.00,VWS V14.00,2013-01-22 04:54:00,
2013-01-21 22:55:00,27.2,15.6,30.40,NNW,333,2.0,6.0,61,0.00,,---,0.00,VWS V14.00,2013-01-22 04:55:00,
2013-01-21 22:56:00,27.2,15.6,30.40,NNW,333,0.0,2.0,61,0.00,,---,0.00,VWS V14.00,2013-01-22 04:56:00,
2013-01-21 22:57:00,27.2,15.6,30.40,NNW,333,0.0,0.0,61,0.00,,---,0.00,VWS V14.00,2013-01-22 04:57:00,
2013-01-21 22:58:00,27.0,15.4,30.40,NNW,333,3.0,4.0,61,0.00,,---,0.00,VWS V14.00,2013-01-22 04:58:00,
2013-01-21 22:59:00,27.2,15.6,30.40,NNW,333,0.0,3.0,61,0.00,,---,0.00,VWS V14.00,2013-01-22 04:59:00,
2013-01-21 23:00:00,27.2,15.6,30.40,NNW,333,2.0,2.0,61,0.00,,---,0.00,VWS V14.00,2013-01-22 05:00:00,
2013-01-21 23:01:00,27.2,15.6,30.40,NNW,333,0.0,0.0,61,0.00,,---,0.00,VWS V14.00,2013-01-22 05:01:00,
2013-01-21 23:02:00,27.2,15.9,30.40,NNW,333,0.0,1.0,62,0.00,,---,0.00,VWS V14.00,2013-01-22 05:02:00,
2013-01-21 23:03:00,27.2,15.9,30.40,NNW,333,1.0,3.0,62,0.00,,---,0.00,VWS V14.00,2013-01-22 05:03:00,
2013-01-21 23:04:00,27.2,15.9,30.40,NNW,333,0.0,1.0,62,0.00,,---,0.00,VWS V14.00,2013-01-22 05:04:00,
2013-01-21 23:05:00,27.2,15.9,30.40,NNW,333,1.0,2.0,62,0.00,,---,0.00,VWS V14.00,2013-01-22 05:05:00,
2013-01-21 23:06:00,27.2,15.9,30.40,NNW,333,2.0,4.0,62,0.00,,---,0.00,VWS V14.00,2013-01-22 05:06:00,
2013-01-21 23:07:00,27.2,15.9,30.40,NNW,333,0.0,1.0,62,0.00,,---,0.00,VWS V14.00,2013-01-22 05:07:00,
2013-01-21 23:08:00,27.2,15.9,30.40,NNW,333,1.0,3.0,62,0.00,,---,0.00,VWS V14.00,2013-01-22 05:08:00,
2013-01-21 23:09:00,27.2,15.9,30.40,NNW,333,0.0,1.0,62,0.00,,---,0.00,VWS V14.00,2013-01-22 05:09:00,
2013-01-21 23:10:00,27.2,15.9,30.40,NNW,333,0.0,0.0,62,0.00,,---,0.00,VWS V14.00,2013-01-22 05:10:00,
2013-01-21 23:11:00,27.2,15.6,30.40,NNW,333,0.0,0.0,61,0.00,,---,0.00,VWS V14.00,2013-01-22 05:11:00,
2013-01-21 23:12:00,27.0,15.7,30.40,NNW,333,2.0,4.0,62,0.00,,---,0.00,VWS V14.00,2013-01-22 05:12:00,
2013-01-21 23:13:00,27.2,15.9,30.40,NNW,333,3.0,3.0,62,0.00,,---,0.00,VWS V14.00,2013-01-22 05:13:00,
2013-01-21 23:14:00,27.0,15.7,30.40,NNW,333,2.0,4.0,62,0.00,,---,0.00,VWS V14.00,2013-01-22 05:14:00,
2013-01-21 23:15:00,27.0,15.7,30.40,NNW,333,0.0,2.0,62,0.00,,---,0.00,VWS V14.00,2013-01-22 05:15:00,
2013-01-21 23:16:00,27.0,15.7,30.40,NNW,333,1.0,1.0,62,0.00,,---,0.00,VWS V14.00,2013-01-22 05:16:00,
2013-01-21 23:17:00,27.0,15.7,30.40,NNW,333,0.0,3.0,62,0.00,,---,0.00,VWS V14.00,2013-01-22 05:17:00,
2013-01-21 23:18:00,27.0,15.7,30.40,NNW,333,2.0,3.0,62,0.00,,---,0.00,VWS V14.00,2013-01-22 05:18:00,
2013-01-21 23:19:00,27.0,15.7,30.40,NNW,333,0.0,3.0,62,0.00,,---,0.00,VWS V14.00,2013-01-22 05:19:00,
2013-01-21 23:20:00,27.0,15.7,30.40,NNW,333,0.0,2.0,62,0.00,,---,0.00,VWS V14.00,2013-01-22 05:20:00,
2013-01-21 23:21:00,27.0,15.7,30.40,NNW,333,0.0,0.0,62,0.00,,---,0.00,VWS V14.00,2013-01-22 05:21:00,
2013-01-21 23:22:00,27.0,15.7,30.40,NNW,333,3.0,3.0,62,0.00,,---,0.00,VWS V14.00,2013-01-22 05:22:00,
2013-01-21 23:23:00,27.0,15.7,30.40,NNW,333,0.0,2.0,62,0.00,,---,0.00,VWS V14.00,2013-01-22 05:23:00,
2013-01-21 23:24:00,27.0,15.7,30.40,NNW,333,3.0,3.0,62,0.00,,---,0.00,VWS V14.00,2013-01-22 05:24:00,
2013-01-21 23:25:00,27.0,15.7,30.40,NNW,333,0.0,3.0,62,0.00,,---,0.00,VWS V14.00,2013-01-22 05:25:00,
2013-01-21 23:26:00,27.0,15.7,30.40,NNW,333,0.0,0.0,62,0.00,,---,0.00,VWS V14.00,2013-01-22 05:26:00,
2013-01-21 23:27:00,26.9,15.6,30.40,NNW,333,1.0,3.0,62,0.00,,---,0.00,VWS V14.00,2013-01-22 05:27:00,
2013-01-21 23:28:00,26.9,15.6,30.40,NNW,333,3.0,3.0,62,0.00,,---,0.00,VWS V14.00,2013-01-22 05:28:00,
2013-01-21 23:29:00,26.9,15.6,30.40,NNW,333,1.0,3.0,62,0.00,,---,0.00,VWS V14.00,2013-01-22 05:29:00,
2013-01-21 23:30:00,26.9,16.0,30.40,NNW,333,1.0,3.0,63,0.00,,---,0.00,VWS V14.00,2013-01-22 05:30:00,
2013-01-21 23:31:00,26.9,16.0,30.40,NNW,333,2.0,2.0,63,0.00,,---,0.00,VWS V14.00,2013-01-22 05:31:00,
2013-01-21 23:32:00,26.7,15.4,30.40,NNW,333,0.0,0.0,62,0.00,,---,0.00,VWS V14.00,2013-01-22 05:32:00,
2013-01-21 23:33:00,26.9,15.6,30.40,NNW,333,0.0,2.0,62,0.00,,---,0.00,VWS V14.00,2013-01-22 05:33:00,
2013-01-21 23:34:00,26.7,15.4,30.40,NNW,333,0.0,2.0,62,0.00,,---,0.00,VWS V14.00,2013-01-22 05:34:00,
2013-01-21 23:35:00,26.7,15.4,30.40,NNW,333,0.0,2.0,62,0.00,,---,0.00,VWS V14.00,2013-01-22 05:35:00,
2013-01-21 23:36:00,26.7,15.4,30.40,NNW,333,0.0,3.0,62,0.00,,---,0.00,VWS V14.00,2013-01-22 05:36:00,
2013-01-21 23:37:00,26.6,15.4,30.40,NNW,333,0.0,0.0,62,0.00,,---,0.00,VWS V14.00,2013-01-22 05:37:00,
2013-01-21 23:38:00,26.7,15.8,30.40,NNW,333,4.0,4.0,63,0.00,,---,0.00,VWS V14.00,2013-01-22 05:38:00,
2013-01-21 23:39:00,26.6,15.4,30.40,NNW,333,0.0,4.0,62,0.00,,---,0.00,VWS V14.00,2013-01-22 05:39:00,
2013-01-21 23:40:00,26.6,15.4,30.40,NNW,333,0.0,0.0,62,0.00,,---,0.00,VWS V14.00,2013-01-22 05:40:00,
2013-01-21 23:41:00,26.6,15.4,30.40,NNW,333,0.0,0.0,62,0.00,,---,0.00,VWS V14.00,2013-01-22 05:41:00,
2013-01-21 23:42:00,26.4,15.5,30.40,NNW,333,0.0,0.0,63,0.00,,---,0.00,VWS V14.00,2013-01-22 05:42:00,
2013-01-21 23:43:00,26.6,15.7,30.40,NNW,333,3.0,3.0,63,0.00,,---,0.00,VWS V14.00,2013-01-22 05:43:00,
2013-01-21 23:44:00,26.4,15.5,30.40,NNW,333,0.0,4.0,63,0.00,,---,0.00,VWS V14.00,2013-01-22 05:44:00,
2013-01-21 23:45:00,26.4,15.5,30.40,NNW,333,2.0,3.0,63,0.00,,---,0.00,VWS V14.00,2013-01-22 05:45:00,
2013-01-21 23:46:00,26.4,15.5,30.40,NNW,333,2.0,2.0,63,0.00,,---,0.00,VWS V14.00,2013-01-22 05:46:00,
2013-01-21 23:47:00,26.3,15.1,30.40,NNW,333,0.0,0.0,62,0.00,,---,0.00,VWS V14.00,2013-01-22 05:47:00,
2013-01-21 23:48:00,26.4,15.2,30.40,NNW,333,0.0,3.0,62,0.00,,---,0.00,VWS V14.00,2013-01-22 05:48:00,
2013-01-21 23:49:00,26.3,15.1,30.40,NNW,333,0.0,0.0,62,0.00,,---,0.00,VWS V14.00,2013-01-22 05:49:00,
2013-01-21 23:50:00,26.3,15.1,30.40,NNW,333,0.0,0.0,62,0.00,,---,0.00,VWS V14.00,2013-01-22 05:50:00,
2013-01-21 23:51:00,26.3,15.1,30.39,NNW,333,0.0,0.0,62,0.00,,---,0.00,VWS V14.00,2013-01-22 05:51:00,
2013-01-21 23:52:00,26.1,15.2,30.39,NNW,333,0.0,0.0,63,0.00,,---,0.00,VWS V14.00,2013-01-22 05:52:00,
2013-01-21 23:53:00,26.1,14.9,30.39,NNW,333,0.0,0.0,62,0.00,,---,0.00,VWS V14.00,2013-01-22 05:53:00,
2013-01-21 23:54:00,26.1,15.2,30.39,NNW,333,0.0,0.0,63,0.00,,---,0.00,VWS V14.00,2013-01-22 05:54:00,
2013-01-21 23:55:00,26.1,15.2,30.40,NNW,333,0.0,0.0,63,0.00,,---,0.00,VWS V14.00,2013-01-22 05:55:00,
2013-01-21 23:56:00,26.0,15.1,30.40,NNW,333,0.0,0.0,63,0.00,,---,0.00,VWS V14.00,2013-01-22 05:56:00,
2013-01-21 23:57:00,26.0,15.9,30.39,NNW,333,0.0,0.0,65,0.00,,---,0.00,VWS V14.00,2013-01-22 05:57:00,
2013-01-21 23:58:00,26.0,15.5,30.39,NNW,333,0.0,0.0,64,0.00,,---,0.00,VWS V14.00,2013-01-22 05:58:00,
2013-01-21 23:59:00,26.0,15.9,30.39,NNW,333,0.0,0.0,65,0.00,,---,0.00,VWS V14.00,2013-01-22 05:59:00,